     2              OBSERVATION DATA    GPS                 RINEX VERSION / TYPE
teqc 1999Jul19 19991123 03:17:27UTC                         PGM / RUN BY / DATE
                                                            COMMENT
Original Marker Name: DIABLO RM 2                           COMMENT
Campaign Name: HPGN 1991                                    COMMENT
4-Character Station Name: DIAB                              COMMENT
6-Character Antenna Code: TRMSST                            COMMENT
Vertical Measurement Point: TGP                             COMMENT
Vertical Offset to Rinex Ref. Point: 0.0629                 COMMENT
Radial Measurement Point: NGP                               COMMENT
Radial Offset to Rinex Ref. Point: 0.2334                   COMMENT
Antenna Height from Field Measurement: 1.6400 m             COMMENT
                                                            COMMENT
Original XYZ: -2665275.6758 -4279565.6609 3895895.8592      COMMENT
New XYZ position is based on association with SCEC monument COMMENT
E1F8K0S1+0011. Position of that monument is believed to be  COMMENT
valid to within 1 m horizontally; vertical accuracy         COMMENT
should be no worse than 3-times this value.                 COMMENT
                                                            COMMENT
Revised Rinex header created by UCSD GPS archive for        COMMENT
GSAC on 10-Mar-2000 (2000:070) 17:36:00 GMT                 COMMENT
For assistance contact dagnew@ucsd.edu or hjohnson@ucsd.edu COMMENT
                                                            COMMENT
DIABLO ECC RM 2 1962                                        MARKER NAME
DIAB                                                        MARKER NUMBER
-Unknown- CALIF DEPT TRANSPORTATION                         OBSERVER / AGENCY
423 TRIMBLE 4000 SST NP 4.30 / SP 4.20                      REC # / TYPE / VERS
106 TR 4000SST L1/L2 GEO                                    ANT # / TYPE
 -2665165.6881 -4279311.5862  3895800.4475                  APPROX POSITION XYZ
        1.5604        0.0000        0.0000                  ANTENNA: DELTA H/E/N
     1     1     0                                          WAVELENGTH FACT L1/2
     5    C1    L1    L2    S1    S2                        # / TYPES OF OBSERV
     0                                                      INTERVAL
  1991     5    20    17    56   30.000000                  TIME OF FIRST OBS
  1991     5    20    23    57   45.000000                  TIME OF LAST OBS
                                                            END OF HEADER
 91  5 20 17 56 30.0000000  0  3G18G19G11
  20751870.844          -0.63417                        25.000
  20759172.688          -0.50216                        19.250
  24396732.086          -0.22715                        10.500
 91  5 20 17 56 45.0000000  0  3G18G19G11
  20748919.898      -15507.809 7                        26.250
  20752191.109      -36686.360 6                        19.500
  24382935.273      -72512.929 6                        12.000
 91  5 20 17 57  0.0000000  0  3G18G19G11
  20745988.320      -30911.331 7                        26.000
  20745218.969      -73319.653 6                        19.750
  24369149.617     -144956.743 6                        12.250
 91  5 20 17 57 15.0000000  0  3G18G19G11
  20743077.438      -46207.500 7        -0.10131        24.750           0.844
  20738259.578     -109896.785 6        -0.45531        19.000           1.000
  24355378.328     -217327.620 6                        12.250
 91  5 20 17 57 30.0000000  0  3G18G19G11
  20740188.758      -61389.581 7    -11830.31222        26.250           2.313
  20731311.383     -146410.808 6    -28452.93522        19.750           1.563
  24341622.867     -289618.233 6                        12.500
 91  5 20 17 57 45.0000000  0  3G18G19G11
  20737321.688      -76457.245 7    -23571.36222        26.500           2.344
  20724374.469     -182861.605 6    -56856.13222        19.500           1.656
  24327879.875     -361828.006 6                        12.250
 91  5 20 17 58  0.0000000  0  3G18G19G11
  20734475.984      -91409.845 7    -35222.76322        26.500           2.313
  20717451.047     -219248.487 6    -85209.54322        19.250           1.688
  24314154.250     -433955.801 6        -0.10031        12.250           0.375
 91  5 20 17 58 15.0000000  0  4G18G19G11G16
  20731653.813     -106244.571 7    -46782.31022        27.000           2.281
  20710539.336     -255568.745 6   -113511.03322        19.500           1.594
  24300447.367     -505998.443 6    -56137.12721        12.000           0.313
  24315032.375          -0.97115                         8.750
 91  5 20 17 58 30.0000000  0  4G18G19G11G16
  20728853.797     -120958.964 7    -58248.09222        27.000           2.219
  20703639.508     -291819.697 7   -141758.52622        20.000           1.719
  24286754.055     -577952.733 5   -112205.31921        11.250           0.375
  24301722.438      -69929.135 5                         8.750
 91  5 20 17 58 45.0000000  0  4G18G19G11G16
  20726076.172     -135554.457 7    -69621.21922        26.750           2.219
  20696756.547     -328002.837 7   -169953.16822        20.000           1.719
  24273076.328     -649819.814 5   -168205.53921        10.750           0.344
  24288441.945     -139740.986 5                         9.000
 91  5 20 17 59  0.0000000  0  4G18G19G11G16
  20723320.039     -150033.208 7    -80903.38322        26.000           1.938
  20689884.023     -364120.576 6   -198096.84921        19.500           1.469
  24259418.469     -721601.447 5   -224139.16121        10.000           0.250
  24275173.602     -209438.599 5                         8.750
 91  5 20 17 59 15.0000000  0  4G18G19G11G16
  20720587.656     -164392.301 7    -92092.30921        25.500           0.063
  20683021.781     -400169.669 6   -226187.04321        18.250           0.031
  24245774.063     -793294.192 5   -280003.53121         9.750           0.031
  24261934.945     -279018.474 5                         8.500
 91  5 20 17 59 30.0000000  0  4G18G19G11G16
  20717878.930     -178630.216 7                        25.750
  20676177.117     -436148.879 6                        18.000
  24232149.133     -864896.127 5                        10.000
  24248713.844     -348478.936 5                         8.250
 91  5 20 17 59 45.0000000  0  4G18G19G11G16
  20715191.945     -192752.512 7                        26.000
  20669341.359     -472063.520 6                        19.250
  24218541.727     -936412.384 5                        10.750
  24235522.820     -417825.393 5                         9.000
 91  5 20 18  0  0.0000000  0  4G18G19G11G16
  20712526.422     -206756.168 7                        25.250
  20662518.008     -507910.733 6                        19.500
  24204947.352    -1007839.712 5                        10.000
  24222348.008     -487054.450 5                         8.750
 91  5 20 18  0 15.0000000  0  4G18G19G11G16
  20709885.156     -220641.039 7                        25.250
  20655712.148     -543690.340 6                        18.500
  24191371.172    -1079177.363 5                         9.500
  24209191.789     -556165.641 5                         7.750
 91  5 20 18  0 30.0000000  0  4G18G19G11G16
  20707264.688     -234410.403 7                        25.500
  20648916.531     -579405.599 6                        18.000
  24177813.461    -1150428.089 5                         9.750
  24196062.852     -625161.797 5                         7.750
 91  5 20 18  0 45.0000000  0  4G18G19G11G16
  20704666.664     -248060.500 7                        26.000
  20642131.359     -615052.853 6                        19.000
  24164271.867    -1221587.899 5                        10.250
  24182959.563     -694039.120 5                         8.500
 91  5 20 18  1  0.0000000  0  4G18G19G11G16
  20702091.727     -261592.978 7                        27.000
  20635362.750     -650633.812 6                        18.750
  24150747.234    -1292657.917 5                         9.750
  24169875.820     -762798.761 5                         8.750
 91  5 20 18  1 15.0000000  0  4G18G19G11G16
  20699540.031     -275005.999 7        -0.45532        27.500           1.875
  20628604.133     -686146.450 6        -0.02531        18.750           1.438
  24137242.422    -1363635.777 5                        10.000
  24156816.227     -831438.569 5        -0.30431         9.000           0.188
 91  5 20 18  1 30.0000000  0  4G18G19G11G16
  20697009.633     -288302.877 7    -10361.67822        26.750           2.031
  20621859.445     -721594.373 6    -27621.78022        18.000           1.531
  24123752.125    -1434524.561 5        -0.20931        10.500           0.375
  24143777.391     -899961.814 5    -53395.02521         9.250           0.188
 91  5 20 18  1 45.0000000  0  4G18G19G11G16
  20694502.172     -301479.888 7    -20629.50922        27.000           2.156
  20615125.211     -756973.584 6    -55189.99722        18.750           1.688
  24110281.961    -1505319.814 5    -55165.25921        10.750           0.375
  24130753.906     -968363.962 5   -106695.39121         8.500           0.219
 91  5 20 18  2  0.0000000  0  4G18G19G11G16
  20692016.203     -314539.787 7    -30806.07022        26.750           1.938
  20608403.813     -792286.818 7    -82706.79721        20.000           1.375
  24096825.297    -1576023.937 5   -110259.29621        11.000           0.313
  24117763.633    -1036647.965 5   -159903.68621         9.000           0.219
 91  5 20 18  2 15.0000000  0  4G18G19G11G16
  20689553.688     -327482.883 7    -40891.61422        26.750           2.375
  20601697.617     -827534.519 6   -110172.52822        18.750           1.656
  24083388.766    -1646636.831 5   -165282.24221        11.500           0.500
  24104792.945    -1104813.542 5   -213019.72821         9.000           0.250
 91  5 20 18  2 30.0000000  0  4G18G19G11G16
  20687111.469     -340311.122 7    -50887.66522        26.000           2.125
  20595002.125     -862718.768 6   -137588.82422        19.500           1.625
  24069970.281    -1717160.223 5   -220235.44321        11.750           0.500
  24091841.102    -1172862.489 5   -266044.86521         8.500           0.219
 91  5 20 18  2 45.0000000  0  4G18G19G11G16
  20684693.938     -353021.549 7    -60791.91422        26.750           2.250
  20588320.305     -897836.493 6   -164953.27722        19.000           1.656
  24056565.266    -1787590.621 5   -275116.18621        11.750           0.375
  24078913.719    -1240791.587 5   -318976.60021         8.000           0.250
 91  5 20 18  3  0.0000000  0  4G18G19G11G16
  20682298.195     -365614.285 7    -70604.45222        26.750           2.125
  20581649.563     -932887.742 6   -192265.93122        19.250           1.531
  24043180.664    -1857927.764 5   -329924.26721        11.750           0.344
  24066006.914    -1308600.388 5   -371814.61421         7.500           0.188
 91  5 20 18  3 15.0000000  0  4G18G19G11G16
  20679923.156     -378090.107 7    -80325.89522        26.250           2.000
  20574993.422     -967873.192 6   -219527.32121        19.250           1.438
  24029814.438    -1928171.684 5   -384659.70321        11.500           0.313
  24053126.344    -1376289.675 5   -424559.50021         7.500           0.188
 91  5 20 18  3 30.0000000  0  4G18G19G11G16
  20677573.063     -390446.844 7    -89954.55422        27.000           2.094
  20568347.789    -1002790.791 6   -246735.83422        19.500           1.500
  24016465.875    -1998319.792 5   -439320.49021        11.500           0.188
  24040270.914    -1443856.817 5   -477209.16221         7.500           0.250
 91  5 20 18  3 45.0000000  0  4G18G19G11G16
  20675242.773     -402687.785 7    -99492.96122        26.750           2.031
  20561715.594    -1037643.693 6   -273893.93621        19.000           1.469
  24003133.586    -2068374.969 5   -493908.87321        11.750           0.281
  24027434.531    -1511304.674 5   -529765.91321         7.750           0.250
 91  5 20 18  4  0.0000000  0  4G18G19G11G16
  20672935.406     -414811.382 7   -108939.93522        26.500           2.125
  20555097.813    -1072430.693 6   -301000.68522        18.750           1.594
  23989821.992    -2138335.541 6   -548423.49521        12.000           0.250
  24014624.773    -1578632.004 5   -582228.72421         8.000           0.219
 91  5 20 18  4 15.0000000  0  4G18G19G11G16
  20670651.820     -426815.374 7   -118293.72222        26.750           1.781
  20548489.906    -1107149.422 6   -328054.23521        19.000           1.344
  23976527.688    -2208198.787 6   -602862.30421        12.500           0.188
  24001835.930    -1645835.885 5   -634595.37021         8.000           0.188
 91  5 20 18  4 29.9990000  0  4G18G19G11G16
  20668388.753     -438709.533 7   -127561.92022        26.750           1.656
  20541893.042    -1141807.715 6   -355060.69721        18.750           1.375
  23963251.159    -2277969.734 6   -657229.21221        12.750           0.188
  23989068.019    -1712921.841 5   -686870.14021         7.750           0.031
 91  5 20 18  4 44.9990000  0  4G18G19G11G16
  20666145.862     -450491.607 7   -136742.78722        26.750           1.625
  20535309.847    -1176406.428 6   -382020.73221        18.500           1.188
  23949989.339    -2347653.436 6   -711528.12121        13.250           0.281
  23976322.784    -1779894.715 5   -739056.77821         7.500           0.156
 91  5 20 18  4 59.9990000  0  4G18G19G11G16
  20663924.792     -462163.018 7   -145837.40522        27.000           2.000
  20528736.690    -1210945.923 6   -408934.61622        18.750           1.531
  23936745.948    -2417247.373 6   -765757.07421        13.250           0.188
  23963602.144    -1846752.253 5   -791153.51821         7.500           0.219
 91  5 20 18  5 14.9990000  0  4G18G19G11G16
  20661726.886     -473719.969 7   -154842.85322        27.750           1.938
  20522177.245    -1245422.181 6   -435799.24222        18.500           1.500
  23923519.698    -2486747.262 6   -819912.77021        13.000           0.438
  23950900.386    -1913490.269 4   -843157.16121         7.250           0.219
 91  5 20 18  5 29.9990000  0  4G18G19G11G16
  20659548.589     -485165.168 7   -163761.19722        27.500           1.906
  20515625.995    -1279837.851 6   -462616.64322        18.500           1.531
  23910311.690    -2556155.339 6   -873996.90021        12.750           0.531
  23938223.948    -1980111.045 5   -895069.43021         7.500           0.219
 91  5 20 18  5 44.9990000  0  4G18G19G11G16
  20657390.761     -496499.746 7   -172593.35422        26.250           2.188
  20509089.519    -1314194.097 6   -489387.74322        18.500           1.625
  23897122.456    -2625472.218 6   -928009.97421        13.000           0.438
  23925565.987    -2046615.345 5   -946890.92821         7.500           0.250
 91  5 20 18  5 59.9990000  0  4G18G19G11G16
  20655254.800     -507727.191 7   -181342.03922        27.000           2.125
  20502563.690    -1348494.204 6   -516115.09522        18.750           1.531
  23883947.558    -2694700.837 6   -981954.27421        12.500           0.406
  23912937.909    -2113006.334 5   -998624.12521         7.750           0.281
 91  5 20 18  6 14.9990000  0  4G18G19G11G16
  20653140.292     -518841.446 7   -190002.51722        27.250           1.969
  20496047.808    -1382732.175 6   -542794.03321        18.750           1.438
  23870792.003    -2763834.818 6  -1035824.82721        12.250           0.281
  23900319.831    -2179277.735 5  -1050264.18621         7.750           0.188
 91  5 20 18  6 29.9990000  0  4G18G19G11G16
  20651045.823     -529841.770 7   -198574.20822        26.250           2.063
  20489542.284    -1416907.021 6   -569423.78521        19.250           1.375
  23857655.386    -2832872.905 6  -1089620.65121        12.750           0.281
  23887739.292    -2245428.861 5  -1101810.45921         8.250           0.219
 91  5 20 18  6 44.9990000  0  4G18G19G11G16
  20648973.222     -540733.498 7   -207061.28922        26.250           2.281
  20483052.651    -1451024.488 6   -596008.82222        18.750           1.625
  23844535.480    -2901820.114 6  -1143345.68921        13.000           0.500
  23875169.409    -2311464.748 5  -1153266.96921         8.250           0.313
 91  5 20 18  6 59.9990000  0  4G18G19G11G16
  20646920.948     -551516.669 7   -215463.78222        26.000           2.094
  20476569.737    -1485084.431 6   -622549.03521        19.000           1.438
  23831430.355    -2970675.949 6  -1196999.50521        13.000           0.313
  23862628.573    -2377384.689 5  -1204633.14921         8.750           0.281
 91  5 20 18  7 14.9990000  0  4G18G19G11G16
  20644891.401     -562189.135 7   -223780.00922        26.500           2.375
  20470100.784    -1519084.696 6   -649042.74422        18.250           1.500
  23818347.862    -3039437.947 6  -1250580.19521        13.250           0.375
  23850107.480    -2443186.255 5  -1255907.06621         8.750           0.344
 91  5 20 18  7 29.9990000  0  4G18G19G11G16
  20642881.550     -572754.061 7   -232012.43622        25.750           2.219
  20463640.144    -1553028.111 6   -675492.15822        18.250           1.500
  23805279.980    -3108108.497 6  -1304089.64121        13.000           0.406
  23837605.714    -2508872.478 5  -1307091.10821         8.250           0.344
 91  5 20 18  7 44.9990000  0  4G18G19G11G16
  20640890.870     -583209.541 7   -240159.59222        26.250           2.281
  20457192.612    -1586912.951 6   -701895.93221        18.500           1.469
  23792226.769    -3176685.442 6  -1357526.13621        12.250           0.375
  23825130.987    -2574441.186 5  -1358183.58721         8.500           0.281
 91  5 20 18  7 59.9990000  0  4G18G19G11G16
  20638923.261     -593553.950 7   -248220.19222        27.000           2.125
  20450756.839    -1620737.715 6   -728252.89322        18.250           1.500
  23779196.362    -3245166.901 6  -1410888.22621        12.000           0.469
  23812677.276    -2639890.614 5  -1409183.11921         8.250           0.219
 91  5 20 18  8 14.9990000  0  4G18G19G11G16
  20636974.675     -603790.476 7   -256196.73022        26.500           2.188
  20444330.980    -1654505.586 6   -754565.51921        18.500           1.375
  23766183.034    -3313555.588 6  -1464178.01521        12.000           0.375
  23800243.167    -2705223.460 5  -1460091.81721         8.250           0.313
 91  5 20 18  8 29.9990000  0  4G18G19G11G16
  20635046.722     -613920.207 7   -264090.05222        25.750           2.219
  20437914.425    -1688217.601 6   -780834.62322        18.750           1.500
  23753185.198    -3381851.960 5  -1517395.88321        11.750           0.469
  23787834.542    -2770440.487 5  -1510910.27621         8.250           0.281
 91  5 20 18  8 44.9990000  0  4G18G19G11G16
  20633140.065     -623943.201 7   -271900.20822        26.500           2.219
  20431510.855    -1721873.665 6   -807060.12821        18.500           1.344
  23740207.714    -3450055.546 6  -1570541.43721        12.000           0.344
  23775444.495    -2835541.290 5  -1561638.17221         8.250           0.188
 91  5 20 18  8 59.9990000  0  4G18G19G11G16
  20631253.776     -633856.857 7   -279625.16222        27.000           2.031
  20425115.948    -1755471.043 6   -833239.90621        18.500           1.406
  23727245.870    -3518163.387 6  -1623612.40521        12.500           0.406
  23763077.386    -2900523.108 5  -1612273.32821         7.750           0.188
 91  5 20 18  9 14.9990000  0  4G18G19G11G16
  20629388.550     -643659.864 7   -287263.88522        26.500           2.219
  20418734.878    -1789008.675 6   -859373.13222        18.000           1.500
  23714304.956    -3586173.939 6  -1676607.56621        12.500           0.344
  23750731.214    -2965384.507 5  -1662814.65821         7.500           0.313
 91  5 20 18  9 29.9990000  0  4G18G19G11G16
  20627542.581     -653350.125 7   -294814.76822        25.250           1.938
  20412364.355    -1822484.460 6   -885458.15821        19.000           1.406
  23701382.472    -3654084.656 6  -1729524.92721        12.250           0.375
  23738410.972    -3030123.190 5  -1713260.37921         7.500           0.313
 91  5 20 18  9 44.9990000  0  4G18G19G11G16
  20625720.370     -662936.606 7   -302284.78222        26.750           1.938
  20406005.386    -1855907.050 6   -911501.72822        18.250           1.500
  23688475.737    -3721903.867 5  -1782370.99021        11.500           0.375
  23726114.065    -3094747.355 5  -1763616.81021         7.750           0.219
 91  5 20 18  9 59.9990000  0  4G18G19G11G16
  20623914.909     -672420.006 7   -309674.45922        26.750           2.031
  20399654.292    -1889277.130 6   -937504.39122        19.000           1.500
  23675586.026    -3789631.837 5  -1835145.93521        11.250           0.281
  23713839.401    -3159257.672 5  -1813884.61021         8.250           0.281
 91  5 20 18 10 14.9990000  0  4G18G19G11G16
  20622129.948     -681799.449 7   -316983.13822        26.000           2.406
  20393314.823    -1922593.870 6   -963465.48722        18.750           1.688
  23662718.175    -3857267.191 5  -1887848.69921        11.750           0.375
  23701585.597    -3223652.914 5  -1864062.69521         8.750           0.344
 91  5 20 18 10 29.9990000  0  4G18G19G11G16
  20620366.261     -691068.466 7   -324205.78922        26.000           2.406
  20386987.675    -1955850.853 6   -989380.01822        18.500           1.656
  23649864.776    -3924803.158 5  -1940474.04321        11.500           0.469
  23689355.417    -3287926.396 5  -1914145.90921         9.000           0.281
 91  5 20 18 10 44.9990000  0  4G18G19G11G16
  20618623.081     -700228.678 7   -331343.64222        26.500           2.156
  20380668.792    -1989049.232 6  -1015248.89022        18.000           1.594
  23637030.675    -3992240.548 6  -1993022.58421        12.000           0.344
  23677150.683    -3352078.983 5  -1964134.92821         9.500           0.313
 91  5 20 18 10 59.9990000  0  4G18G19G11G16
  20616901.659     -709282.046 7   -338398.23322        26.500           2.219
  20374361.464    -2022191.202 6  -1041073.80522        19.000           1.656
  23624219.081    -4059581.120 6  -2045495.67321        12.500           0.500
  23664962.511    -3416112.961 5  -2014031.52521         9.500           0.313
 91  5 20 18 11 14.9990000  0  4G18G19G11G16
  20615197.831     -718227.277 7   -345368.57022        25.500           2.125
  20368068.073    -2055275.810 6  -1066854.01722        18.750           1.656
  23611423.222    -4126823.477 6  -2097892.22421        12.500           0.469
  23652803.862    -3480026.773 5  -2063834.47221        10.000           0.313
 91  5 20 18 11 29.9990000  0  4G18G19G11G16
  20613514.972     -727066.825 7   -352256.59221        23.250           0.031
  20361781.565    -2088304.852 6  -1092590.94521        17.250           0.031
  23598644.683    -4193969.106 5  -2150213.41221        11.250           0.031
  23640661.940    -3543822.248 5                         9.250
 91  5 20 18 11 44.9990000  0  4G18G19G11G16
  20611856.034     -735795.824 7   -359058.40022        26.500           2.438
  20355507.823    -2121273.777 6  -1118281.01122        18.250           1.781
  23585888.480    -4261012.895 5  -2202455.22121        11.750           0.438
  23628545.940    -3607494.369 5                         9.000
 91  5 20 18 11 59.9990000  0  4G18G19G11G16
  20610217.761     -744406.075 7   -365767.71422        26.500           2.188
  20349249.144    -2154174.281 6  -1143917.77222        18.750           1.656
  23573150.925    -4327945.992 5  -2254610.79721        11.500           0.563
  23616452.550    -3671034.308 5                         8.750
 91  5 20 18 12 14.9990000  0  4G18G19G11G16
  20608597.589     -752912.774 7   -372396.33622        25.250           2.031
  20342997.042    -2187021.494 6  -1169513.00722        18.500           1.563
  23560430.355    -4394783.323 5  -2306691.75921        11.250           0.500
  23604383.573    -3734457.185 5                         8.750
 91  5 20 18 12 29.9990000  0  4G18G19G11G16
  20607000.151     -761309.389 7   -378939.18822        25.000           2.000
  20336755.605    -2219808.914 6  -1195061.65222        19.250           1.563
  23547731.667    -4461517.992 5  -2358692.70521        11.250           0.438
  23592338.425    -3797756.151 5        -0.25731         8.500           0.188
 91  5 20 18 12 44.9990000  0  4G18G19G11G16
  20605424.362     -769592.576 7   -385393.64522        25.750           2.188
  20330530.269    -2252533.369 6  -1220561.22522        18.500           1.594
  23535053.534    -4528146.384 5  -2410610.85121        11.750           0.406
  23580318.706    -3860927.441 5    -49224.59521         9.500           0.188
 91  5 20 18 12 59.9990000  0  4G18G19G11G16
  20603870.370     -777759.639 7   -391757.61722        26.250           2.313
  20324315.511    -2285191.726 6  -1246009.29522        17.750           1.656
  23522393.972    -4594665.034 6  -2462443.47221        12.000           0.531
  23568323.745    -3923968.289 5    -98347.33721         9.750           0.281
 91  5 20 18 13 14.9990000  0  4G18G19G11G16
  20602335.487     -785822.137 7   -398040.11322        25.750           2.156
  20318111.386    -2317795.676 6  -1271414.97222        18.500           1.656
  23509755.269    -4661085.095 6  -2514199.27921        12.000           0.531
  23556350.026    -3986890.023 5   -147377.26321         9.750           0.250
 91  5 20 18 13 29.9990000  0  4G18G19G11G16
  20600823.698     -793770.441 7   -404233.62822        25.500           2.250
  20311920.230    -2350335.644 6  -1296770.78822        17.500           1.750
  23497135.776    -4727396.743 5  -2565870.60421        11.750           0.531
  23544401.612    -4049682.967 5   -196306.81621        10.000           0.219
 91  5 20 18 13 44.9990000  0  4G18G19G11G16
  20599332.620     -801603.752 7   -410337.53122        26.000           2.281
  20305739.167    -2382810.434 6  -1322075.82122        17.750           1.781
  23484539.456    -4793598.596 6  -2617456.38021        12.250           0.594
  23532475.605    -4112345.456 5   -245134.71921         9.750           0.375
 91  5 20 18 13 59.9990000  0  4G18G19G11G16
  20597863.269     -809322.960 7   -416352.52022        25.750           2.250
  20299573.042    -2415220.942 6  -1347330.76622        17.500           1.656
  23471962.128    -4859691.079 6  -2668956.93721        12.500           0.438
  23520578.269    -4174878.167 5   -293861.48721         9.750           0.375
 91  5 20 18 14 14.9990000  0  4G18G19G11G16
  20596412.042     -816949.442 7   -422295.26422        25.500           1.969
  20293411.526    -2447588.441 6  -1372552.18622        18.000           1.531
  23459401.737    -4925694.781 6  -2720388.31121        12.750           0.531
  23508696.065    -4237302.086 5   -342503.50221         9.750           0.219
 91  5 20 18 14 29.9990000  0  4G18G19G11G16
  20594980.237     -824471.889 7   -428156.94122        25.500           2.250
  20287260.589    -2479901.852 6  -1397731.46422        18.500           1.625
  23446860.644    -4991598.371 6  -2771741.67121        13.000           0.500
  23496839.355    -4299606.157 5   -391052.10421         9.750           0.344
 91  5 20 18 14 44.9990000  0  4G18G19G11G16
  20593569.081     -831891.158 7   -433938.21622        25.750           2.031
  20281124.659    -2512161.760 6  -1422869.05822        18.000           1.594
  23434337.730    -5057402.034 6  -2823017.16421        13.000           0.438
  23485005.105    -4361790.548 5   -439507.46821         9.250           0.219
 91  5 20 18 14 59.9990000  0  4G18G19G11G16
  20592176.909     -839206.908 7   -439638.83222        25.750           2.031
  20274993.776    -2544367.670 6  -1447964.57421        18.750           1.469
  23421835.448    -5123104.902 6  -2874214.15521        13.000           0.375
  23473197.675    -4423854.523 5   -487868.99421         9.500           0.250
 91  5 20 18 15 14.9990000  0  4G18G19G11G16
  20590806.792     -846407.922 7   -445250.04722        25.750           2.156
  20268879.105    -2576508.592 6  -1473009.45021        18.000           1.438
  23409354.355    -5188695.451 6  -2925323.60021        13.250           0.375
  23461407.370    -4485786.575 5   -536127.73621         9.250           0.313
 91  5 20 18 15 29.9990000  0  4G18G19G11G16
  20589456.659     -853501.655 7   -450777.65722        25.250           2.094
  20262773.183    -2608591.871 6  -1498009.40622        18.500           1.531
  23396891.878    -5254180.763 6  -2976351.03321        13.000           0.344
  23449650.253    -4547594.071 5   -584289.39821         9.750           0.219
 91  5 20 18 15 44.9980000  0  4G18G19G11G16
  20588127.248     -860488.931 7   -456222.32722        25.750           2.094
  20256679.639    -2640616.521 6  -1522963.68622        18.000           1.656
  23384452.803    -5319557.231 6  -3027293.66121        13.250           0.406
  23437913.764    -4609273.673 5   -632351.40921         9.750           0.219
 91  5 20 18 15 59.9980000  0  4G18G19G11G16
  20586818.193     -867371.395 7   -461585.31022        26.750           2.000
  20250595.193    -2672587.636 6  -1547876.23522        18.500           1.531
  23372031.162    -5384833.941 6  -3078158.57221        13.000           0.344
  23426198.162    -4670834.189 5   -680320.64521         9.500           0.250
 91  5 20 18 16 14.9980000  0  4G18G19G11G16
  20585527.873     -874147.950 7   -466865.77222        26.000           1.844
  20244523.576    -2704502.186 6  -1572744.71121        18.250           1.469
  23359628.568    -5450005.423 6  -3128941.46821        13.250           0.313
  23414508.084    -4732270.579 5   -728193.16921         9.750           0.156
 91  5 20 18 16 29.9980000  0  4G18G19G11G16
  20584257.490     -880821.400 7   -472065.89422        25.250           1.969
  20238461.287    -2736362.851 6  -1597571.19522        18.000           1.500
  23347246.865    -5515073.757 6  -3179643.99121        13.500           0.406
  23402841.811    -4793585.187 5   -775970.77221         9.750           0.281
 91  5 20 18 16 44.9980000  0  4G18G19G11G16
  20583008.264     -887390.085 7   -477184.38522        25.750           1.906
  20232407.975    -2768168.081 6  -1622354.48722        18.500           1.500
  23334884.334    -5580037.064 6  -3230264.70221        13.250           0.313
  23391198.459    -4854776.161 5   -823652.03621         9.750           0.250
 91  5 20 18 16 59.9980000  0  4G18G19G11G16
  20581779.076     -893851.563 7   -482219.33422        26.500           2.156
  20226365.826    -2799915.471 6  -1647092.70922        18.750           1.750
  23322543.053    -5644892.605 6  -3280801.38421        13.000           0.313
  23379576.006    -4915841.072 5   -871235.06121         9.750           0.281
 91  5 20 18 17 14.9980000  0  4G18G19G11G16
  20580569.740     -900207.572 7   -487172.10022        26.750           1.969
  20220337.029    -2831606.196 6  -1671786.77722        18.500           1.688
  23310219.318    -5709641.249 6  -3331254.79721        13.000           0.219
  23367978.553    -4976781.245 5   -918720.89421         9.250           0.250
 91  5 20 18 17 29.9980000  0  5G18G19G11G16G 6
  20579380.553     -906456.310 7   -492041.27122        26.000           2.188
  20214316.678    -2863238.659 6  -1696435.44322        18.500           1.688
  23297921.107    -5774281.077 6  -3381623.45421        13.500           0.406
  23356406.303    -5037594.619 5   -966107.93221         9.250           0.281
  24009339.967      -71500.192 3                         6.000
 91  5 20 18 17 44.9980000  0  5G18G19G11G16G 6
  20578211.147     -912598.773 7   -496827.63822        26.000           2.188
  20208308.225    -2894813.725 6  -1721039.39222        18.500           1.656
  23285640.779    -5838812.406 6  -3431907.54521        13.500           0.375
  23344855.240    -5098281.243 5  -1013396.19721         9.500           0.281
  23995739.092     -142971.992 4                         6.500
 91  5 20 18 17 59.9980000  0  5G18G19G11G16G 6
  20577063.404     -918637.129 7   -501532.88022        26.000           1.594
  20202310.147    -2926333.848 6  -1745600.52621        18.500           1.344
  23273380.240    -5903237.188 6  -3482108.60021        13.250           0.438
  23333331.490    -5158843.262 5  -1060587.33721         9.750           0.281
  23982145.928     -214418.236 4                         6.750
 91  5 20 18 18 14.9980000  0  5G18G19G11G16G 6
  20575933.912     -924571.451 7   -506157.05922        26.500           1.969
  20196322.600    -2957798.960 6  -1770118.79822        18.250           1.594
  23261141.873    -5967555.193 6  -3532226.46721        13.500           0.469
  23321832.787    -5219280.878 5  -1107681.59121        10.000           0.219
  23968554.186     -285838.858 4                         6.750
 91  5 20 18 18 29.9980000  0  5G18G19G11G16G 6
  20574825.389     -930396.310 7   -510695.94022        26.250           2.000
  20190346.240    -2989203.241 6  -1794589.66422        18.000           1.656
  23248923.873    -6031760.137 6  -3582256.23721        13.250           0.469
  23310355.889    -5279588.113 5  -1154674.23421         9.750           0.250
  23954965.522     -357228.138 4                         6.250
 91  5 20 18 18 44.9980000  0  5G18G19G11G16G 6
  20573738.311     -936108.541 7   -515147.05522        26.000           2.156
  20184383.186    -3020543.681 6  -1819010.78522        18.250           1.719
  23236726.857    -6095848.681 6  -3632195.29021        13.500           0.375
  23298905.475    -5339761.642 5  -1201562.68921         9.500           0.250
  23941388.553     -428583.207 4        -0.43031         6.500           0.125
 91  5 20 18 18 59.9980000  0  5G18G19G11G16G 6
  20572670.029     -941716.934 7   -519517.26622        25.250           1.969
  20178427.693    -3051828.909 6  -1843388.88922        19.000           1.594
  23224554.264    -6159829.127 6  -3682050.11921        14.000           0.563
  23287478.693    -5399809.995 5  -1248353.58021         9.500           0.219
  23927813.076     -499912.723 4    -55581.77221         6.750           0.188
 91  5 20 18 19 14.9980000  0  5G18G19G11G16G 6
  20571622.451     -947223.870 7   -523808.42122        25.750           2.094
  20172485.037    -3083061.185 6  -1867725.72522        18.250           1.625
  23212398.928    -6223703.291 6  -3731822.11621        13.750           0.406
  23276076.482    -5459734.906 5  -1295048.33421         9.500           0.219
  23914243.045     -571218.753 4   -111144.89321         6.750           0.094
 91  5 20 18 19 29.9980000  0  5G18G19G11G16G 6
  20570594.709     -952626.398 7   -528018.21922        26.000           1.563
  20166550.693    -3114237.640 6  -1892019.07421        18.000           1.188
  23200264.451    -6287467.696 6  -3781508.60221        13.250           0.313
  23264698.803    -5519533.440 5  -1341644.57321         9.500           0.219
  23900681.818     -642498.350 4   -166687.32221         6.750           0.094
 91  5 20 18 19 44.9980000  0  5G18G19G11G16G 6
  20569586.397     -957925.158 7   -532147.14622        25.250           1.750
  20160630.951    -3145358.713 6  -1916269.25521        18.250           1.375
  23188151.732    -6351122.679 6  -3831109.81821        13.500           0.438
  23253343.053    -5579205.704 5  -1388142.41621        10.250           0.281
  23887121.256     -713752.147 4   -222209.64821         6.500           0.188
 91  5 20 18 19 59.9980000  0  5G18G19G11G16G 6
  20568597.381     -963120.970 7   -536195.87322        25.250           1.688
  20154717.482    -3176425.057 6  -1940476.80521        18.250           1.219
  23176057.131    -6414668.628 6  -3880626.08121        12.750           0.375
  23242010.443    -5638752.597 5  -1434542.59921         9.750           0.281
  23873567.693     -784980.845 4                         6.750
 91  5 20 18 20 14.9980000  0  5G18G19G11G16G 6
  20567628.693     -968211.255 7   -540162.36422        25.250           1.750
  20148819.154    -3207434.127 6  -1964639.71321        18.250           1.313
  23163986.357    -6478102.571 6  -3930055.04121        13.250           0.406
  23230701.928    -5698171.132 5  -1480842.75021        10.000           0.438
  23860018.490     -856181.995 4                         6.500
 91  5 20 18 20 29.9980000  0  5G18G19G11G16G 6
  20566680.443     -973197.327 7   -544047.64722        25.250           1.750
  20142928.678    -3238387.206 6  -1988758.99221        18.250           1.438
  23151937.076    -6541425.197 6  -3979397.27921        13.250           0.531
  23219423.732    -5757462.215 5  -1527043.58721        10.250           0.313
  23846476.365     -927356.619 4                         6.250
 91  5 20 18 20 44.9980000  0  5G18G19G11G16G 6
  20565750.756     -978082.135 7   -547854.02622        25.250           2.031
  20137048.029    -3269287.147 6  -2012836.87222        18.250           1.500
  23139909.678    -6604639.132 6  -4028654.82321        14.000           0.531
  23208161.522    -5816628.531 5  -1573147.20221        10.000           0.344
  23832932.209     -998507.616 3        -0.15831         6.000           0.219
 91  5 20 18 20 59.9980000  0  5G18G19G11G16G 6
  20564841.561     -982858.715 7   -551576.07822        24.750           1.750
  20131177.834    -3300126.767 6  -2036867.75021        18.750           1.313
  23127902.186    -6667736.868 6  -4077821.82621        14.000           0.438
  23196927.326    -5875662.711 5  -1619147.85221        10.000           0.281
  23819401.756    -1069627.891 4    -55418.47521         6.750           0.188
 91  5 20 18 21 14.9980000  0  5G18G19G11G16G 6
  20563952.842     -987526.701 7   -555213.50022        25.000           1.969
  20125323.584    -3330905.654 6  -2060851.29221        18.750           1.438
  23115915.717    -6730717.601 6  -4126897.65121        14.000           0.469
  23185719.818    -5934564.344 5  -1665045.24621        10.250           0.281
  23805874.709    -1140717.003 4   -110812.47721         7.000           0.156
 91  5 20 18 21 29.9980000  0  5G18G19G11G16G 6
  20563084.920     -992089.403 7   -558768.89122        24.750           2.156
  20119475.162    -3361627.232 6  -2084790.19021        19.000           1.469
  23103953.897    -6793584.230 6  -4175884.58121        14.250           0.438
  23174534.897    -5993336.301 5  -1710841.58121        10.250           0.375
  23792350.803    -1211778.199 4   -166184.74421         7.250           0.156
 91  5 20 18 21 44.9980000  0  5G18G19G11G16G 6
  20562236.967     -996549.173 7   -562244.07222        25.250           1.781
  20113641.201    -3392293.560 6  -2108686.02521        18.250           1.219
  23092011.428    -6856338.531 6  -4224783.95421        14.000           0.375
  23163374.639    -6051980.512 5  -1756538.37921        10.000           0.313
  23778837.350    -1282813.737 4   -221537.01721         7.000           0.156
 91  5 20 18 21 59.9980000  0  5G18G19G11G16G 6
  20561410.100    -1000897.743 7   -565632.60222        26.000           2.125
  20107816.725    -3422896.673 6  -2132532.61721        18.750           1.406
  23080091.756    -6918972.127 6  -4273589.29621        14.250           0.406
  23152239.365    -6110488.620 5  -1802129.09121         9.750           0.438
  23765323.678    -1353815.449 4   -276862.90921         6.750           0.156
 91  5 20 18 22 14.9980000  0  5G18G19G11G16G 6
  20560601.389    -1005146.274 7   -568943.17322        25.500           1.875
  20102003.678    -3453447.246 6  -2156338.26321        18.500           1.469
  23068194.498    -6981495.342 6  -4322308.61821        14.750           0.469
  23141131.029    -6168871.313 5  -1847622.12821        10.250           0.406
  23751815.654    -1424793.982 4   -332170.78321         6.750           0.156
 91  5 20 18 22 29.9980000  0  5G18G19G11G16G 6
  20559811.818    -1009288.642 7   -572171.02522        24.750           2.313
  20096200.209    -3483939.098 6  -2180098.14522        18.500           1.625
  23056319.678    -7043901.727 6  -4370936.89421        14.500           0.563
  23130046.389    -6227122.143 5  -1893012.36621        10.500           0.375
  23738311.787    -1495743.421 4   -387455.94421         6.750           0.281
 91  5 20 18 22 44.9980000  0  5G18G19G11G16G 6
  20559043.857    -1013322.635 7   -575314.43922        24.750           2.156
  20090411.107    -3514369.610 6  -2203810.23722        18.250           1.563
  23044466.139    -7106188.521 6  -4419472.00621        14.000           0.469
  23118991.725    -6285238.857 5  -1938298.10621        10.750           0.375
  23724816.436    -1566661.296 4   -442716.51821         6.500           0.250
 91  5 20 18 22 59.9980000  0  5G18G19G11G16G 6
  20558296.943    -1017251.785 7   -578376.15022        24.750           1.875
  20084631.975    -3544742.523 6  -2227477.44921        18.250           1.344
  23032635.272    -7168359.097 6  -4467916.52821        14.000           0.438
  23107956.147    -6343224.882 5  -1983482.04321        10.500           0.250
  23711326.701    -1637551.371 4   -497955.46121         6.750           0.219
 91  5 20 18 23 14.9980000  0  5G18G19G11G16G 6
  20557570.865    -1021071.035 7   -581352.23522        25.000           1.813
  20078863.076    -3575052.824 6  -2251095.86821        17.750           1.344
  23020828.482    -7230407.902 6  -4516266.19121        14.250           0.469
  23096942.725    -6401074.731 5  -2028559.84421        10.000           0.344
  23697843.404    -1708408.431 4   -553168.63421         6.750           0.125
 91  5 20 18 23 29.9980000  0  5G18G19G11G16G 6
  20556864.092    -1024783.752 7   -584245.29122        24.750           2.000
  20073105.061    -3605303.756 6  -2274668.02721        19.000           1.406
  23009043.756    -7292337.880 6  -4564523.24021        14.250           0.563
  23085961.889    -6458791.176 5  -2073533.69021        10.250           0.406
  23684367.428    -1779235.761 4   -608358.67821         7.250           0.125
 91  5 20 18 23 44.9980000  0  5G18G19G11G16G 6
  20556176.943    -1028393.920 7   -587058.44922        24.750           2.063
  20067360.772    -3635498.962 6  -2298196.76621        18.000           1.469
  22997279.881    -7354152.229 6  -4612690.20121        14.000           0.563
  23075007.912    -6516377.934 5  -2118406.46721        10.750           0.313
  23670894.623    -1850036.918 5   -663528.30621         7.500           0.219
 91  5 20 18 23 59.9980000  0  5G18G19G11G16G 6
  20555509.811    -1031899.160 7   -589789.84722        24.750           2.375
  20061626.022    -3665636.022 6  -2321680.18922        18.000           1.719
  22985539.795    -7415848.315 6  -4660764.98821        13.750           0.688
  23064072.990    -6573832.554 5  -2163176.30021        10.750           0.375
  23657427.209    -1920809.740 4   -718675.89621         7.250           0.188
 91  5 20 18 24 14.9980000  0  5G18G19G11G16G 6
  20554862.779    -1035304.223 7   -592443.17622        25.250           2.313
  20055901.209    -3695719.755 6  -2345122.06422        18.250           1.625
  22973820.662    -7477430.622 6  -4708751.13421        13.750           0.656
  23053163.389    -6631159.966 5  -2207847.01221        10.750           0.500
  23643961.662    -1991558.995 4   -773805.06821         7.000           0.156
 91  5 20 18 24 29.9980000  0  5G18G19G11G16G 6
  20554234.553    -1038604.101 7   -595014.55622        25.250           2.250
  20050187.928    -3725745.050 6  -2368518.40122        18.000           1.719
  22962125.350    -7538893.558 6  -4756644.26621        13.250           0.688
  23042277.928    -6688354.282 5  -2252414.00221        10.500           0.469
  23630505.139    -2062279.440 4   -828911.80721         6.750           0.188
 91  5 20 18 24 44.9980000  0  5G18G19G11G16G 6
  20553626.717    -1041799.589 7   -597504.59522        25.250           2.125
  20044484.654    -3755712.617 6  -2391869.74922        18.000           1.594
  22950451.576    -7600237.407 6  -4804444.59621        13.000           0.625
  23031419.756    -6745415.772 5  -2296877.50221        10.500           0.406
  23617052.576    -2132971.704 4   -883996.61421         6.750           0.219
 91  5 20 18 24 59.9980000  0  5G18G19G11G16G 6
  20553038.920    -1044885.118 7   -599908.94722        25.000           1.938
  20038791.990    -3785616.728 6  -2415171.65821        19.000           1.406
  22938801.154    -7661456.083 6  -4852147.38921        13.250           0.531
  23020587.576    -6802338.820 5  -2341233.11521        10.500           0.313
  23603604.092    -2203630.154 4   -939055.05321         7.000           0.250
 91  5 20 18 25 14.9980000  0  5G18G19G11G16G 6
  20552471.639    -1047864.227 7   -602230.40922        24.750           1.969
  20033115.154    -3815460.845 6  -2438426.84321        18.250           1.438
  22927175.053    -7722552.831 6  -4899755.18421        13.000           0.563
  23009781.482    -6859126.893 5  -2385483.60321        10.750           0.250
  23590166.459    -2274258.298 4   -994089.91021         7.000           0.125
 91  5 20 18 25 29.9980000  0  5G18G19G11G16G 6
  20551923.709    -1050742.996 7   -604473.61822        24.750           2.094
  20027446.873    -3845250.897 6  -2461639.84922        17.750           1.500
  22915571.154    -7783533.218 6  -4947272.28321        13.250           0.625
  22998996.553    -6915785.912 5  -2429633.43121        11.000           0.344
  23576728.857    -2344862.069 4  -1049105.73521         6.750           0.156
 91  5 20 18 25 44.9980000  0  5G18G19G11G16G 6
  20551396.404    -1053513.716 7                        23.000
  20021788.475    -3874979.271 6                        17.250
  22903990.709    -7844389.260 6                        13.250
  22988241.943    -6972307.660 5                        10.500
  23563301.451    -2415433.805 4                         6.250
 91  5 20 18 25 59.9980000  0  5G18G19G11G16G 6
  20550888.123    -1056181.882 7                        24.000
  20016144.490    -3904650.948 6                        17.500
  22892432.732    -7905125.759 6                        14.000
  22977511.826    -7028697.175 5                        10.750
  23549876.006    -2485978.651 4                         6.500
 91  5 20 18 26 14.9980000  0  5G18G19G11G16G 6
  20550401.998    -1058747.622 7                        24.750
  20010507.295    -3934266.180 6                        18.250
  22880896.232    -7965742.571 6                        14.500
  22966810.279    -7084954.503 5                        11.500
  23536457.686    -2556496.871 4                         6.250
 91  5 20 18 26 29.9980000  0  5G18G19G11G16G 6
  20549931.998    -1061214.487 7                        23.500
  20004883.951    -3963828.477 6                        17.250
  22869384.787    -8026242.765 6                        14.500
  22956127.811    -7141082.909 5                        11.000
  23523040.701    -2626991.880 3                         6.000
 91  5 20 18 26 44.9980000  0  5G18G19G11G16G 6
  20549482.467    -1063577.524 7        -0.28232        24.500           2.125
  19999267.857    -3993332.559 6        -0.16332        18.000           1.500
  22857895.592    -8086620.733 6        -0.08131        14.750           0.531
  22945471.061    -7197076.878 5        -0.17931        11.250           0.313
  23509633.865    -2697458.422 4        -0.14231         6.500           0.094
 91  5 20 18 26 59.9970000  0  5G18G19G11G16G 6
  20549053.728    -1065835.503 7     -1759.79922        25.500           2.219
  19993661.431    -4022775.340 6    -22942.59021        18.750           1.469
  22846430.321    -8146871.115 6    -46948.36621        14.250           0.625
  22934843.251    -7252931.510 5    -43523.27221        11.250           0.313
  23496231.767    -2767890.787 4    -54882.41421         6.500           0.188
 91  5 20 18 27 14.9970000  0  5G18G19G11G16G 6
  20548643.853    -1067988.640 7     -3437.61222        25.500           1.906
  19988073.243    -4052160.562 6    -45840.16921        18.000           1.406
  22834985.899    -8207001.462 6    -93803.11921        13.750           0.406
  22924240.321    -7308654.119 5    -86943.47821        11.250           0.313
  23482833.681    -2838298.034 4   -109745.09221         6.750           0.188
 91  5 20 18 27 29.9970000  0  5G18G19G11G16G 6
  20548253.110    -1070032.849 7     -5030.54822        25.000           2.188
  19982490.970    -4081482.341 6    -68688.30422        18.750           1.625
  22823569.790    -8267003.395 6   -140557.81121        13.750           0.531
  22913660.837    -7364236.652 5   -130254.54621        11.000           0.375
  23469444.915    -2908671.733 4   -164581.64021         7.000           0.250
 91  5 20 18 27 44.9970000  0  5G18G19G11G16G 6
  20547887.470    -1071960.283 7     -6532.49222        25.250           2.250
  19976926.845    -4110732.875 6    -91480.93522        18.000           1.625
  22812177.173    -8326868.656 6   -187206.01721        13.750           0.531
  22903114.501    -7419671.097 5   -173450.21021        11.250           0.406
  23456059.274    -2979003.915 4   -219385.84321         7.000           0.250
 91  5 20 18 27 59.9970000  0  5G18G19G11G16G 6
  20547545.399    -1073754.292 7     -7930.47122        25.250           2.344
  19971376.306    -4139895.045 6   -114204.70422        18.500           1.594
  22800813.563    -8386580.041 6   -233734.31021        13.500           0.500
  22892598.056    -7474940.087 5   -216516.96521        11.250           0.313
  23442685.899    -3049277.575 4   -274144.45221         7.000           0.281
 91  5 20 18 28 14.9970000  0  5G18G19G11G16G 6
  20547223.610    -1075448.558 7     -9250.72722        25.500           1.969
  19965838.642    -4169002.430 6   -136885.79121        17.750           1.313
  22789474.196    -8446170.823 6   -280168.64521        13.500           0.531
  22882108.962    -7530077.387 5   -259481.08921        11.500           0.250
  23429318.243    -3119526.405 4   -328883.72221         7.000           0.094
 91  5 20 18 28 29.9970000  0  5G18G19G11G16G 6
  20546921.649    -1077035.654 7    -10487.47622        25.250           1.938
  19960309.688    -4198047.538 6   -159518.35421        18.250           1.438
  22778158.954    -8505633.045 6   -326502.77521        13.750           0.656
  22871637.884    -7585075.294 5   -302336.59821        11.250           0.313
  23415957.853    -3189742.729 4   -383597.59821         7.000           0.188
 91  5 20 18 28 44.9970000  0  5G18G19G11G16G 6
  20546641.946    -1078501.375 7    -11629.64022        25.000           1.875
  19954798.384    -4227016.172 6   -182091.31121        17.750           1.344
  22766872.149    -8564952.050 6   -372725.31921        14.250           0.406
  22861202.017    -7639919.044 5   -345071.98821        11.250           0.344
  23402601.313    -3259912.320 4   -438275.13521         6.750           0.125
 91  5 20 18 28 59.9970000  0  5G18G19G11G16G 6
  20546386.259    -1079852.505 7    -12682.51622        25.500           2.031
  19949299.571    -4255914.856 6   -204609.77621        17.500           1.469
  22755608.868    -8624134.050 6   -418841.12521        14.250           0.625
  22850793.470    -7694615.247 5   -387692.39921        11.250           0.250
  23389258.938    -3330041.733 4   -492921.32421         6.500           0.219
 91  5 20 18 29 14.9970000  0  5G18G19G11G16G 6
  20546148.142    -1081096.522 7    -13651.92822        25.250           2.094
  19943811.954    -4284751.136 6   -227079.60522        18.000           1.594
  22744371.657    -8683186.568 6   -464856.01921        14.250           0.750
  22840409.501    -7749171.503 5   -430203.79621        11.000           0.406
  23375917.204    -3400138.805 4   -547542.31021         6.750           0.125
 91  5 20 18 29 29.9970000  0  5G18G19G11G16G 6
  20545931.274    -1082234.095 7    -14538.38722        25.000           1.938
  19938335.032    -4313525.625 6   -249501.29621        18.250           1.438
  22733159.790    -8742109.717 6   -510770.10721        14.000           0.688
  22830056.774    -7803587.755 5   -472606.07521        10.500           0.313
  23362584.118    -3470203.991 4   -602138.48321         6.500           0.219
 91  5 20 18 29 44.9970000  0  5G18G19G11G16G 6
  20545735.626    -1083270.034 7    -15345.66522        24.750           1.750
  19932872.071    -4342242.833 6   -271878.35121        17.750           1.375
  22721970.079    -8800907.810 6   -556586.75021        14.000           0.563
  22819725.681    -7857868.729 5   -514902.93421        10.750           0.250
  23349254.415    -3540241.798 4   -656713.30121         6.250           0.219
 91  5 20 18 29 59.9970000  0  5G18G19G11G16G 6
  20545558.478    -1084200.709 7    -16070.91522        25.250           2.000
  19927417.267    -4370898.718 6   -294207.61322        18.000           1.531
  22710807.829    -8859576.571 6   -602302.59921        14.500           0.656
  22809425.790    -7912010.602 5   -557091.41321        11.000           0.375
  23335933.392    -3610248.412 4   -711263.79021         6.750           0.219
 91  5 20 18 30 14.9970000  0  5G18G19G11G16G 6
  20545401.634    -1085029.198 7    -16716.53622        25.250           2.125
  19921977.040    -4399496.722 6   -316491.77822        18.000           1.531
  22699666.353    -8918118.744 6   -647919.82121        14.250           0.719
  22799146.548    -7966015.826 5   -599173.38821        10.750           0.313
  23322615.751    -3680227.027 4   -765792.50221         6.750           0.125
 91  5 20 18 30 29.9970000  0  5G18G19G11G16G 6
  20545262.423    -1085753.161 7    -17280.71122        25.250           2.188
  19916545.095    -4428034.427 6   -338728.95622        18.250           1.531
  22688549.337    -8976531.552 6   -693436.24221        14.000           0.750
  22788896.392    -8019882.245 5   -641147.22521        10.500           0.344
  23309307.392    -3750175.092 4   -820297.37721         6.750           0.219
 91  5 20 18 30 44.9970000  0  5G18G19G11G16G 6
  20545147.626    -1086364.476 7    -17757.10722        25.500           2.125
  19911129.173    -4456503.504 6   -360912.65522        17.750           1.531
  22677460.532    -9034806.545 6   -738845.27421        14.750           0.656
  22778672.556    -8073601.548 5   -683006.42021         9.750           0.438
  23296002.376    -3820084.552 4   -874772.20521         6.500           0.313
 91  5 20 18 30 59.9970000  0  5G18G19G11G16G 6
  20545048.610    -1086870.942 7    -18151.80722        25.500           2.000
  19905723.845    -4484911.315 6   -383048.61721        18.000           1.469
  22666396.009    -9092950.731 6   -784152.38521        15.000           0.594
  22768475.392    -8127180.781 5   -724756.46721         9.750           0.406
  23282706.353    -3889962.735 4   -929222.65021         7.000           0.250
 91  5 20 18 31 14.9970000  0  5G18G19G11G16G 6
  20544972.696    -1087267.743 7    -18461.04222        25.250           2.156
  19900329.587    -4513252.818 6   -405132.90821        17.750           1.438
  22655356.478    -9150959.001 6   -829353.58621        15.500           0.594
  22758308.462    -8180614.946 5   -766393.47521        10.000           0.313
  23269417.876    -3959804.830 4   -983644.96121         7.000           0.281
 91  5 20 18 31 29.9970000  0  5G18G19G11G16G 6
  20544918.235    -1087565.817 7    -18693.35222        25.000           2.156
  19894944.946    -4541538.963 6   -427174.05921        18.500           1.469
  22644343.454    -9208841.882 6   -874457.08321        15.500           0.531
  22748168.524    -8233914.608 5   -807925.67121        10.500           0.344
  23256132.337    -4029621.574 4  -1038047.50521         7.250           0.219
 91  5 20 18 31 44.9970000  0  5G18G19G11G16G 6
  20544879.563    -1087768.234 7    -18851.12822        25.000           2.250
  19889574.532    -4569773.088 6   -449174.67622        17.750           1.500
  22633350.845    -9266602.339 6   -919465.18821        15.000           0.500
  22738048.407    -8287082.681 5   -849355.34521        10.500           0.438
  23242850.743    -4099416.271 4  -1092432.88521         7.250           0.438
 91  5 20 18 31 59.9970000  0  5G18G19G11G16G 6
  20544859.118    -1087880.409 7                        25.500
  19884208.626    -4597960.292 6   -471138.74222        18.000           1.563
  22622381.860    -9324245.127 6   -964381.59921        15.250           0.656
  22727957.876    -8340124.414 5   -890686.56821        11.000           0.313
  23229571.649    -4169194.086 4  -1146805.07821         7.250           0.281
 91  5 20 18 32 14.9970000  0  5G18G19G11G16G 6
  20544855.704    -1087901.174 7                        25.500
  19878856.251    -4626099.276 6   -493065.22822        18.250           1.531
  22611436.274    -9381768.691 6  -1009205.11021        15.250           0.500
  22717887.212    -8393038.540 5   -931918.39021        11.000           0.406
  23216295.884    -4238953.737 4  -1201163.19221         7.000           0.188
 91  5 20 18 32 29.9970000  0  5G18G19G11G16G 6
  20544867.899    -1087828.503 7                        25.000
  19873510.063    -4654187.645 6   -514952.27621        18.750           1.406
  22600512.298    -9439170.313 6  -1053933.60421        15.000           0.531
  22707843.524    -8445822.469 5   -973048.72421        11.250           0.375
  23203025.165    -4308692.966 4  -1255505.35321         6.750           0.281
 91  5 20 18 32 44.9970000  0  5G18G19G11G16G 6
  20544896.774    -1087667.036 7                        24.500
  19868175.063    -4682229.869 6   -536803.36921        18.250           1.313
  22589611.274    -9496454.329 6  -1098570.46121        15.000           0.469
  22697822.212    -8498480.717 5  -1014081.13221        11.000           0.250
  23189754.626    -4378416.204 4  -1309835.04221         6.500           0.250
 91  5 20 18 32 59.9970000  0  5G18G19G11G16G 6
  20544947.415    -1087410.036 7                        24.750
  19862848.517    -4710219.403 6   -558613.39222        18.250           1.656
  22578735.313    -9553613.723 6  -1143110.19421        15.500           0.531
  22687827.704    -8551006.330 5  -1055010.18521        10.750           0.438
  23176493.188    -4448116.959 4  -1364147.23521         7.000           0.188
 91  5 20 18 33 14.9970000  0  5G18G19G11G16G 6
  20545015.415    -1087050.792 7    -18292.36722        24.750           1.906
  19857533.118    -4738149.123 6   -580376.81522        18.250           1.531
  22567881.134    -9610641.229 6  -1187547.17121        15.000           0.563
  22677859.712    -8603392.086 5  -1095830.26221        10.750           0.438
  23163230.329    -4517788.057 4  -1418436.31821         6.750           0.250
 91  5 20 18 33 29.9970000  0  5G18G19G11G16G 6
  20545106.813    -1086586.401 7    -17930.54822        24.500           1.781
  19852228.931    -4766016.319 6   -602091.51722        18.750           1.531
  22557055.954    -9667533.543 6  -1231878.80021        14.750           0.563
  22667917.642    -8655634.861 5  -1136538.92621        10.750           0.344
  23149982.134    -4587426.777 4  -1472700.14721         7.000           0.188
 91  5 20 18 33 44.9970000  0  5G18G19G11G16G 6
  20545214.126    -1086017.191 7    -17487.04922        23.750           1.531
  19846939.704    -4793821.036 6   -623757.53122        18.000           1.625
  22546257.173    -9724290.560 6  -1276105.00121        15.250           0.625
  22658003.649    -8707735.047 5  -1177136.47921        11.250           0.313
  23136736.821    -4657033.131 5  -1526938.77621         7.500           0.156
 91  5 20 18 33 59.9970000  0  5G18G19G11G16G 6
  20545339.735    -1085343.061 7    -16961.79722        23.250           1.875
  19841659.579    -4821562.813 6   -645374.50321        19.000           1.469
  22535481.462    -9780911.621 6  -1320225.27321        15.750           0.500
  22648115.196    -8759692.017 5  -1217622.44821        11.250           0.344
  23123498.329    -4726606.909 5  -1581152.03421         7.500           0.156
 91  5 20 18 34 14.9970000  0  5G18G19G11G16G 6
  20545487.235    -1084570.025 7    -16359.47922        23.500           1.563
  19836392.853    -4849247.593 6   -666947.05721        18.250           1.281
  22524731.446    -9837402.340 6  -1364243.97521        15.500           0.469
  22638256.509    -8811511.489 5  -1258001.25021        11.750           0.375
  23110266.134    -4796154.018 5  -1635344.49521         8.250           0.219
 91  5 20 18 34 29.9970000  0  5G18G19G11G16G 6
  20545656.704    -1083694.004 7    -15676.91222        23.500           1.938
  19831133.657    -4876871.169 6   -688471.92821        18.500           1.438
  22514006.751    -9893758.260 6  -1408157.63421        15.250           0.750
  22628422.681    -8863189.247 6  -1298269.64821        12.250           0.406
  23097036.290    -4865670.202 5  -1689512.86321         8.250           0.281
 91  5 20 18 34 44.9970000  0  5G18G19G11G16G 6
  20545841.001    -1082721.888 7    -14919.46422        23.000           1.813
  19825889.228    -4904440.410 6   -709954.45221        18.250           1.344
  22503307.603    -9949985.780 6  -1451971.24321        15.000           0.594
  22618615.517    -8914731.732 6  -1338432.63121        12.500           0.469
  23083814.321    -4935162.364 5  -1743662.49921         8.250           0.250
 91  5 20 18 34 59.9970000  0  5G18G19G11G16G 6
  20546045.298    -1081641.944 7    -14077.99422        23.500           1.969
  19820654.517    -4931943.509 6   -731385.44321        19.000           1.469
  22492634.243   -10006072.950 6  -1495675.49521        15.500           0.625
  22608833.259    -8966127.235 6  -1378481.05921        12.000           0.438
  23070595.696    -5004618.694 5  -1797784.22421         8.250           0.281
 91  5 20 18 35 14.9970000  0  5G18G19G11G16G 6
  20546269.478    -1080467.209 7    -13162.68422        23.750           1.875
  19815432.556    -4959393.113 6   -752774.76022        18.250           1.563
  22481986.204   -10062032.166 6  -1539280.04921        14.750           0.688
  22599078.626    -9017388.135 5  -1418424.61821        11.750           0.594
  23057382.079    -5074051.937 5  -1851887.93921         7.750           0.156
 91  5 20 18 35 29.9970000  0  5G18G19G11G16G 6
  20546512.095    -1079192.959 7    -12169.80622        24.250           1.813
  19810219.470    -4986784.485 6   -774118.66721        18.250           1.406
  22471362.478   -10117858.291 6  -1582780.85221        14.750           0.594
  22589350.892    -9068509.690 6  -1458259.61021        12.000           0.469
  23044174.118    -5143457.279 5  -1905969.91621         8.000           0.219
 91  5 20 18 35 44.9970000  0  5G18G19G11G16G 6
  20546774.235    -1077819.435 7    -11099.55222        24.500           1.781
  19805018.399    -5014117.757 6   -795417.34221        17.750           1.375
  22460765.298   -10173551.179 6  -1626177.88621        15.000           0.438
  22579646.423    -9119491.962 6  -1497986.03721        12.000           0.344
  23030972.017    -5212834.751 4  -1960030.22721         7.250           0.188
 91  5 20 18 35 59.9970000  0  5G18G19G11G16G 6
  20547054.962    -1076340.531 7     -9947.21622        24.500           1.969
  19799827.056    -5041386.904 6   -816666.03822        19.000           1.563
  22450193.313   -10229104.463 6  -1669466.12721        15.000           0.656
  22569974.907    -9170328.675 6  -1537599.08521        12.000           0.375
  23017779.196    -5282178.423 5  -2014064.15621         7.750           0.250
 91  5 20 18 36 14.9970000  0  5G18G19G11G16G 6
  20547356.228    -1074757.131 7     -8713.44822        24.250           1.844
  19794652.517    -5068592.368 6   -837865.09721        18.250           1.438
  22439646.149   -10284518.471 6  -1712645.82721        14.500           0.594
  22560326.962    -9221020.234 6  -1577099.00621        12.000           0.406
  23004588.212    -5351488.979 5  -2068072.29521         8.250           0.281
 91  5 20 18 36 29.9970000  0  5G18G19G11G16G 6
  20547677.798    -1073066.154 7     -7395.86022        24.000           1.844
  19789489.079    -5095730.724 6   -859011.87321        18.750           1.250
  22429130.220   -10339789.300 6  -1755713.95721        14.000           0.531
  22550709.267    -9271563.183 5  -1616483.14121        11.750           0.375
  22991406.907    -5420762.761 5  -2122051.78021         8.250           0.250
 91  5 20 18 36 44.9970000  0  5G18G19G11G16G 6
  20548020.446    -1071272.599 7     -5998.33022        24.250           1.813
  19784334.696    -5122807.102 6   -880110.34421        18.000           1.313
  22418639.165   -10394921.820 6  -1798674.31921        14.000           0.563
  22541118.438    -9321962.179 6  -1655755.07421        12.000           0.344
  22978230.563    -5490004.969 5  -2176006.66121         8.250           0.313
 91  5 20 18 36 59.9970000  0  5G18G19G11G16G 6
  20548378.618    -1069383.259 7     -4526.16322        24.250           1.844
  19779195.423    -5149828.177 6   -901165.72621        18.500           1.375
  22408171.868   -10449922.717 6  -1841532.11521        14.000           0.656
  22531557.649    -9372224.484 6  -1694920.53221        12.250           0.375
  22965056.103    -5559222.530 5  -2229942.33421         8.250           0.125
 91  5 20 18 37 14.9970000  0  5G18G19G11G16G 6
  20548758.212    -1067390.690 7     -2973.56622        23.750           1.906
  19774064.009    -5176786.353 6   -922172.09521        18.500           1.375
  22397731.767   -10504783.935 6  -1884281.07021        14.000           0.563
  22522019.478    -9422342.059 5  -1733973.18421        11.750           0.281
  22951892.728    -5628407.678 5  -2283852.75321         8.250           0.281
 91  5 20 18 37 29.9970000  0  5G18G19G11G16G 6
  20549155.360    -1065303.166 7     -1346.97322        23.500           1.781
  19768941.673    -5203689.767 6   -943135.80121        19.500           1.438
  22387317.853   -10559513.302 6  -1926927.27521        14.250           0.656
  22512507.103    -9472322.691 5  -1772919.13821        11.250           0.344
  22938730.782    -5697568.519 5  -2337744.20521         8.250           0.281
 91  5 20 18 37 44.9970000  0  5G18G19G11G16G 6
  20549571.103    -1063117.149 7       356.36722        23.500           2.000
  19763836.103    -5230534.274 6   -964053.60122        18.250           1.750
  22376929.782   -10614106.472 6  -1969467.36521        15.000           0.656
  22503023.634    -9522162.478 5  -1811755.34521        11.000           0.469
  22925571.603    -5766700.995 5  -2391613.58821         7.750           0.344
 91  5 20 18 37 59.9970000  0  5G18G19G11G16G 6
  20550007.142    -1060830.001 7      2138.50522        23.500           1.563
  19758740.415    -5257317.567 6   -984923.70221        18.500           1.375
  22366566.821   -10668560.974 6  -2011899.42221        15.500           0.531
  22493564.720    -9571858.955 5  -1850479.88921        10.750           0.281
  22912423.438    -5835802.924 5  -2445459.15821         7.750           0.250
 91  5 20 18 38 14.9970000  0  5G18G19G11G16G 6
  20550461.798    -1058442.439 7      3998.90022        23.750           1.688
  19753654.173    -5284040.094 6  -1005746.44621        18.500           1.344
  22356229.798   -10722876.825 6  -2054223.42421        15.000           0.500
  22484136.907    -9621412.352 5  -1889092.92621        11.000           0.344
  22899277.603    -5904874.712 5  -2499281.23821         7.750           0.281
 91  5 20 18 38 29.9960000  0  5G18G19G11G16G 6
  20550935.770    -1055949.439 7      5941.44322        23.750           2.031
  19748583.566    -5310694.628 6  -1026516.20922        18.250           1.719
  22345923.106   -10777044.771 6  -2096432.17121        15.250           0.656
  22474733.699    -9670813.633 5  -1927587.44021        10.500           0.406
  22886139.934    -5973906.298 5  -2553071.99521         7.750           0.438
 91  5 20 18 38 44.9960000  0  5G18G19G11G16G 6
  20551429.301    -1053358.782 7                        23.250
  19743521.332    -5337292.544 6  -1047241.86921        18.500           1.375
  22335640.566   -10831079.666 6  -2138537.25521        14.500           0.594
  22465359.660    -9720077.607 5  -1965974.96621        10.500           0.375
  22873009.059    -6042914.900 5                         8.000
 91  5 20 18 38 59.9960000  0  5G18G19G11G16G 6
  20551941.660    -1050666.521 7                        23.750
  19738472.691    -5363828.209 6  -1067919.00521        18.000           1.406
  22325384.754   -10884973.601 6  -2180532.49321        14.250           0.625
  22456014.949    -9769196.772 5  -2004249.67821        10.750           0.406
  22859885.340    -6111891.858 5                         8.250
 91  5 20 18 39 14.9960000  0  5G18G19G11G16G 6
  20552472.231    -1047874.133 7        -0.28732        23.750           1.781
  19733433.590    -5390302.868 6  -1088548.60321        18.500           1.438
  22315154.824   -10938727.583 6  -2222418.66121        14.250           0.563
  22446694.777    -9818171.997 5  -2042412.17521        11.000           0.281
  22846767.207    -6180838.460 5        -0.04331         8.250           0.313
 91  5 20 18 39 29.9960000  0  5G18G19G11G16G 6
  20553022.223    -1044986.665 7      2249.63522        24.000           1.938
  19728402.129    -5416721.176 6  -1109134.29222        19.000           1.719
  22304952.652   -10992345.963 6  -2264199.17321        14.750           0.750
  22437400.332    -9867008.068 5  -2080466.26021        10.750           0.375
  22833649.660    -6249759.351 5    -53704.53521         7.750           0.281
 91  5 20 18 39 44.9960000  0  5G18G19G11G16G 6
  20553590.027    -1042002.412 7      4574.96622        23.250           1.688
  19723389.965    -5443081.364 6  -1129674.70721        18.500           1.469
  22294775.387   -11045826.905 6  -2305872.60321        14.750           0.594
  22428135.496    -9915703.126 5  -2118410.46921        10.750           0.344
  22820540.902    -6318652.996 5   -107387.81021         8.000           0.344
 91  5 20 18 39 59.9960000  0  5G18G19G11G16G 6
  20554176.699    -1038914.349 7      6981.19422        23.000           1.656
  19718385.184    -5469376.118 6  -1150164.12121        19.250           1.469
  22284626.457   -11099162.739 6  -2347432.96421        15.000           0.688
  22418897.113    -9964249.953 5  -2156239.18021        11.250           0.438
  22807438.395    -6387512.038 5   -161044.11621         8.000           0.188
 91  5 20 18 40 14.9960000  0  5G18G19G11G16G 6
  20554783.481    -1035729.771 7      9462.61722        23.250           1.594
  19713392.582    -5495612.782 6  -1170608.28621        18.250           1.406
  22274502.793   -11152360.534 6  -2388885.75721        15.250           0.656
  22409687.285   -10012655.652 5  -2193957.90821        11.750           0.219
  22794338.098    -6456343.856 5   -214679.21821         8.000           0.219
 91  5 20 18 40 29.9960000  0  5G18G19G11G16G 6
  20555406.426    -1032455.454 7     12013.97722        23.250           1.656
  19708408.887    -5521797.867 6  -1191012.25121        18.750           1.406
  22264403.098   -11205426.472 6  -2430235.81421        14.750           0.531
  22400500.051   -10060926.676 5  -2231571.68021        11.750           0.344
  22781244.145    -6525154.899 5   -268298.10721         8.250           0.219
 91  5 20 18 40 44.9960000  0  5G18G19G11G16G 6
  20556047.746    -1029085.466 7     14639.88022        23.000           1.750
  19703439.113    -5547925.251 6  -1211371.24922        18.000           1.563
  22254333.402   -11258354.245 6  -2471478.19421        14.750           0.656
  22391340.012   -10109056.759 5  -2269075.64221        11.250           0.406
  22768155.145    -6593939.049 5   -321896.03021         8.250           0.156
 91  5 20 18 40 59.9960000  0  5G18G19G11G16G 6
  20556708.613    -1025613.243 7     17345.44321        22.000           0.344
  19698476.715    -5573988.093 6  -1231679.95721        17.000           0.031
  22244288.895   -11311136.850 6  -2512607.45821        14.000           0.031
  22382207.973   -10157039.126 5  -2306464.50221        10.750           0.031
  22755071.879    -6662689.565 5   -375467.76821         7.750           0.031
 91  5 20 18 41 14.9960000  0  5G18G19G11G16G 6
  20557387.895    -1022045.646 7     20125.33122        23.750           1.656
  19693530.504    -5599993.217 6  -1251943.68522        18.250           1.625
  22234271.379   -11363780.661 6  -2553628.57521        14.500           0.594
  22373106.215   -10204880.312 5  -2343743.35521        11.750           0.344
  22741993.395    -6731413.233 5   -429018.57821         8.500           0.219
 91  5 20 18 41 29.9960000  0  5G18G19G11G16G 6
  20558083.793    -1018388.939 7     22974.65822        23.500           1.625
  19688592.613    -5625946.663 6  -1272167.15022        17.750           1.500
  22224277.035   -11416291.598 6  -2594546.14221        14.500           0.656
  22364028.668   -10252586.577 6  -2380917.06221        12.250           0.313
  22728920.238    -6800116.240 5   -482553.32421         8.500           0.188
 91  5 20 18 41 44.9960000  0  5G18G19G11G16G 6
  20558797.754    -1014636.368 7     25898.67421        23.000           1.313
  19683663.410    -5651841.840 6  -1292345.22121        18.250           1.281
  22214311.184   -11468662.668 6  -2635354.72821        14.250           0.594
  22354978.059   -10300150.921 6  -2417980.19621        12.500           0.281
  22715852.082    -6868791.834 5   -536066.68321         8.500           0.250
 91  5 20 18 41 59.9960000  0  5G18G19G11G16G 6
  20559531.285    -1010781.947 7     28902.05921        22.750           0.313
  19678746.809    -5677672.334 6  -1312472.89021        17.750           0.594
  22204373.613   -11520887.418 6  -2676049.28721        14.250           0.406
  22345957.316   -10347567.204 6  -2454927.94221        12.500           0.063
  22702789.199    -6937433.793 5   -589553.76921         8.500           0.031
 91  5 20 18 42 14.9960000  0  5G18G19G11G16G 6
  20560282.590    -1006832.382 7                        23.250
  19673844.035    -5703444.920 6                        18.250
  22194462.199   -11572972.297 6                        15.000
  22336959.879   -10394841.820 6                        12.750
  22689734.527    -7006048.806 5                         9.500
 91  5 20 18 42 29.9960000  0  5G18G19G11G16G 6
  20561052.082    -1002790.298 7                        23.000
  19668948.543    -5729161.717 6                        18.250
  22184577.981   -11624919.301 6                        15.000
  22327990.418   -10441976.957 6                        12.750
  22676679.637    -7074639.204 5                         9.250
 91  5 20 18 42 44.9960000  0  5G18G19G11G16G 6
  20561839.402     -998658.984 7        -0.15332        23.500           1.813
  19664066.426    -5754825.607 6                        17.750
  22174716.926   -11676731.065 6                        15.000
  22319043.809   -10488975.453 6        -0.23331        12.500           0.438
  22663635.098    -7143207.867 5                         9.500
 91  5 20 18 42 59.9960000  0  5G18G19G11G16G 6
  20562642.137     -994435.070 7      3291.13921        23.000           1.313
  19659191.301    -5780433.312 6        -0.39131        18.250           1.281
  22164885.973   -11728403.952 6        -0.34331        15.250           0.469
  22310126.410   -10535833.816 6    -36513.23321        12.250           0.313
  22650588.254    -7211751.438 5        -0.44431         9.000           0.313
 91  5 20 18 43 14.9960000  0  5G18G19G11G16G 6
  20563464.043     -990119.959 7      6653.49821        23.250           1.406
  19654331.395    -5805986.104 6    -19911.65821        18.250           1.469
  22155077.574   -11779939.015 6    -40157.50221        15.000           0.563
  22301234.332   -10582553.595 6    -72918.25121        12.000           0.469
  22637547.090    -7280271.116 5    -53392.31221         9.250           0.313
 91  5 20 18 43 29.9960000  0  5G18G19G11G16G 6
  20564302.481     -985713.137 7     10087.31321        22.750           1.438
  19649479.762    -5831483.449 6    -39779.72922        18.000           1.625
  22145297.543   -11831335.548 6    -80206.71721        15.250           0.625
  22292372.098   -10629134.402 6   -109214.99521        12.250           0.500
  22624513.676    -7348766.556 5   -106765.28321         8.750           0.344
 91  5 20 18 43 44.9960000  0  5G18G19G11G16G 6
  20565159.082     -981213.569 7     13593.41222        22.250           1.500
  19644637.481    -5856924.346 6    -59603.81622        18.000           1.750
  22135543.395   -11882592.205 6   -120146.94621        15.500           0.781
  22283536.793   -10675574.513 6   -145402.08421        12.500           0.563
  22611486.449    -7417236.736 5   -160118.58621         9.250           0.250
 91  5 20 18 43 59.9960000  0  5G18G19G11G16G 6
  20566030.660     -976618.774 7     17173.70922        22.250           1.531
  19639808.832    -5882306.004 6    -79381.73122        19.250           1.781
  22125815.160   -11933706.040 6   -159975.87621        15.500           0.750
  22274725.879   -10721871.146 6   -181477.37321        12.250           0.500
  22598463.731    -7485678.842 5   -213450.01021         9.500           0.344
 91  5 20 18 44 14.9960000  0  5G18G19G11G16G 6
  20566926.121     -971925.714 7     20830.57122        22.000           1.594
  19634989.152    -5907624.868 6    -99110.72322        18.250           1.750
  22116116.902   -11984673.316 6   -199690.60621        15.000           0.813
  22265941.598   -10768020.942 6   -217438.27121        12.000           0.438
  22585446.082    -7554089.445 5   -266756.87221         9.750           0.344
 91  5 20 18 44 29.9960000  0  5G18G19G11G16G 6
  20567834.879     -967144.974 7     24555.75822        21.750           1.594
  19630181.277    -5932891.338 6   -118798.89022        18.500           1.813
  22106445.106   -12035504.305 6   -239299.13321        15.250           0.719
  22257188.613   -10814034.445 6   -253292.96421        12.250           0.563
  22572429.574    -7622478.973 5   -320047.32621         9.750           0.406
 91  5 20 18 44 44.9960000  0  5G18G19G11G16G 6
  20568761.504     -962277.713 7     28348.36821        21.750           1.469
  19625384.113    -5958106.440 6   -138447.02522        18.000           1.531
  22096798.426   -12086199.669 6   -278801.98121        14.750           0.688
  22248457.590   -10859911.986 5   -289041.71921        11.750           0.500
  22559420.449    -7690848.445 5   -373322.14221         9.250           0.250
 91  5 20 18 44 59.9960000  0  5G18G19G11G16G 6
  20569705.238     -957317.450 7     32213.43722        22.250           1.500
  19620595.512    -5983263.842 6   -158050.20922        18.500           1.531
  22087177.324   -12136752.640 6   -318193.87721        14.750           0.656
  22239753.598   -10905647.232 5   -324679.58121        11.000           0.375
  22546411.371    -7759191.369 5   -426576.26321         9.000           0.281
 91  5 20 18 45 14.9960000  0  5G18G19G11G16G 6
  20570669.559     -952254.397 7     36158.60721        22.500           1.469
  19615821.949    -6008353.325 6   -177600.45222        18.250           1.656
  22077587.121   -12187153.078 6   -357466.90121        14.750           0.688
  22231079.293   -10951230.339 5   -360198.89821        11.250           0.438
  22533414.746    -7827497.803 5   -479801.98821         9.000           0.344
 91  5 20 18 45 29.9960000  0  5G18G19G11G16G 6
  20571649.168     -947106.476 7     40169.90221        22.500           1.125
  19611057.731    -6033392.834 6   -197111.77421        18.000           1.281
  22068022.176   -12237418.690 6   -396634.87721        14.750           0.438
  22222431.379   -10996679.092 5   -395613.53921        11.000           0.344
  22520420.707    -7895785.639 5   -533013.21021         9.000           0.156
 91  5 20 18 45 44.9960000  0  5G18G19G11G16G 6
  20572645.238     -941873.341 7     44247.61321        22.500           1.094
  19606300.527    -6058381.326 6   -216583.32521        17.500           1.469
  22058483.395   -12287548.051 6   -435696.67221        15.250           0.531
  22213806.559   -11041992.264 5   -430922.52021        10.500           0.375
  22507432.988    -7964053.883 5   -586209.15321         9.500           0.281
 91  5 20 18 45 59.9960000  0  5G18G19G11G16G 6
  20573657.793     -936549.175 7     48396.25622        23.000           1.563
  19601555.629    -6083312.872 6   -236010.50522        17.750           1.625
  22048970.066   -12337535.227 6   -474647.69121        15.250           0.719
  22205214.715   -11087164.156 5   -466121.40621        10.750           0.469
  22494445.598    -8032296.700 5   -639385.28421         9.000           0.344
 91  5 20 18 46 14.9960000  0  5G18G19G11G16G 6
  20574690.481     -931129.151 7     52619.59522        23.000           1.719
  19596824.856    -6108182.735 6   -255389.62522        17.500           1.750
  22039486.160   -12387375.197 6   -513484.00021        15.500           0.688
  22196644.645   -11132189.643 5   -501206.22921        10.500           0.531
  22481463.066    -8100509.317 5   -692537.88621         9.000           0.281
 91  5 20 18 46 29.9960000  0  5G18G19G11G16G 6
  20575739.512     -925615.552 7     56915.85722        22.750           1.625
  19592102.465    -6132993.205 6   -274722.46222        18.000           1.781
  22030030.441   -12437069.925 6   -552207.12021        16.000           0.688
  22188103.621   -11177071.405 5   -536179.04521        10.750           0.438
  22468487.301    -8168694.093 5   -745668.78921         8.750           0.375
 91  5 20 18 46 44.9960000  0  5G18G19G11G16G 6
  20576805.660     -920012.928 7     61281.47022        22.000           1.531
  19587393.012    -6157748.320 6   -294012.16421        17.750           1.469
  22020600.184   -12486623.275 6   -590820.09121        16.000           0.781
  22179592.090   -11221813.069 5   -571042.69621        11.250           0.375
  22455516.512    -8236855.013 5   -798781.10921         8.750           0.344
 91  5 20 18 46 59.9960000  0  5G18G19G11G16G 6
  20577887.551     -914319.630 7     65717.74121        21.750           1.344
  19582692.231    -6182446.130 6   -313257.21721        18.000           1.469
  22011197.520   -12536033.311 6   -629321.38321        15.750           0.688
  22171104.848   -11266412.856 5   -605795.79121        11.750           0.344
  22442551.418    -8304990.345 5   -851873.50621         9.000           0.313
 91  5 20 18 47 14.9960000  0  5G18G19G11G16G 6
  20578986.981     -908541.330 7     70220.23722        22.000           1.594
  19578002.113    -6207092.561 6   -332462.23422        17.500           1.531
  22001822.582   -12585305.384 6   -667715.17821        16.250           0.781
  22162644.824   -11310876.571 6   -640442.86321        12.000           0.438
  22429589.824    -8373105.725 5   -904950.32521         9.250           0.438
 91  5 20 18 47 29.9960000  0  5G18G19G11G16G 6
  20580104.395     -902674.500 7     74791.74322        22.000           1.594
  19573322.215    -6231683.764 6   -351624.22322        17.750           1.750
  21992472.527   -12634435.532 6   -705998.38021        16.000           0.688
  22154206.824   -11355200.245 5   -674980.80921        11.750           0.406
  22416630.684    -8441197.456 5   -958008.75121         9.500           0.281
 91  5 20 18 47 44.9960000  0  5G18G19G11G16G 6
  20581237.793     -896720.355 7     79431.26422        21.500           1.531
  19568653.895    -6256220.736 6   -370743.93822        17.500           1.531
  21983149.402   -12683424.658 6   -744171.69821        16.500           0.656
  22145798.590   -11399384.931 5   -709410.44121        11.250           0.406
  22403678.324    -8509266.651 5  -1011049.62421         9.250           0.281
 91  5 20 18 47 59.9960000  0  5G18G19G11G16G 6
  20582385.270     -890686.878 7                        20.750
  19563994.090    -6280711.201 6                        16.750
  21973853.082   -12732280.500 6                        16.500
  22137413.887   -11443438.549 5                        10.500
  22390725.707    -8577321.164 5                         8.750
 91  5 20 18 48 14.9960000  0  5G18G19G11G16G 6
  20583549.793     -884569.355 7                        21.750
  19559343.129    -6305149.930 6                        17.500
  21964583.098   -12780997.588 6                        17.250
  22129056.965   -11487355.779 5                        11.000
  22377782.668    -8645355.791 5                         9.500
 91  5 20 18 48 29.9960000  0  5G18G19G11G16G 6
  20584731.262     -878358.279 7                        21.500
  19554702.723    -6329527.504 6                        18.250
  21955340.918   -12829566.025 6                        17.000
  22120729.082   -11531126.996 5                        11.500
  22364838.660    -8713361.002 5                         9.000
 91  5 20 18 48 44.9960000  0  5G18G19G11G16G 6
  20585931.613     -872053.318 7        -0.42432        22.000           1.531
  19550077.152    -6353843.639 6        -0.25532        17.250           1.594
  21946125.762   -12877985.225 6        -0.24431        16.750           0.688
  22112427.363   -11574751.661 6                        12.000
  22351904.918    -8781336.364 5        -0.18931         9.000           0.344
 91  5 20 18 48 59.9960000  0  5G18G19G11G16G 6
  20587148.832     -865659.652 7      4981.59822        22.250           1.781
  19545460.863    -6378103.246 6    -18903.85322        17.000           1.719
  21936939.535   -12926260.034 6    -37616.94621        16.500           0.844
  22104153.871   -11618234.813 6        -0.34031        12.750           0.344
  22338973.402    -8849287.009 5    -52948.65521         9.250           0.313
 91  5 20 18 49 14.9960000  0  5G18G19G11G16G 6
  20588381.527     -859180.506 7     10030.21422        22.250           1.906
  19540855.910    -6402309.230 6    -37765.66522        17.500           1.781
  21927780.598   -12974393.149 6    -75123.23221        16.250           0.781
  22095904.816   -11661579.201 6    -33775.19321        12.750           0.406
  22326045.176    -8917215.750 5   -105880.08521         9.500           0.281
 91  5 20 18 49 29.9960000  0  5G18G19G11G16G 6
  20589630.387     -852619.014 7     15142.99522        22.000           1.656
  19536258.106    -6426464.483 6    -56587.94422        17.000           1.844
  21918647.660   -13022387.295 6   -112521.23321        16.250           0.781
  22087684.434   -11704788.012 6    -67444.42221        13.000           0.406
  22313124.262    -8985125.623 5   -158796.78621         9.500           0.375
 91  5 20 18 49 44.9950000  0  5G18G19G11G16G 6
  20590895.437     -845970.323 7     20323.72921        20.750           0.031
  19531672.038    -6450562.022 6    -75365.26421        17.000           0.031
  21909541.968   -13070233.877 6   -149804.26221        15.750           0.031
  22079489.023   -11747853.055 6   -101001.61021        12.500           0.031
  22300204.405    -9053006.850 5   -211691.17221         8.500           0.063
 91  5 20 18 49 59.9950000  0  5G18G19G11G16G 6
  20592178.780     -839228.245 7     25577.23922        21.750           1.688
  19527095.991    -6474599.410 6    -94095.68722        17.750           1.719
  21900465.530   -13117933.329 6   -186972.62721        16.750           0.813
  22071320.108   -11790774.469 6   -134446.87621        12.750           0.375
  22287293.218    -9120862.851 5   -264565.91921         8.750           0.344
 91  5 20 18 50 14.9950000  0  5G18G19G11G16G 6
  20593479.179     -832396.075 7     30900.95222        22.000           1.719
  19522536.507    -6498577.784 6   -112780.15722        17.250           1.844
  21891417.179   -13165484.884 6   -224025.75621        16.750           0.781
  22063181.851   -11833551.791 6   -167779.85821        12.750           0.250
  22274384.694    -9188691.606 5   -317419.43321         8.750           0.281
 91  5 20 18 50 29.9950000  0  5G18G19G11G16G 6
  20594796.890     -825473.727 7     36294.93322        22.250           1.656
  19517984.132    -6522496.557 6   -131418.17022        16.750           1.844
  21882395.398   -13212887.965 6   -260963.20221        16.500           0.781
  22055069.187   -11876184.403 6   -201000.07621        12.500           0.406
  22261481.101    -9256492.813 5   -370251.47421         8.500           0.500
 91  5 20 18 50 44.9950000  0  5G18G19G11G16G 6
  20596130.483     -818460.112 7     41760.01121        20.750           0.156
  19513442.655    -6546355.002 6   -150009.19221        16.500           0.531
  21873402.726   -13260141.504 6   -297784.13021        15.750           0.250
  22046983.335   -11918671.462 6                        12.000
  22248587.827    -9324265.653 5                         8.750
 91  5 20 18 50 59.9950000  0  5G18G19G11G16G 6
  20597479.991     -811364.359 7     47289.10822        21.250           1.531
  19508914.124    -6570161.808 6                        16.500
  21864438.952   -13307253.994 6                        16.750
  22038925.007   -11961021.849 6                        12.750
  22235696.577    -9392018.859 5                         9.000
 91  5 20 18 51 14.9950000  0  5G18G19G11G16G 6
  20598847.054     -804180.791 7     52886.65722        21.250           1.500
  19504394.773    -6593911.375 6                        17.250
  21855501.679   -13354219.769 6                        16.250
  22030892.569   -12003230.009 6                        12.500
  22222808.726    -9459746.983 5                         9.500
 91  5 20 18 51 29.9950000  0  5G18G19G11G16G 6
  20600232.335     -796907.383 7     58554.18722        21.500           1.563
  19499886.749    -6617601.055 6                        16.500
  21846593.546   -13401036.045 6                        16.250
  22022887.483   -12045293.103 6        -0.13931        12.000           0.344
  22209926.562    -9527447.254 5        -0.02231         9.750           0.125
 91  5 20 18 51 44.9950000  0  5G18G19G11G16G 6
  20601632.952     -789545.673 7     64290.52022        21.250           1.500
  19495388.640    -6641231.977 6        -0.32032        17.000           1.531
  21837710.788   -13447703.795 6        -0.46731        16.500           0.688
  22014910.733   -12087212.324 5    -32664.48121        11.750           0.313
  22197045.483    -9595121.059 5    -52732.78921         9.500           0.313
 91  5 20 18 51 59.9950000  0  5G18G19G11G16G 6
  20603050.116     -782096.895 7     70094.68222        21.000           1.500
  19490900.398    -6664805.402 6    -18369.23222        17.750           1.594
  21828859.585   -13494224.136 6    -36250.06321        16.750           0.656
  22006959.663   -12128989.285 5    -65217.96921        11.000           0.406
  22184172.905    -9662769.679 5   -105445.94521         9.750           0.250
 91  5 20 18 52 14.9950000  0  5G18G19G11G16G 6
  20604484.148     -774562.170 7     75965.82621        21.000           1.375
  19486427.624    -6688322.572 6    -36694.30421        17.500           1.406
  21820035.296   -13540597.950 6    -72385.47421        17.250           0.656
  21999037.437   -12170624.957 5    -97661.36121        11.000           0.344
  22171303.616    -9730394.175 5   -158140.31221         9.500           0.188
 91  5 20 18 52 29.9950000  0  5G18G19G11G16G 6
  20605934.319     -766941.058 7     81904.28722        20.750           1.500
  19481962.288    -6711782.395 6    -54974.69922        18.000           1.719
  21811239.265   -13586824.039 6   -108405.78921        17.250           0.688
  21991140.882   -12212118.306 5   -129993.86221        11.000           0.438
  22158440.429    -9797993.694 5   -210815.18421         9.500           0.281
 91  5 20 18 52 44.9950000  0  5G18G19G11G16G 6
  20607401.718     -759232.597 7     87910.82022        20.500           1.500
  19477511.726    -6735184.008 6    -73209.73722        17.750           1.594
  21802470.374   -13632901.295 6   -144310.12421        17.250           0.625
  21983273.194   -12253468.524 5   -162214.81921        11.250           0.344
  22145584.655    -9865567.179 5   -263469.79121        10.000           0.313
 91  5 20 18 52 59.9950000  0  5G18G19G11G16G 6
  20608883.413     -751438.980 7     93983.70421        20.500           1.313
  19473067.210    -6758529.220 6    -91400.81422        18.000           1.531
  21793729.773   -13678831.543 6   -180099.91321        17.000           0.688
  21975431.827   -12294677.142 5   -194325.46721        11.250           0.438
  22132726.835    -9933116.686 5   -316105.69521         9.250           0.219
 91  5 20 18 53 14.9950000  0  5G18G19G11G16G 6
  20610384.413     -743556.937 7    100125.49622        21.000           1.656
  19468637.358    -6781814.451 6   -109545.16622        17.500           1.938
  21785017.663   -13724611.229 6   -215772.37021        16.750           0.844
  21967615.358   -12335740.794 5   -226323.13721        11.500           0.531
  22119879.937   -10000638.706 5   -368720.18121         9.750           0.313
 91  5 20 18 53 29.9950000  0  5G18G19G11G16G 6
  20611900.538     -735591.145 7    106332.54222        21.250           1.594
  19464215.015    -6805044.288 6   -127646.34222        17.750           1.844
  21776333.398   -13770244.340 6   -251330.62621        16.000           0.813
  21959827.366   -12376663.924 5   -258211.31521        11.000           0.438
  22107034.476   -10068137.602 5   -421316.66621         9.500           0.281
 91  5 20 18 53 44.9950000  0  5G18G19G11G16G 6
  20613432.015     -727542.453 7    112604.18821        21.250           1.438
  19459806.773    -6828219.494 6   -145704.94822        17.250           1.969
  21767677.804   -13815731.688 6   -286775.27721        16.500           0.813
  21952066.554   -12417447.536 5   -289990.77321        11.500           0.531
  22094188.226   -10135614.278 5   -473895.83921         9.250           0.313
 91  5 20 18 53 59.9950000  0  5G18G19G11G16G 6
  20614980.421     -719407.159 7    118943.31421        21.250           1.250
  19455408.366    -6851336.007 6   -163717.83222        16.750           1.656
  21759051.054   -13861069.050 6   -322103.07121        16.500           0.594
  21944333.101   -12458087.443 5   -321658.24021        11.500           0.313
  22081358.812   -10203064.707 5   -526454.53921        10.000           0.313
 91  5 20 18 54 14.9950000  0  5G18G19G11G16G 6
  20616544.148     -711191.635 7    125344.95221        21.250           1.406
  19451019.085    -6874400.195 6   -181689.94522        17.500           1.781
  21750449.882   -13906262.516 6   -357318.73521        16.000           0.688
  21936627.319   -12498590.013 5   -353218.71421        11.750           0.344
  22068527.241   -10270495.205 5   -578997.74121         9.500           0.281
 91  5 20 18 54 29.9950000  0  5G18G19G11G16G 6
  20618122.858     -702895.636 7    131809.29321        21.000           1.313
  19446639.546    -6897411.369 6   -199620.74022        17.500           1.688
  21741877.608   -13951311.345 6   -392421.69721        16.250           0.750
  21928943.796   -12538954.643 5   -384671.70421        11.500           0.406
  22055701.148   -10337905.296 5   -631524.99821         9.750           0.281
 91  5 20 18 54 44.9950000  0  5G18G19G11G16G 6
  20619717.452     -694512.204 7    138341.77421        20.750           1.313
  19442273.218    -6920362.294 6   -217504.58322        17.250           1.750
  21733334.538   -13996208.240 6   -427406.26521        17.000           0.750
  21921292.312   -12579174.069 6   -416011.52121        12.000           0.500
  22042873.819   -10405287.757 5   -684030.74321         9.250           0.313
 91  5 20 18 54 59.9950000  0  5G18G19G11G16G 6
  20621330.312     -686038.755 7    144944.38521        20.000           1.156
  19437916.913    -6943250.442 6   -235339.52022        17.750           1.563
  21724821.093   -14040950.358 6   -462270.24221        17.500           0.563
  21913665.968   -12619245.913 6   -447236.36721        12.000           0.344
  22030055.702   -10472639.990 5   -736512.94221         9.250           0.281
 91  5 20 18 55 14.9950000  0  5G18G19G11G16G 6
  20622958.413     -677479.024 7    151614.23921        20.250           1.063
  19433573.577    -6966079.131 6   -253128.12022        17.250           1.500
  21716335.265   -14085541.017 6   -497016.19021        17.500           0.531
  21906068.944   -12659173.274 6   -478348.61421        12.500           0.375
  22017246.382   -10539965.391 5   -788974.21121         9.250           0.250
 91  5 20 18 55 29.9950000  0  5G18G19G11G16G 6
  20624604.343     -668835.014 7    158349.76821        20.250           1.125
  19429238.460    -6988849.946 6   -270871.62322        17.500           1.656
  21707877.804   -14129981.681 6   -531645.25621        17.500           0.750
  21898500.694   -12698957.946 6   -509349.64721        12.750           0.313
  22004439.898   -10607265.702 5   -841415.95321         9.250           0.344
 91  5 20 18 55 44.9950000  0  5G18G19G11G16G 6
  20626265.952     -660104.084 7    165153.02121        20.000           1.344
  19424917.991    -7011560.429 6   -288568.10822        17.250           1.781
  21699450.655   -14174269.533 6   -566155.24321        17.750           0.750
  21890957.023   -12738597.357 6   -540237.53921        13.000           0.344
  21991640.733   -10674538.273 5   -893836.08421         9.250           0.250
 91  5 20 18 55 59.9950000  0  5G18G19G11G16G 6
  20627945.007     -651285.824 6    172024.31421        19.500           1.188
  19420608.226    -7034209.939 6   -306217.09322        17.000           1.813
  21691053.273   -14218403.834 6   -600545.59421        17.500           0.719
  21883443.382   -12778091.005 6   -571011.83421        13.250           0.375
  21978845.437   -10741782.514 5   -946234.13521         9.750           0.375
 91  5 20 18 56 14.9950000  0  5G18G19G11G16G 6
  20629638.827     -642378.856 6    178964.72821        18.500           0.063
  19416309.694    -7056796.757 6   -323817.21921        16.500           0.063
  21682683.413   -14262382.615 6   -634814.74421        16.250           0.031
  21875954.835   -12817437.154 6   -601671.17421        12.250           0.031
  21966053.351   -10808996.734 5   -998608.75721         9.250           0.031
 91  5 20 18 56 29.9950000  0  5G18G19G11G16G 6
  20631349.319     -633385.839 6    185972.21221        19.250           1.344
  19412021.358    -7079323.369 6   -341370.44422        18.500           1.875
  21674344.374   -14306208.368 6   -668964.66321        17.500           0.813
  21868494.944   -12856638.255 6   -632217.51721        12.250           0.375
  21953267.148   -10876183.509 5  -1050962.04621        10.000           0.438
 91  5 20 18 56 44.9950000  0  5G18G19G11G16G 6
  20633076.655     -624312.977 6    193041.89721        19.250           1.313
  19407746.460    -7101795.768 6   -358881.40022        17.500           2.031
  21666031.749   -14349886.912 6   -702999.86921        17.500           0.750
  21861061.413   -12895700.114 5   -662655.33921        11.750           0.406
  21940483.054   -10943348.843 5  -1103298.61821         9.750           0.406
 91  5 20 18 56 59.9950000  0  5G18G19G11G16G 6
  20634819.233     -615153.189 6    200179.33021        19.250           1.188
  19403481.554    -7124206.881 6   -376344.62422        17.750           1.719
  21657750.460   -14393410.940 6   -736914.68321        17.250           0.656
  21853655.312   -12934615.746 6   -692979.22621        12.000           0.344
  21927707.288   -11010485.615 5  -1155612.93121         9.500           0.375
 91  5 20 18 57 14.9950000  0  5G18G19G11G16G 6
  20636579.046     -605908.398 6    207382.98421        19.000           1.156
  19399227.804    -7146558.147 6   -393761.20922        17.500           1.688
  21649496.507   -14436781.892 6   -770710.21821        17.250           0.656
  21846279.562   -12973386.885 6   -723190.51821        12.250           0.281
  21914940.921   -11077595.435 5  -1207906.23321        10.250           0.438
 91  5 20 18 57 29.9950000  0  5G18G19G11G16G 6
  20638353.280     -596583.072 6    214649.39621        19.500           1.188
  19394986.233    -7168853.938 6   -411134.56222        18.250           1.719
  21641271.038   -14480003.926 6   -804389.70121        17.000           0.656
  21838926.726   -13012017.855 5   -753292.59721        11.750           0.344
  21902173.280   -11144682.534 5  -1260181.83421         9.750           0.375
 91  5 20 18 57 44.9950000  0  5G18G19G11G16G 6
  20640144.390     -587175.495 6    221979.89021        19.500           0.875
  19390754.304    -7191092.155 6   -428463.05821        17.750           1.219
  21633075.640   -14523074.719 6   -837951.34221        17.250           0.531
  21831600.812   -13050506.314 5   -783283.64221        11.500           0.281
  21889413.710   -11211744.978 5  -1312438.20221        10.250           0.125
 91  5 20 18 57 59.9950000  0  5G18G19G11G16G 6
  20641949.640     -577684.528 6    229375.39421        19.250           0.906
  19386535.101    -7213271.554 6   -445745.71621        17.500           1.438
  21624907.608   -14565993.002 6   -871394.14821        17.250           0.563
  21824304.233   -13088851.243 5   -813162.81221        10.750           0.188
  21876654.804   -11278781.440 5  -1364674.35521        10.250           0.344
 91  5 20 18 58 14.9950000  0  5G18G19G11G16G 6
  20643771.601     -568110.015 6    236835.97421        19.250           1.156
  19382324.226    -7235391.725 6   -462982.23222        17.750           1.656
  21616769.429   -14608758.217 6   -904717.66421        17.250           0.594
  21817036.233   -13127052.259 5   -842929.85621        11.000           0.375
  21863903.671   -11345791.637 5  -1416890.03021        10.500           0.406
 91  5 20 18 58 29.9950000  0  5G18G19G11G16G 6
  20645609.890     -558453.790 6    244360.22521        19.250           1.188
  19378126.538    -7257454.035 6   -480173.65421        18.250           1.313
  21608660.226   -14651371.817 6   -937923.05221        17.250           0.656
  21809792.773   -13165111.127 5   -872586.14721        11.000           0.375
  21851156.937   -11412777.186 5  -1469086.49121        10.250           0.344
 91  5 20 18 58 44.9950000  0  5G18G19G11G16G 6
  20647461.937     -548720.220 6    251944.75221        19.500           1.156
  19373938.312    -7279462.906 6   -497323.43021        17.750           1.438
  21600580.585   -14693838.063 6   -971013.61221        17.500           0.625
  21802578.585   -13203032.154 5   -902135.02221        11.250           0.313
  21838414.038   -11479742.359 5  -1521267.07921        10.750           0.344
 91  5 20 18 58 59.9950000  0  5G18G19G11G16G 6
  20649328.007     -538913.252 6    259586.46621        19.500           1.313
  19369757.905    -7301421.784 6   -514434.26322        17.750           1.656
  21592526.319   -14736160.184 6  -1003991.87421        17.250           0.813
  21795387.554   -13240818.795 5   -931579.18321        11.500           0.438
  21825674.390   -11546690.686 5  -1573434.53521        10.250           0.313
 91  5 20 18 59 14.9950000  0  5G18G19G11G16G 6
  20651209.663     -529024.741 6    267291.72021        19.500           0.875
  19365590.452    -7323322.345 6   -531499.64022        17.250           1.531
  21584501.374   -14778329.688 6  -1036851.20821        17.750           0.625
  21788225.194   -13278462.832 6   -960912.22621        12.000           0.281
  21812937.390   -11613613.792 5  -1625582.33121        10.000           0.281
 91  5 20 18 59 29.9950000  0  5G18G19G11G16G 6
  20653106.601     -519056.187 6    275059.34121        19.500           0.938
  19361434.390    -7345166.011 6   -548520.69821        17.500           1.188
  21576505.765   -14820347.845 6  -1069592.61521        18.000           0.563
  21781087.429   -13315965.376 5   -990135.00521        11.500           0.344
  21800208.351   -11680513.064 5  -1677711.57021        10.500           0.125
 91  5 20 18 59 44.9950000  0  5G18G19G11G16G 6
  20655019.546     -509007.996 6    282889.02521        19.750           1.094
  19357288.733    -7366953.052 6   -565497.61822        17.250           1.500
  21568539.257   -14862214.928 6  -1102216.28721        18.000           0.625
  21773978.069   -13353327.234 5  -1019248.16421        11.750           0.406
  21787479.757   -11747389.079 5  -1729822.70621        10.500           0.219
 91  5 20 18 59 59.9950000  0  5G18G19G11G16G 6
  20656945.585     -498884.494 6    290777.38421        19.250           1.063
  19353152.155    -7388687.358 6   -582433.45922        17.500           1.594
  21560601.210   -14903934.738 6  -1134725.21721        18.500           0.750
  21766892.312   -13390552.286 5  -1048254.72921        11.750           0.344
  21774758.335   -11814245.557 5  -1781918.60121        10.500           0.313
 91  5 20 19  0 14.9950000  0  5G18G19G11G16G 6
  20658886.898     -488682.906 6    298726.59121        19.500           1.063
  19349028.023    -7410366.025 6   -599325.93422        17.250           1.500
  21552690.444   -14945504.077 6  -1167116.90321        18.000           0.625
  21759834.983   -13427637.277 6  -1077152.14421        12.000           0.438
  21762039.030   -11881079.534 5  -1833996.97421        10.750           0.250
 91  5 20 19  0 29.9950000  0  5G18G19G11G16G 6
  20660843.773     -478404.842 6    306735.39421        19.750           1.125
  19344913.132    -7431990.308 6   -616176.03622        17.250           1.594
  21544808.390   -14986924.312 6  -1199392.39721        17.500           0.813
  21752804.413   -13464583.756 5  -1105941.63121        11.750           0.344
  21749328.944   -11947892.540 5  -1886059.01321        11.250           0.313
 91  5 20 19  0 44.9950000  0  5G18G19G11G16G 6
  20662814.085     -468047.537 6    314805.93121        19.000           1.219
  19340809.780    -7453557.434 6   -632981.60122        17.750           1.750
  21536955.062   -15028192.233 6  -1231549.20621        16.750           0.813
  21745798.788   -13501388.822 5  -1134620.92021        11.750           0.406
  21736618.444   -12014681.624 5  -1938102.40321        11.000           0.375
 91  5 20 19  0 59.9950000  0  5G18G19G11G16G 6
  20664801.405     -457606.093 6    322942.04021        19.250           1.281
  19336715.616    -7475062.377 6   -649738.71122        18.750           1.906
  21529130.812   -15069302.824 6  -1263583.41121        16.250           0.781
  21738825.780   -13538047.676 6  -1163186.28721        12.000           0.375
  21723909.960   -12081441.826 5  -1990123.27621        10.750           0.406
 91  5 20 19  1 14.9940000  0  5G18G19G11G16G 6
  20666801.924     -447088.604 6    331137.41021        19.250           1.219
  19332636.619    -7496510.692 6   -666451.69322        17.750           1.688
  21521336.893   -15110260.358 6  -1295498.36521        16.250           0.719
  21731873.924   -13574564.849 6  -1191641.25421        12.000           0.500
  21711213.471   -12148175.702 5  -2042123.63221        10.750           0.438
 91  5 20 19  1 29.9940000  0  5G18G19G11G16G 6
  20668818.190     -436496.810 6    339390.66821        19.000           1.375
  19328564.557    -7517907.903 6   -683124.85622        17.750           1.875
  21513569.104   -15151073.026 6  -1327300.43121        16.250           0.844
  21724955.158   -13610948.358 6  -1219992.05221        12.500           0.563
  21698519.447   -12214895.074 5  -2094112.69521        11.000           0.375
 91  5 20 19  1 44.9940000  0  5G18G19G11G16G 6
  20670848.088     -425829.469 6    347702.79521        18.750           1.219
  19324501.986    -7539250.622 6   -699755.55722        17.750           1.875
  21505832.924   -15191735.812 6  -1358985.71421        16.500           0.875
  21718058.604   -13647193.627 6  -1248235.14521        12.750           0.375
  21685827.611   -12281593.374 5  -2146085.34121        11.250           0.438
 91  5 20 19  1 59.9940000  0  5G18G19G11G16G 6
  20672891.494     -415089.306 6    356071.66121        18.500           1.188
  19320452.674    -7560541.308 6   -716345.71922        17.750           1.844
  21498123.338   -15232251.139 6  -1390556.08621        16.500           0.813
  21711185.768   -13683302.837 6  -1276372.21921        13.000           0.406
  21673137.283   -12348273.112 5  -2198043.51521        11.000           0.313
 91  5 20 19  2 14.9940000  0  5G18G19G11G16G 6
  20674950.377     -404273.727 6    364499.30121        18.500           1.063
  19316410.580    -7581777.449 6   -732893.37522        18.000           1.719
  21490442.283   -15272616.196 6  -1422009.35421        16.500           0.750
  21704339.588   -13719273.754 6  -1304401.52921        12.250           0.531
  21660453.065   -12414931.831 5  -2249985.30721        11.250           0.375
 91  5 20 19  2 29.9940000  0  5G18G19G11G16G 6
  20677024.244     -393375.109 6    372991.65321        18.750           1.156
  19312378.580    -7602951.034 6   -749392.28622        18.750           1.781
  21482790.986   -15312822.992 6  -1453339.31721        16.500           0.781
  21697518.947   -13755098.427 5  -1332316.87921        11.750           0.344
  21647772.229   -12481561.405 5  -2301904.40121        11.250           0.469
 91  5 20 19  2 44.9940000  0  5G18G19G11G16G 6
  20679112.760     -382404.039 6    381540.45621        18.750           1.031
  19308361.940    -7624072.106 6   -765850.27822        18.000           1.563
  21475167.752   -15352881.532 6  -1484553.74621        16.750           0.625
  21690728.744   -13790786.894 5  -1360126.09221        11.250           0.406
  21635096.393   -12548172.021 5  -2353808.70121        11.000           0.500
 91  5 20 19  2 59.9940000  0  5G18G19G11G16G 6
  20681215.479     -371354.993 6    390150.01721        18.500           1.031
  19304353.955    -7645134.823 6   -782262.79922        17.250           1.719
  21467574.338   -15392785.811 6  -1515647.96921        17.000           0.719
  21683964.971   -13826333.490 5  -1387824.76421        11.500           0.500
  21622423.541   -12614758.019 5  -2405693.83321        11.000           0.500
 91  5 20 19  3 14.9940000  0  5G18G19G11G16G 6
  20683331.791     -360229.374 6    398819.24921        18.500           1.281
  19300354.971    -7666140.527 6   -798630.89722        17.750           1.938
  21460009.979   -15432537.223 6  -1546623.09921        17.250           0.844
  21677229.260   -13861739.781 5  -1415414.10021        11.500           0.469
  21609757.369   -12681320.690 5  -2457560.78921        11.250           0.469
 91  5 20 19  3 29.9940000  0  5G18G19G11G16G 6
  20685464.877     -349023.594 6    407550.92921        18.250           0.938
  19296372.002    -7687085.626 6   -814951.76622        17.500           1.500
  21452475.338   -15472131.896 6  -1577476.07221        17.750           0.688
  21670519.791   -13897002.114 5  -1442891.27821        11.500           0.438
  21597097.752   -12747856.326 5  -2509406.67921        11.000           0.344
 91  5 20 19  3 44.9940000  0  5G18G19G11G16G 6
  20687610.900     -337739.699 6    416343.48121        18.250           0.969
  19292395.643    -7707971.974 6   -831226.86022        18.000           1.563
  21444971.486   -15511571.683 6  -1608208.36521        17.500           0.719
  21663834.924   -13932122.418 5  -1470257.78721        11.500           0.313
  21584439.354   -12814366.802 5  -2561232.97421        11.000           0.344
 91  5 20 19  3 59.9940000  0  5G18G19G11G16G 6
  20689773.252     -326378.533 6    425196.24921        18.250           0.969
  19288434.471    -7728800.179 6   -847456.63622        17.250           1.563
  21437495.479   -15550857.028 6  -1638820.30821        17.500           0.625
  21657178.807   -13967101.398 5  -1497514.14721        11.250           0.313
  21571788.815   -12880852.863 5  -2613040.23721        10.750           0.438
 91  5 20 19  4 14.9940000  0  5G18G19G11G16G 6
  20691950.682     -314937.906 6    434110.94921        18.500           1.094
  19284481.400    -7749567.462 6   -863638.95222        18.250           1.625
  21430048.057   -15589985.097 6  -1669309.69421        17.000           0.625
  21650551.182   -14001936.039 5  -1524658.04621        11.500           0.375
  21559142.690   -12947311.634 5  -2664826.23521        10.500           0.406
 91  5 20 19  4 29.9940000  0  5G18G19G11G16G 6
  20694141.244     -303426.085 6    443081.11321        18.750           1.031
  19280535.963    -7770282.022 6   -879780.17522        18.750           1.656
  21422630.963   -15628964.118 6  -1699682.94021        17.000           0.813
  21643947.940   -14036634.828 5  -1551696.05621        11.000           0.250
  21546498.072   -13013751.492 5  -2716597.50421        10.500           0.344
 91  5 20 19  4 44.9940000  0  5G18G19G11G16G 6
  20696345.822     -291839.385 6    452109.62021        19.000           0.844
  19276607.244    -7790939.792 6   -895877.16421        17.750           1.313
  21415242.588   -15667789.916 6  -1729936.80221        17.000           0.656
  21637371.065   -14071193.941 5  -1578625.25821        10.750           0.313
  21533858.861   -13080168.382 5  -2768350.85421        10.500           0.344
 91  5 20 19  4 59.9940000  0  5G18G19G11G16G 6
  20698564.346     -280180.883 6    461194.08721        18.750           1.063
  19272685.315    -7811543.653 6   -911932.13422        18.750           1.500
  21407882.377   -15706465.317 6  -1760073.46821        16.500           0.844
  21630819.908   -14105616.515 5  -1605448.06721        10.750           0.313
  21521223.627   -13146565.327 5  -2820088.67821        10.500           0.313
 91  5 20 19  5 14.9940000  0  5G18G19G11G16G 6
  20700798.471     -268446.638 6    470337.57021        18.750           0.875
  19268776.994    -7832089.464 6   -927941.86322        18.000           1.563
  21400552.244   -15744986.069 6  -1790089.62021        17.250           0.750
  21624296.893   -14139898.162 5  -1632161.05921        11.000           0.375
  21508596.104   -13212938.139 5  -2871807.70421        11.250           0.438
 91  5 20 19  5 29.9940000  0  5G18G19G11G16G 6
  20703046.002     -256632.947 6    479542.96121        18.500           0.781
  19264878.041    -7852573.354 6   -943903.35521        18.750           1.438
  21393252.611   -15783348.258 6  -1819982.23321        17.000           0.688
  21617800.994   -14174035.171 5  -1658761.35921        11.750           0.344
  21495969.502   -13279283.003 5  -2923504.94021        11.250           0.344
 91  5 20 19  5 44.9940000  0  5G18G19G11G16G 6
  20705307.979     -244746.386 6    488805.13121        18.500           0.813
  19260992.510    -7873001.656 6   -959821.52621        18.250           1.125
  21385981.963   -15821558.067 6  -1849756.10221        16.750           0.531
  21611332.104   -14208033.900 5  -1685253.91121        11.750           0.313
  21483352.979   -13345606.152 5  -2975185.25521        11.250           0.313
 91  5 20 19  5 59.9940000  0  5G18G19G11G16G 6
  20707583.846     -232788.069 6    498123.22221        18.250           0.938
  19257113.760    -7893375.172 6   -975697.00422        18.500           1.594
  21378739.885   -15859616.195 6  -1879411.77321        17.000           0.688
  21604887.963   -14241895.325 5  -1711639.45421        11.750           0.375
  21470733.424   -13411908.508 5  -3026849.34621        11.250           0.406
 91  5 20 19  6 14.9940000  0  5G18G19G11G16G 6
  20709874.643     -220752.707 6    507501.35021        18.000           1.000
  19253249.838    -7913688.047 6   -991525.22822        18.000           1.563
  21371526.416   -15897516.848 6  -1908944.72821        16.750           0.813
  21598475.330   -14275613.983 6  -1737913.75921        12.500           0.406
  21458121.791   -13478184.267 5  -3078492.74521        11.250           0.500
 91  5 20 19  6 29.9940000  0  5G18G19G11G16G 6
  20712178.690     -208644.885 6    516935.92021        17.750           1.000
  19249396.424    -7933945.047 6  -1007309.92122        17.750           1.750
  21364343.932   -15935264.592 6  -1938358.53921        17.500           0.781
  21592081.268   -14309194.387 5  -1764080.34021        11.750           0.438
  21445509.979   -13544438.225 5  -3130119.16421        10.750           0.500
 91  5 20 19  6 44.9940000  0  5G18G19G11G16G 6
  20714496.440     -196464.627 6    526426.94921        17.750           0.906
  19245550.619    -7954145.863 6  -1023050.82722        18.250           1.531
  21357191.471   -15972859.056 6  -1967652.92321        17.250           0.625
  21585717.900   -14342636.426 5  -1790139.09821        11.250           0.469
  21432909.572   -13610669.883 5  -3181728.18821        11.250           0.406
 91  5 20 19  6 59.9940000  0  5G18G19G11G16G 6
  20716827.565     -184210.900 6    535975.22521        17.500           0.813
  19241716.979    -7974289.269 6  -1038746.99521        18.250           1.219
  21350066.275   -16010299.095 6  -1996826.97021        16.500           0.500
  21579381.205   -14375938.953 5  -1816089.14221        11.500           0.313
  21420306.361   -13676878.357 5  -3233319.15421        11.000           0.625
 91  5 20 19  7 14.9940000  0  5G18G19G11G16G 6
  20719173.072     -171883.296 6    545581.07921        17.250           0.938
  19237895.791    -7994374.501 6  -1054397.83822        17.750           1.625
  21342970.213   -16047583.721 6  -2025879.90821        17.750           0.906
  21573070.940   -14409101.225 5  -1841929.88921        11.250           0.313
  21407715.971   -13743062.722 5  -3284891.32521        11.500           0.500
 91  5 20 19  7 29.9940000  0  5G18G19G11G16G 6
  20721532.760     -159485.177 6    555241.85621        17.500           0.906
  19234083.143    -8014404.841 6  -1070005.90522        18.250           1.844
  21335903.666   -16084716.093 6  -2054814.21421        17.000           0.719
  21566786.229   -14442126.692 5  -1867664.05121        11.500           0.469
  21395126.674   -13809226.299 6  -3336447.31121        12.250           0.375
 91  5 20 19  7 44.9940000  0  5G18G19G11G16G 6
  20723904.908     -147017.658 6    564956.72321        17.250           1.031
  19230283.010    -8034380.898 6  -1085571.67722        18.250           1.906
  21328867.260   -16121696.978 6  -2083630.47821        17.500           0.844
  21560527.299   -14475016.022 5  -1893292.12721        11.500           0.375
  21382536.338   -13875369.826 6  -3387987.67621        12.250           0.406
 91  5 20 19  7 59.9940000  0  5G18G19G11G16G 6
  20726292.119     -134477.754 6    574727.99321        17.250           0.906
  19226491.729    -8054299.767 6  -1101092.88522        18.500           1.594
  21321858.252   -16158523.274 6  -2112326.29621        17.500           0.656
  21554296.424   -14507766.322 5  -1918811.87121        11.500           0.406
  21369955.791   -13941490.183 5  -3439509.96021        11.750           0.344
 91  5 20 19  8 14.9940000  0  5G18G19G11G16G 6
  20728692.291     -121867.224 6    584554.29221        17.250           1.000
  19222713.604    -8074162.726 6  -1116570.52622        18.250           1.813
  21314881.877   -16195196.207 6  -2140902.61021        18.000           0.813
  21548088.932   -14540379.054 5  -1944224.41321        11.500           0.313
  21357382.096   -14007588.808 5  -3491015.33021        11.750           0.469
 91  5 20 19  8 29.9940000  0  5G18G19G11G16G 6
  20731104.682     -109184.665 6    594436.72521        16.750           0.844
  19218943.994    -8093968.201 6  -1132003.37421        18.250           1.469
  21307930.588   -16231714.178 6  -2169358.16021        18.250           0.781
  21541909.268   -14572852.867 5  -1969528.70521        11.250           0.344
  21344806.775   -14073664.166 5  -3542502.56721        11.500           0.469
 91  5 20 19  8 44.9940000  0  5G18G19G11G16G 6
  20733533.190      -96432.186 6    604373.62721        17.250           0.938
  19215184.447    -8113717.921 6  -1147392.78422        18.250           1.875
  21301010.627   -16268078.866 6  -2197694.27721        18.250           0.813
  21535756.924   -14605189.318 5  -1994725.98221        11.250           0.375
  21332235.213   -14139718.121 5  -3593973.12521        11.250           0.531
 91  5 20 19  8 59.9940000  0  5G18G19G11G16G 6
  20735971.400      -83611.388 6    614363.76621        17.000           1.063
  19211434.736    -8133413.297 6  -1162739.84122        18.750           2.000
  21294120.768   -16304291.691 6  -2225912.04421        17.500           0.875
  21529630.127   -14637390.317 5  -2019817.71021        11.750           0.438
  21319667.275   -14205752.103 5  -3645428.11821        11.000           0.375
 91  5 20 19  9 14.9940000  0  5G18G19G11G16G 6
  20738425.377      -70718.763 6    624409.87921        17.000           0.906
  19207701.221    -8153050.565 6  -1178041.62022        18.250           1.719
  21287259.291   -16340349.034 6  -2254008.65921        18.250           0.781
  21523530.994   -14669452.022 5  -2044800.88921        11.500           0.313
  21307103.002   -14271762.429 5  -3696864.65421        11.250           0.469
 91  5 20 19  9 29.9940000  0  5G18G19G11G16G 6
  20740891.986      -57758.404 6    634508.76121        17.250           0.844
  19203972.119    -8172633.821 6  -1193301.32122        18.500           1.719
  21280427.385   -16376254.732 6  -2281987.11121        18.250           0.813
  21517452.432   -14701378.620 5  -2069678.79421        11.500           0.406
  21294547.080   -14337753.175 5  -3748285.99121        11.000           0.500
 91  5 20 19  9 44.9940000  0  5G18G19G11G16G 6
  20743370.822      -44726.456 6    644663.44321        17.500           0.969
  19200259.588    -8192158.621 6  -1208515.45722        18.250           1.750
  21273623.572   -16412004.240 6  -2309843.86421        18.000           0.844
  21511406.963   -14733165.786 5  -2094448.02321        11.750           0.438
  21281991.322   -14403719.778 5                        11.250
 91  5 20 19  9 59.9940000  0  5G18G19G11G16G 6
  20745864.752      -31625.304 6    654872.04221        17.500           1.125
  19196552.955    -8211627.089 6  -1223685.70622        18.500           1.781
  21266848.440   -16447599.764 6  -2337580.64921        17.000           0.813
  21505380.697   -14764815.803 5  -2119110.40621        11.250           0.531
  21269444.830   -14469664.524 5                        11.250
 91  5 20 19 10 14.9940000  0  5G18G19G11G16G 6
  20748371.604      -18452.248 6    665136.66521        17.250           1.000
  19192861.049    -8231036.266 6  -1238809.75122        18.000           1.813
  21260106.330   -16483038.279 6  -2365195.05921        18.000           0.969
  21499384.822   -14796325.969 5  -2143663.81421        11.750           0.375
  21256905.260   -14535584.457 5                        11.750
 91  5 20 19 10 29.9940000  0  5G18G19G11G16G 6
  20750892.174       -5206.643 6    675457.83121        17.250           1.156
  19189178.557    -8250385.293 6  -1253886.93022        18.000           1.813
  21253392.721   -16518318.948 6  -2392686.49921        17.000           0.813
  21493416.221   -14827695.411 5  -2168107.57721        11.750           0.469
  21244369.346   -14601478.788 6        -0.23831        12.000           0.563
 91  5 20 19 10 44.9940000  0  5G18G19G11G16G 6
  20753424.588        8106.227 6    685831.40421        16.750           1.063
  19185506.010    -8269679.300 6  -1268921.23822        18.250           1.844
  21246708.018   -16553446.750 6  -2420058.81221        17.500           0.844
  21487473.361   -14858929.414 6  -2192445.77621        12.000           0.469
  21231832.979   -14667352.631 5    -51330.44221        11.000           0.594
 91  5 20 19 10 59.9940000  0  5G18G19G11G16G 6
  20755970.986       21486.756 6    696257.69721        16.250           0.969
  19181845.322    -8288917.577 6  -1283912.11222        18.250           1.719
  21240051.400   -16588421.168 6  -2447311.59621        17.500           0.781
  21481554.588   -14890027.517 5  -2216678.11021        11.750           0.344
  21219296.447   -14733205.366 5   -102644.21021        11.250           0.531
 91  5 20 19 11 14.9940000  0  5G18G19G11G16G 6
  20758530.775       34934.188 6    706736.12321        16.250           0.906
  19178195.900    -8308100.623 6  -1298859.95621        18.250           1.469
  21233425.838   -16623242.538 6  -2474445.13121        18.000           0.781
  21475661.846   -14920990.240 6  -2240804.92021        12.000           0.438
  21206764.940   -14799037.520 5   -153941.96621        11.250           0.469
 91  5 20 19 11 29.9940000  0  5G18G19G11G16G 6
  20761101.775       48450.513 6    717268.23421        16.000           0.969
  19174555.252    -8327226.413 6  -1313763.17722        18.250           1.594
  21226828.940   -16657908.602 6  -2501457.64121        18.000           0.719
  21469797.291   -14951815.194 6  -2264824.37921        12.250           0.406
  21194246.143   -14864846.852 5   -205221.90121        11.750           0.438
 91  5 20 19 11 44.9940000  0  5G18G19G11G16G 6
  20763687.322       62034.643 6    727853.17821        16.000           0.938
  19170927.174    -8346295.890 6  -1328622.52522        18.000           1.594
  21220262.049   -16692420.306 6  -2528349.88321        18.250           0.719
  21463956.291   -14982503.886 6  -2288737.66921        12.250           0.469
  21181728.549   -14930634.249 6   -256484.73121        12.000           0.625
 91  5 20 19 11 59.9940000  0  5G18G19G11G16G 6
  20766286.002       75686.244 6    738490.69621        15.750           1.000
  19167307.104    -8365308.879 6  -1343437.85622        18.000           1.500
  21213724.416   -16726777.648 6  -2555121.83021        18.750           0.719
  21458143.893   -15013056.296 5  -2312544.78021        11.750           0.406
  21169210.221   -14996400.032 6   -307730.77421        12.000           0.531
 91  5 20 19 12 14.9940000  0  5G18G19G11G16G 6
  20768895.025       89402.842 6    749178.84921        15.250           0.375
  19163701.377    -8384267.320 6  -1358210.68421        17.250           0.500
  21207214.057   -16760982.430 6  -2581774.89821        18.000           0.125
  21452355.807   -15043474.463 6  -2336247.27321        12.000           0.094
  21156705.221   -15062145.954 6   -358961.34221        12.000           0.031
 91  5 20 19 12 29.9930000  0  5G18G19G11G16G 6
  20771518.458      103184.421 6    759917.65521        15.500           0.781
  19160103.263    -8403168.969 6  -1372939.26622        18.250           1.594
  21200736.435   -16795031.389 6  -2608306.57521        18.500           0.719
  21446589.505   -15073755.864 5  -2359843.18621        11.750           0.438
  21144196.153   -15127866.633 6   -410172.15821        12.750           0.531
 91  5 20 19 12 44.9930000  0  5G18G19G11G16G 6
  20774154.216      117034.457 6    770709.80621        15.500           0.969
  19156517.521    -8422014.695 6  -1387624.24922        18.000           1.719
  21194286.067   -16828927.272 6  -2634718.95621        18.250           0.875
  21440855.380   -15103902.558 5  -2383334.15421        11.500           0.406
  21131695.802   -15193569.069 6   -461368.79621        12.500           0.625
 91  5 20 19 12 59.9930000  0  5G18G19G11G16G 6
  20776803.208      130951.885 6    781554.46221        15.750           0.875
  19152943.388    -8440803.025 6  -1402264.52622        17.500           1.531
  21187865.786   -16862667.668 6  -2661010.17321        18.500           0.781
  21435141.208   -15133912.516 5  -2406718.55021        11.000           0.406
  21119190.833   -15259248.832 5   -512547.78521        11.750           0.594
 91  5 20 19 13 14.9930000  0  5G18G19G11G16G 6
  20779464.052      144935.436 6    792450.64921        15.750           0.938
  19149378.786    -8459534.667 6  -1416860.63421        18.000           1.406
  21181473.982   -16896253.489 6  -2687180.94621        18.500           0.813
  21429456.052   -15163786.683 5  -2429997.16821        10.750           0.406
  21106702.177   -15324906.843 5   -563709.81721        11.750           0.469
 91  5 20 19 13 29.9930000  0  5G18G19G11G16G 6
  20782138.646      158991.362 6    803403.22521        15.250           0.906
  19145822.802    -8478203.323 6  -1431407.65022        18.750           1.688
  21175112.536   -16929678.244 6  -2713226.21421        18.750           0.844
  21423801.169   -15193518.893 5  -2453165.15821        11.500           0.406
  21094208.825   -15390536.648 6   -614849.88321        12.000           0.563
 91  5 20 19 13 44.9930000  0  5G18G19G11G16G 6
  20784826.122      173112.598 6    814406.69321        15.500           0.969
  19142284.294    -8496815.934 6  -1445910.99622        18.250           1.750
  21168782.958   -16962948.839 6  -2739151.35521        19.000           0.938
  21418165.450   -15223116.346 5  -2476228.13521        10.750           0.375
  21081726.458   -15456145.243 6   -665973.39421        12.000           0.625
 91  5 20 19 13 59.9930000  0  5G18G19G11G16G 6
  20787526.567      187302.357 6    825463.54221        14.750           0.063
  19138752.942    -8515368.698 6  -1460367.73421        17.250           0.094
  21162481.177   -16996061.477 6  -2764953.42821        17.750           0.031
  21412561.122   -15252575.205 5  -2499183.12521        10.250           0.031
  21069247.357   -15521728.920 6   -717077.52021        12.000           0.031
 91  5 20 19 14 14.9930000  0  5G18G19G11G16G 6
  20790240.755      201559.695 6    836573.04421        15.000           0.750
  19135235.310    -8533862.335 6  -1474778.36821        18.000           0.406
  21156210.919   -17029016.919 6  -2790632.98921        18.000           0.250
  21406979.677   -15281896.346 5                        10.500
  21056766.583   -15587288.404 6   -768162.77421        12.250           0.438
 91  5 20 19 14 29.9930000  0  5G18G19G11G16G 6
  20792965.497      215884.858 6    847735.42221        15.000           0.250
  19131727.536    -8552296.529 6                        17.500
  21149969.286   -17061814.765 6                        17.500
  21401424.052   -15311079.536 5                        10.250
  21044296.802   -15652823.389 6                        12.750
 91  5 20 19 14 44.9930000  0  5G18G19G11G16G 6
  20795704.357      230277.081 6    858950.06921        15.250           0.938
  19128230.224    -8570671.853 6                        18.250
  21143756.669   -17094455.493 6                        17.750
  21395902.435   -15340125.502 5                        11.000
  21031835.841   -15718334.310 6                        13.250
 91  5 20 19 14 59.9930000  0  5G18G19G11G16G 6
  20798456.091      244733.900 6    870215.02321        15.000           0.750
  19124741.325    -8588990.261 6                        18.500
  21137575.591   -17126941.071 6                        18.500
  21390400.052   -15369036.345 5                        10.750
  21019375.325   -15783823.185 6                        13.000
 91  5 20 19 15 14.9930000  0  5G18G19G11G16G 6
  20801218.942      259254.988 6    881530.06421        15.250           0.875
  19121269.239    -8607251.895 6        -0.09132        17.750           1.750
  21131423.763   -17159271.772 6        -0.25731        18.000           0.719
  21384923.560   -15397812.416 5        -0.16431        10.750           0.406
  21006917.521   -15849290.335 6        -0.37731        13.750           0.656
 91  5 20 19 15 29.9930000  0  5G18G19G11G16G 6
  20803994.442      273841.254 6    892895.88621        14.750           0.063
  19117805.411    -8625455.635 6    -14184.84621        16.250           0.063
  21125300.192   -17191446.537 6    -25071.51821        17.250           0.031
  21379477.294   -15426453.231 5    -22317.72121        11.250           0.031
  20994460.567   -15914734.652 6    -50995.87621        12.750           0.031
 91  5 20 19 15 44.9930000  0  5G18G19G11G16G 6
  20806782.114      288492.506 6    904312.33621        15.250           0.063
  19114352.661    -8643601.317 6    -28324.39321        17.500           0.188
  21119208.255   -17223465.123 6                        18.000
  21374048.638   -15454958.331 5    -44529.52121        10.500           0.063
  20982011.880   -15980155.992 6   -101973.51121        13.000           0.375
 91  5 20 19 15 59.9930000  0  5G18G19G11G16G 6
  20809583.333      303208.869 6    915779.54721        15.500           0.969
  19110911.739    -8661688.664 6    -42418.39122        17.750           1.719
  21113145.419   -17255327.327 6                        18.000
  21368652.567   -15483327.346 5    -66635.29721        11.250           0.406
  20969565.325   -16045554.017 6                        13.000
 91  5 20 19 16 14.9930000  0  5G18G19G11G16G 6
  20812395.192      317984.867 6    927293.21721        15.500           0.875
  19107479.747    -8679722.531 6    -56470.78522        18.000           1.781
  21107110.107   -17287038.173 6                        18.250
  21363281.232   -15511565.596 5    -88639.17121        11.250           0.438
  20957124.052   -16110933.871 6                        13.000
 91  5 20 19 16 29.9930000  0  5G18G19G11G16G 6
  20815219.724      332827.110 6    938858.49521        15.500           0.938
  19104059.935    -8697696.140 6    -70476.21222        17.250           1.813
  21101106.552   -17318590.662 6        -0.34731        19.000           0.813
  21357932.724   -15539666.495 5   -110536.01821        11.500           0.313
  20944690.208   -16176288.624 6        -0.44731        13.250           0.688
 91  5 20 19 16 44.9930000  0  5G18G19G11G16G 6
  20818057.161      347735.991 6    950475.71121        15.500           0.938
  19100649.161    -8715609.316 6    -84434.55222        17.750           1.813
  21095131.841   -17349984.487 6    -24463.06121        18.750           0.844
  21352610.427   -15567629.898 5   -132325.70521        11.250           0.438
  20932261.505   -16241617.993 6    -50906.37221        13.500           0.594
 91  5 20 19 16 59.9930000  0  5G18G19G11G16G 6
  20820906.013      362708.102 6    962142.18621        15.250           0.781
  19097249.708    -8733465.014 6    -98348.10522        19.000           1.875
  21089188.099   -17381222.705 6    -48804.53021        18.500           0.813
  21347313.130   -15595458.934 5   -154010.70721        11.000           0.406
  20919830.442   -16306924.956 6   -101794.85621        13.000           0.688
 91  5 20 19 17 14.9930000  0  5G18G19G11G16G 6
  20823766.294      377739.093 6    973854.53621        15.250           0.688
  19093864.544    -8751267.164 6   -112219.92722        18.000           1.688
  21083273.450   -17412309.336 6    -73027.88421        18.500           0.813
  21342043.052   -15623157.538 5   -175594.08521        11.250           0.406
  20907400.942   -16372213.480 6   -152668.99121        13.000           0.563
 91  5 20 19 17 29.9930000  0  5G18G19G11G16G 6
  20826638.833      392835.425 6    985617.81321        15.500           0.688
  19090486.349    -8769009.109 6   -126044.83722        18.750           1.656
  21077386.271   -17443237.657 6    -97127.86621        18.500           0.813
  21336798.130   -15650719.573 5   -197071.01821        10.750           0.375
  20894981.294   -16437476.994 6   -203523.63621        12.750           0.688
 91  5 20 19 17 44.9930000  0  5G18G19G11G16G 6
  20829521.669      407990.189 6                        14.750
  19087122.200    -8786697.653 6                        17.000
  21071529.396   -17474014.525 6                        18.250
  21331578.880   -15678151.819 5                        10.750
  20882569.716   -16502722.241 6                        12.750
 91  5 20 19 17 59.9930000  0  5G18G19G11G16G 6
  20832418.364      423207.691 6                        15.500
  19083765.224    -8804328.025 6                        18.000
  21065703.513   -17504635.214 6                        18.000
  21326382.935   -15705449.710 5                        11.250
  20870158.278   -16567944.650 6                        13.000
 91  5 20 19 18 14.9930000  0  5G18G19G11G16G 6
  20835327.341      438485.870 6                        15.250
  19080422.005    -8821902.013 6                        17.500
  21059904.849   -17535101.468 6                        18.500
  21321212.028   -15732615.258 5                        10.750
  20857746.122   -16633145.884 6                        13.000
 91  5 20 19 18 29.9930000  0  5G18G19G11G16G 6
  20838244.278      453824.036 6                        15.250
  19077086.966    -8839420.103 6        -0.12632        17.750           1.688
  21054137.372   -17565413.889 6        -0.14031        18.250           0.781
  21316068.419   -15759649.013 5        -0.27731        10.750           0.313
  20845348.294   -16698326.494 6        -0.28431        13.000           0.500
 91  5 20 19 18 44.9930000  0  5G18G19G11G16G 6
  20841173.614      469216.291 6        -0.14331        15.000           0.750
  19073765.052    -8856887.915 6    -13611.42622        17.250           1.750
  21048398.099   -17595578.194 6    -23504.77721        18.750           0.938
  21310950.005   -15786556.658 5    -20967.32021        10.750           0.344
  20832942.380   -16763492.179 6    -50778.68421        13.000           0.656
 91  5 20 19 18 59.9930000  0  5G18G19G11G16G 6
  20844115.271      484673.671 6     12044.46021        14.750           0.594
  19070453.388    -8874294.190 6    -27174.78021        17.000           1.469
  21042687.286   -17625582.832 6    -46885.02021        19.000           0.688
  21305853.841   -15813327.067 5    -41827.41621        10.500           0.344
  20820552.192   -16828631.507 6   -101536.56021        13.250           0.500
 91  5 20 19 19 14.9930000  0  5G18G19G11G16G 6
  20847068.294      500191.185 6     24135.92621        15.000           0.750
  19067151.419    -8891643.508 6    -40693.74922        17.500           1.813
  21037006.380   -17655432.692 6    -70144.64321        19.000           0.938
  21300785.974   -15839965.242 5    -62584.46621        10.250           0.500
  20808155.919   -16893749.262 6   -152277.62121        13.000           0.594
 91  5 20 19 19 29.9930000  0  5G18G19G11G16G 6
  20850033.403      515768.031 6     36273.62121        14.750           0.719
  19063859.380    -8908936.252 6    -54168.64622        18.250           1.688
  21031356.466   -17685128.128 6    -93283.95021        18.750           0.719
  21295742.403   -15866471.922 5    -83239.06821        10.500           0.375
  20795771.888   -16958845.939 6   -203002.25821        13.000           0.531
 91  5 20 19 19 44.9930000  0  5G18G19G11G16G 6
  20853009.435      531403.056 6     48456.64721        14.500           0.656
  19060580.935    -8926173.436 6    -67600.23322        17.750           1.594
  21025734.325   -17714670.207 6   -116303.73621        18.750           0.781
  21290728.575   -15892848.235 5   -103792.08821        11.500           0.438
  20783384.357   -17023922.411 6   -253711.12121        13.250           0.469
 91  5 20 19 19 59.9930000  0  5G18G19G11G16G 6
  20855993.950      547095.908 6     60684.73921        14.250           0.594
  19057310.200    -8943355.157 6    -80988.60122        18.000           1.719
  21020142.528   -17744059.014 6   -139204.09021        19.000           0.813
  21285731.966   -15919093.976 5   -124243.34321        11.250           0.438
  20771011.388   -17088978.882 6   -304404.40421        13.500           0.563
 91  5 20 19 20 14.9930000  0  5G18G19G11G16G 6
  20858990.942      562842.018 6     72954.32821        14.000           0.688
  19054052.458    -8960485.935 6    -94337.29122        17.750           1.813
  21014576.669   -17773299.161 6   -161988.62821        19.250           0.844
  21280761.208   -15945214.112 5   -144596.75121        11.000           0.375
  20758633.255   -17154019.715 6   -355085.53121        13.250           0.531
 91  5 20 19 20 29.9930000  0  5G18G19G11G16G 6
  20861999.278      578650.736 6     85272.71221        14.000           0.719
  19050802.317    -8977555.903 6   -107638.57722        17.500           1.844
  21009044.005   -17802380.898 6   -184649.72121        19.250           0.750
  21275817.692   -15971199.420 5   -164845.07121        11.500           0.469
  20746256.997   -17219035.302 6   -405746.97021        13.250           0.594
 91  5 20 19 20 44.9930000  0  5G18G19G11G16G 6
  20865019.192      594519.738 6     97638.06121        14.000           0.813
  19047565.114    -8994567.379 6   -120894.30522        17.000           1.906
  21003539.927   -17831306.420 6   -207189.09121        19.250           0.938
  21270896.161   -15997052.043 5   -184990.01421        11.000           0.469
  20733888.794   -17284027.854 6   -456390.48421        13.250           0.625
 91  5 20 19 20 59.9930000  0  5G18G19G11G16G 6
  20868052.138      610452.121 6    110052.78921        13.750           0.719
  19044339.513    -9011516.730 6   -134101.61822        17.250           1.625
  20998066.075   -17860072.068 6   -229603.89821        18.750           0.750
  21266004.044   -16022768.442 5   -205028.82821        10.500           0.406
  20721528.528   -17348993.752 6   -507013.22421        13.500           0.531
 91  5 20 19 21 14.9930000  0  5G18G19G11G16G 6
  20871095.232      626446.504 6    122515.82921        13.500           0.813
  19041126.239    -9028404.960 6   -147261.29622        17.000           1.656
  20992620.591   -17888678.988 6   -251895.01021        18.250           0.750
  21261136.505   -16048349.851 5   -224962.44521        11.250           0.438
  20709172.755   -17413934.129 6   -557616.05221        14.000           0.594
 91  5 20 19 21 29.9930000  0  5G18G19G11G16G 6
  20874149.653      642498.265 6    135023.58221        13.250           0.781
  19037920.857    -9045236.472 6   -160376.78722        17.750           1.625
  20987206.239   -17917131.629 6   -274065.88821        19.000           0.750
  21256291.403   -16073800.862 5   -244794.43121        10.750           0.406
  20696817.567   -17478853.231 6   -608202.31921        14.500           0.563
 91  5 20 19 21 44.9930000  0  5G18G19G11G16G 6
  20877214.716      658607.942 6    147576.45821        13.000           0.844
  19034730.536    -9062010.757 6   -173447.66622        17.250           1.656
  20981823.583   -17945429.464 6   -296116.14421        19.000           0.781
  21251474.263   -16099121.084 5   -264524.51121        10.750           0.438
  20684467.286   -17543750.509 6   -658771.58321        14.500           0.563
 91  5 20 19 21 59.9930000  0  5G18G19G11G16G 6
  20880292.692      674776.707 6    160175.37221        13.000           0.750
  19031549.255    -9078726.151 6   -186472.67022        17.500           1.719
  20976468.419   -17973570.896 6   -318044.54021        18.750           0.844
  21246681.169   -16124309.127 5   -284151.60821        11.000           0.469
  20672120.521   -17608624.506 6   -709322.71621        13.500           0.531
 91  5 20 19 22 14.9930000  0  5G18G19G11G16G 6
  20883378.239      690999.573 6    172816.45221        12.750           0.656
  19028380.544    -9095387.170 6   -199455.30222        17.250           1.688
  20971141.997   -18001560.577 6   -339854.68021        18.500           0.688
  21241912.114   -16149369.694 5   -303679.35621        11.250           0.344
  20659779.185   -17673479.837 6   -759859.29721        13.500           0.438
 91  5 20 19 22 29.9930000  0  5G18G19G11G16G 6
  20886475.239      707275.751 6    185499.06921        12.500           0.563
  19025218.357    -9111994.670 6   -212396.23022        17.750           1.656
  20965842.888   -18029399.355 6   -361547.23821        18.250           0.719
  21237166.013   -16174303.535 5   -323108.36621        11.000           0.281
  20647443.560   -17738317.196 6   -810381.85121        14.500           0.531
 91  5 20 19 22 44.9930000  0  5G18G19G11G16G 6
  20889584.685      723613.604 6    198229.74521        12.500           0.719
  19022072.013    -9128539.912 6   -225288.64622        17.250           1.563
  20960575.810   -18057078.520 6   -383115.41721        18.500           0.688
  21232443.732   -16199102.300 5   -342432.12521        11.250           0.344
  20635111.669   -17803127.865 6   -860883.63021        14.250           0.500
 91  5 20 19 22 59.9930000  0  5G18G19G11G16G 6
  20892703.700      740004.793 6    211001.99321        12.500           0.625
  19018933.857    -9145030.777 6   -238138.69622        17.500           1.500
  20955338.028   -18084606.054 6   -404565.45121        18.250           0.688
  21227753.247   -16223774.364 5   -361657.14921        11.500           0.281
  20622779.333   -17867919.812 6   -911370.79521        14.000           0.469
 91  5 20 19 23 14.9930000  0  5G18G19G11G16G 6
  20895834.372      756452.319 6    223818.14021        12.750           0.750
  19015806.052    -9161464.271 6   -250944.03222        17.000           1.688
  20950129.247   -18111979.043 6   -425895.07121        18.000           0.844
  21223082.075   -16248316.695 5   -380781.08521        11.000           0.375
  20610456.067   -17932690.010 6   -961841.04921        14.000           0.531
 91  5 20 19 23 29.9930000  0  5G18G19G11G16G 6
  20898974.380      772957.419 6    236679.09721        12.750           0.688
  19012689.325    -9177838.849 6   -263703.49722        17.500           1.625
  20944949.716   -18139195.973 6   -447103.11921        17.500           0.750
  21218436.599   -16272727.928 5   -399802.94921        11.000           0.344
  20598134.060   -17997436.794 6  -1012293.07021        14.500           0.531
 91  5 20 19 23 44.9930000  0  5G18G19G11G16G 6
  20902125.521      789513.505 6    249579.87621        12.500           0.594
  19009584.661    -9194160.614 6   -276421.75921        17.250           1.344
  20939798.552   -18166262.959 6   -468194.26621        17.500           0.719
  21213811.942   -16297014.492 5   -418727.53721        10.500           0.344
  20585815.396   -18062166.454 6  -1062731.71221        14.750           0.375
 91  5 20 19 23 59.9920000  0  5G18G19G11G16G 6
  20905285.594      806116.443 6    262517.11221        12.250           0.656
  19006486.195    -9210431.180 6   -289100.12322        17.750           1.719
  20934676.859   -18193180.934 6   -489169.32621        17.750           0.656
  21209213.203   -16321177.708 5   -437556.07621        10.250           0.313
  20573503.477   -18126877.264 6  -1113155.63521        14.750           0.531
 91  5 20 19 24 14.9920000  0  5G18G19G11G16G 6
  20908453.859      822769.446 6    275493.36121        12.250           0.719
  19003401.883    -9226651.935 6   -301739.69522        17.500           1.813
  20929583.664   -18219952.830 6   -510030.55221        18.000           0.750
  21204640.375   -16345219.999 5   -456290.37821        10.250           0.344
  20561189.875   -18191577.122 6  -1163571.07121        14.250           0.563
 91  5 20 19 24 29.9920000  0  5G18G19G11G16G 6
  20911633.961      839475.857 6    288511.23621        12.500           0.656
  19000323.469    -9242816.725 6   -314335.66022        17.500           1.625
  20924516.102   -18246571.775 6   -530772.59321        18.250           0.813
  21200089.461   -16369134.932 5   -474925.43221        10.250           0.313
  20548878.547   -18256256.659 6  -1213970.67121        14.250           0.563
 91  5 20 19 24 44.9920000  0  5G18G19G11G16G 6
  20914824.797      856241.900 6    301575.56821        12.750           0.594
  18997262.016    -9258918.980 6   -326882.88022        17.000           1.750
  20919480.883   -18273031.573 6   -551390.63321        17.250           0.813
  21195566.070   -16392916.351 5   -493456.44921        11.000           0.313
  20536581.500   -18320909.583 6  -1264349.55221        15.250           0.500
 91  5 20 19 24 59.9920000  0  5G18G19G11G16G 6
  20918024.750      873056.241 6    314677.53721        12.750           0.500
  18994205.289    -9274969.673 6   -339389.93621        17.250           1.375
  20914474.586   -18299343.083 6   -571893.13021        17.000           0.563
  21191063.242   -16416575.415 5   -511892.14221        11.250           0.250
  20524278.336   -18385546.681 6  -1314716.06921        15.000           0.500
 91  5 20 19 25 14.9920000  0  5G18G19G11G16G 6
  20921234.445      889924.616 6    327821.59621        12.500           0.594
  18991164.203    -9290962.933 6   -351852.22121        17.250           1.438
  20909497.211   -18325500.399 6   -592275.44221        17.500           0.625
  21186587.297   -16440106.421 5   -530228.03221        11.500           0.313
  20511982.852   -18450162.055 6  -1365065.66421        14.750           0.531
 91  5 20 19 25 29.9920000  0  5G18G19G11G16G 6
  20924455.328      906847.105 6    341007.82921        12.500           0.656
  18988131.594    -9306898.246 6   -364269.35322        17.000           1.688
  20904548.422   -18351503.246 6   -612537.41721        17.750           0.875
  21182134.164   -16463508.838 5   -548463.72621        11.750           0.375
  20499688.922   -18514755.225 6  -1415397.97221        14.500           0.563
 91  5 20 19 25 44.9920000  0  5G18G19G11G16G 6
  20927684.680      923820.767 6    354233.92821        12.250           0.594
  18985109.781    -9322778.518 6   -376643.60822        17.250           1.719
  20899629.719   -18377354.601 6   -632681.35421        17.000           0.844
  21177702.563   -16486785.852 5   -566601.72221        11.750           0.375
  20487405.180   -18579329.168 6  -1465715.28221        15.000           0.531
 91  5 20 19 25 59.9920000  0  5G18G19G11G16G 6
  20930923.664      940841.556 6    367496.76321        12.250           0.656
  18982093.938    -9338607.262 6   -388977.69822        17.750           1.906
  20894737.805   -18403058.095 6   -652710.06621        17.500           0.938
  21173298.016   -16509941.448 5   -584645.08321        11.500           0.313
  20475116.391   -18643887.401 6  -1516020.35721        15.250           0.781
 91  5 20 19 26 14.9920000  0  5G18G19G11G16G 6
  20934172.391      957910.899 6    380797.42221        12.000           0.531
  18979095.531    -9354382.976 6   -401270.48022        17.000           1.625
  20889875.563   -18428612.291 6   -672622.45121        17.000           0.719
  21168912.922   -16532974.172 5   -602592.70321        11.000           0.406
  20462836.422   -18708428.455 6  -1566312.06121        14.250           0.688
 91  5 20 19 26 29.9920000  0  5G18G19G11G16G 6
  20937429.320      975031.852 5    394138.29221        11.750           0.563
  18976104.813    -9370102.349 6   -413519.35422        17.000           1.656
  20885042.641   -18454013.680 6   -692415.76321        17.250           0.750
  21164551.695   -16555880.898 5   -620442.16721        10.750           0.375
  20450557.563   -18772948.835 6  -1616587.64721        14.000           0.625
 91  5 20 19 26 44.9920000  0  5G18G19G11G16G 6
  20940699.024      992209.728 6    407523.52921        12.000           0.594
  18973125.805    -9385759.626 6   -425719.83822        17.750           1.813
  20880238.281   -18479256.832 6   -712085.77021        17.250           0.813
  21160219.492   -16578656.308 5   -638189.27821        10.500           0.375
  20438282.328   -18837442.986 6  -1666842.78321        14.250           0.688
 91  5 20 19 26 59.9920000  0  5G18G19G11G16G 6
  20943978.578     1009438.403 6    420948.34121        12.000           0.500
  18970157.055    -9401360.776 6   -437876.58522        17.500           1.688
  20875462.742   -18504347.730 6   -731637.13721        17.250           0.813
  21155912.070   -16601306.310 5   -655838.68821        10.750           0.344
  20426015.672   -18901916.722 6  -1717082.03521        15.500           0.594
 91  5 20 19 27 14.9920000  0  5G18G19G11G16G 6
  20947266.547     1026719.039 6    434413.62821        12.000           0.594
  18967198.594    -9416904.291 6   -449988.42822        17.250           1.813
  20870717.711   -18529284.934 6   -751068.73421        17.000           0.750
  21151624.305   -16623829.682 5   -673389.42621        10.500           0.313
  20413752.953   -18966368.627 6  -1767304.20621        15.000           0.500
 91  5 20 19 27 29.9920000  0  5G18G19G11G16G 6
  20950564.680     1044051.011 6    447918.95121        12.000           0.656
  18964250.570    -9432390.502 6   -462055.61622        18.250           1.875
  20866002.852   -18554068.923 6   -770380.94521        17.250           0.813
  21147362.242   -16646226.978 5   -690841.90821        11.000           0.406
  20401493.430   -19030799.143 6  -1817509.78721        16.000           0.719
 91  5 20 19 27 44.9920000  0  5G18G19G11G16G 6
  20953872.867     1061431.158 6    461461.80521        12.000           0.563
  18961314.500    -9447822.451 6   -474080.52822        17.250           1.781
  20861315.813   -18578702.722 6   -789576.12321        17.250           0.750
  21143122.945   -16668501.514 5   -708198.74921        10.750           0.375
  20389236.539   -19095211.039 6  -1867700.82921        16.000           0.500
 91  5 20 19 27 59.9920000  0  5G18G19G11G16G 6
  20957187.516     1078858.198 6    475041.20121        12.000           0.625
  18958390.555    -9463200.866 6   -486063.71822        17.000           1.750
  20856654.555   -18603187.371 6   -808655.07421        17.250           0.781
  21138907.258   -16690654.332 5   -725460.73221        10.250           0.406
  20376980.219   -19159605.466 6  -1917878.25221        15.000           0.594
 91  5 20 19 28 14.9920000  0  5G18G19G11G16G 6
  20960512.969     1096331.488 5    488656.60821        11.750           0.656
  18955471.516    -9478526.246 6   -498005.57522        17.250           1.813
  20852023.969   -18627523.333 6   -827618.18021        16.750           0.844
  21134714.359   -16712686.079 5   -742628.38921        10.500           0.469
  20364730.180   -19223982.715 6  -1968042.33021        14.750           0.656
 91  5 20 19 28 29.9920000  0  5G18G19G11G16G 6
  20963847.805     1113852.614 5    502309.28321        11.500           0.500
  18952568.000    -9493796.822 6   -509904.76422        17.000           1.500
  20847421.211   -18651708.938 6   -846464.12021        17.000           0.750
  21130544.750   -16734595.185 5   -759700.47721        10.250           0.469
  20352483.430   -19288341.080 6  -2018191.70121        14.750           0.531
 91  5 20 19 28 44.9920000  0  5G18G19G11G16G 6
  20967189.219     1131421.411 5    515999.14121        11.250           0.500
  18949671.094    -9509012.180 6   -521760.86522        17.000           1.531
  20842849.797   -18675743.819 6   -865192.60921        17.500           0.688
  21126396.563   -16756381.570 5   -776676.91821         9.750           0.344
  20340239.414   -19352680.170 6  -2068325.98321        14.500           0.563
 91  5 20 19 28 59.9920000  0  5G18G19G11G16G 6
  20970543.586     1149042.024 5    529729.34521        11.500           0.531
  18946788.539    -9524167.888 6   -533570.53021        16.750           1.406
  20838303.719   -18699623.620 6   -883800.25821        17.500           0.594
  21122276.188   -16778040.893 5   -793554.36321        10.000           0.313
  20328001.945   -19416995.436 6  -2118441.71921        14.500           0.594
 91  5 20 19 29 14.9920000  0  5G18G19G11G16G 6
  20973905.461     1166705.749 5                        11.250
  18943912.727    -9539272.757 6   -545340.62021        17.000           0.156
  20833786.500   -18723357.428 6                        16.500
  21118176.211   -16799582.460 5                         9.500
  20315763.180   -19481295.905 6                        14.000
 91  5 20 19 29 29.9920000  0  5G18G19G11G16G 6
  20977277.461     1184420.330 5                        11.750
  18941046.477    -9554318.693 6   -557064.67322        18.750           1.563
  20829299.899   -18746937.041 6                        17.000
  21114101.938   -16820997.934 5                        10.250
  20303529.922   -19545573.216 6                        13.000
 91  5 20 19 29 44.9920000  0  5G18G19G11G16G 6
  20980656.945     1202180.702 5                        11.750
  18938195.758    -9569310.288 6   -568746.46822        17.500           1.656
  20824840.742   -18770367.159 6                        17.000
  21110052.461   -16842292.406 5                        10.500
  20291303.399   -19609831.833 6                        15.250
 91  5 20 19 29 59.9920000  0  5G18G19G11G16G 6
  20984044.977     1219986.841 5        -0.00831        11.500           0.438
  18935352.094    -9584247.597 6   -580385.93822        17.750           1.719
  20820412.805   -18793647.910 6        -0.49931        17.000           0.656
  21106022.500   -16863466.007 5        -0.10131        10.000           0.406
  20279080.867   -19674072.246 6        -0.14031        15.500           0.781
 91  5 20 19 30 14.9920000  0  5G18G19G11G16G 6
  20987442.586     1237835.526 5     13907.90821        11.250           0.531
  18932520.914    -9599132.986 6   -591984.96122        17.250           1.875
  20816010.375   -18816781.944 6    -18027.03521        17.500           0.750
  21102013.234   -16884521.637 5    -16407.11921        10.000           0.344
  20266856.859   -19738296.743 6    -50045.19221        14.500           0.531
 91  5 20 19 30 29.9920000  0  5G18G19G11G16G 6
  20990847.820     1255737.144 5     27857.10121        11.250           0.531
  18929699.250    -9613956.041 6   -603535.40022        17.750           1.813
  20811636.633   -18839758.895 6    -35931.17221        17.250           0.781
  21098032.305   -16905449.036 5    -32714.25221        10.250           0.438
  20254639.109   -19802494.746 6   -100069.57421        15.000           0.719
 91  5 20 19 30 44.9920000  0  5G18G19G11G16G 6
  20994264.102     1273683.924 5     41841.46221        11.500           0.469
  18926889.469    -9628724.241 6   -615043.10122        17.250           1.688
  20807293.969   -18862586.360 6    -53718.81221        17.750           0.781
  21094072.789   -16926255.826 5    -48927.37921        10.250           0.313
  20242430.070   -19866673.944 6   -150079.28721        15.000           0.688
 91  5 20 19 30 59.9920000  0  5G18G19G11G16G 6
  20997688.320     1291680.042 5     55864.27821        11.500           0.531
  18924089.359    -9643433.412 6   -626504.81122        18.000           1.875
  20802979.289   -18885260.198 6    -71386.75621        17.250           0.750
  21090134.836   -16946938.039 5    -65043.43921        10.000           0.375
  20230220.774   -19930829.842 6   -200070.85121        14.750           0.625
 91  5 20 19 31 14.9920000  0  5G18G19G11G16G 6
  21001121.297     1309724.220 5     69924.54621        11.500           0.531
  18921303.516    -9658084.261 6   -637921.07122        17.250           1.938
  20798692.219   -18907781.214 6    -88935.61221        17.000           0.906
  21086223.641   -16967496.540 5    -81063.10721        10.000           0.375
  20218016.547   -19994963.448 6   -250045.00821        15.250           0.688
 91  5 20 19 31 29.9920000  0  5G18G19G11G16G 6
  21004564.742     1327814.149 5     84020.45421        11.750           0.406
  18918527.602    -9672678.883 6   -649293.51422        17.500           1.875
  20794436.641   -18930151.670 6   -106367.15621        17.000           0.750
  21082336.484   -16987933.695 5    -96988.21421        11.000           0.438
  20205814.859   -20059076.647 6   -300003.32921        14.750           0.656
 91  5 20 19 31 44.9920000  0  5G18G19G11G16G 6
  21008016.633     1345952.999 5     98154.48421        11.500           0.375
  18915759.250    -9687213.688 6   -660619.35122        17.250           1.719
  20790210.008   -18952368.089 6   -123678.68721        17.250           0.750
  21078472.219   -17008246.230 5   -112816.22721        11.250           0.344
  20193619.570   -20123165.977 6   -349943.06821        14.250           0.594
 91  5 20 19 31 59.9920000  0  5G18G19G11G16G 6
  21011474.875     1364135.007 5    112322.14121        11.500           0.375
  18913003.328    -9701694.174 6   -671902.87422        17.750           1.813
  20786009.438   -18974436.123 6   -140874.57821        16.750           0.750
  21074631.008   -17028440.238 5   -128551.87121        11.500           0.313
  20181424.742   -20187236.965 6   -399868.44621        14.500           0.719
 91  5 20 19 32 14.9920000  0  5G18G19G11G16G 6
  21014945.203     1382362.032 5    126524.86921        11.500           0.469
  18910259.922    -9716118.241 6   -683142.42222        17.750           1.594
  20781838.992   -18996353.764 6   -157953.28021        16.500           0.500
  21070809.516   -17048513.504 5   -144193.44321        11.000           0.406
  20169238.797   -20251287.574 6   -449777.96821        14.750           0.719
 91  5 20 19 32 29.9920000  0  5G18G19G11G16G 6
  21018422.149     1400632.167 5    140761.18921        11.250           0.406
  18907525.695    -9730487.527 6   -694339.28922        18.000           1.719
  20777694.227   -19018122.822 6   -174916.20321        16.500           0.750
  21067013.938   -17068468.087 5   -159742.51421        11.000           0.344
  20157054.102   -20315319.448 6   -499672.91121        15.000           0.688
 91  5 20 19 32 44.9920000  0  5G18G19G11G16G 6
  21021906.141     1418944.870 5    155030.68821        11.000           0.469
  18904801.203    -9744802.167 6   -705493.56822        17.500           1.781
  20773581.352   -19039743.574 6   -191763.55621        17.000           0.844
  21063238.984   -17088304.330 5   -175199.40421        10.500           0.313
  20144872.211   -20379332.572 6   -549553.19221        15.500           0.813
 91  5 20 19 32 59.9920000  0  5G18G19G11G16G 6
  21025398.750     1437298.415 5    169332.00621        10.750           0.500
  18902087.094    -9759063.964 6   -716606.67322        17.500           1.688
  20769497.328   -19061217.840 6   -208496.77521        16.500           0.656
  21059485.953   -17108024.197 5   -190565.59921        10.750           0.344
  20132696.195   -20443328.786 6   -599420.31721        15.750           0.781
 91  5 20 19 33 14.9920000  0  5G18G19G11G16G 6
  21028898.984     1455691.185 5    183663.88721        10.500           0.281
  18899383.859    -9773274.016 6   -727679.46622        17.000           1.594
  20765436.695   -19082546.838 6   -225116.79521        16.500           0.781
  21055754.703   -17127628.998 5   -205842.13321        10.000           0.094
  20120520.281   -20507309.273 6   -649275.21821        15.750           0.469
 91  5 20 19 33 29.9920000  0  5G18G19G11G16G 6
  21032406.109     1474121.913 5    198025.32721        10.500           0.438
  18896688.492    -9787433.342 6   -738712.72321        16.750           1.469
  20761404.313   -19103731.828 6   -241624.58521        16.500           0.656
  21052045.602   -17147120.200 5   -221030.13321        10.500           0.344
  20108346.274   -20571274.924 6   -699118.51221        16.000           0.719
 91  5 20 19 33 44.9920000  0  5G18G19G11G16G 6
  21035921.734     1492590.137 5    212416.01821        11.000           0.406
  18894003.406    -9801542.141 6   -749706.61922        17.000           1.719
  20757401.305   -19124773.017 6   -258020.32421        16.750           0.719
  21048359.516   -17166498.033 5   -236129.79421        10.750           0.406
  20096174.516   -20635226.008 6   -748950.55421        15.500           0.781
 91  5 20 19 33 59.9920000  0  5G18G19G11G16G 6
  21039442.938     1511101.238 5    226840.10521        11.000           0.500
  18891327.391    -9815594.800 6   -760656.76122        17.750           1.719
  20753426.664   -19145664.940 6   -274299.76221        17.250           0.938
  21044694.875   -17185757.110 5   -251136.92821        10.750           0.438
  20084010.891   -20699156.816 6   -798766.68821        15.500           0.844
 91  5 20 19 34 14.9920000  0  5G18G19G11G16G 6
  21042975.000     1529653.954 5    241296.61521        11.500           0.406
  18888665.906    -9829592.157 6   -771563.82222        16.750           1.688
  20749477.766   -19166408.595 6   -290463.68321        17.000           0.781
  21041053.984   -17204898.731 5   -266052.52521        10.750           0.406
  20071846.524   -20763068.166 6   -848567.69421        15.000           0.688
 91  5 20 19 34 29.9920000  0  5G18G19G11G16G 6
  21046514.258     1548256.296 5    255791.79721        11.000           0.406
  18886012.984    -9843525.987 6   -782421.37322        17.500           1.563
  20745561.453   -19186995.811 6   -306505.70021        17.250           0.750
  21037432.953   -17223914.792 5   -280870.30221        10.500           0.281
  20059689.805   -20826951.912 6   -898347.18921        14.750           0.656
 91  5 20 19 34 44.9920000  0  5G18G19G11G16G 6
  21050059.742     1566892.600 5    270313.45521        10.750           0.375
  18883370.992    -9857411.352 6   -793241.15922        17.000           1.688
  20741670.352   -19207441.934 6   -322437.74321        17.500           0.750
  21033837.969   -17242820.635 5   -295602.19721        10.750           0.313
  20047535.719   -20890823.281 6   -948117.07621        15.000           0.656
 91  5 20 19 34 59.9920000  0  5G18G19G11G16G 6
  21053616.086     1585576.472 5    284872.16421        10.500           0.406
  18880740.234    -9871234.538 6   -804012.49222        17.250           1.500
  20737808.164   -19227733.439 6   -338249.32421        16.750           0.750
  21030261.602   -17261603.126 5   -310237.94521        10.250           0.313
  20035390.274   -20954668.531 6   -997866.56821        16.250           0.719
 91  5 20 19 35 14.9910000  0  5G18G19G11G16G 6
  21057178.042     1604297.183 5    299459.58921        10.250           0.438
  18878123.183    -9885003.808 6   -814741.81221        17.000           1.438
  20733974.675   -19247878.182 6   -353946.55021        16.500           0.594
  21026708.964   -17280270.279 5   -324783.85221        10.500           0.375
  20023243.628   -21018492.368 6  -1047599.38521        16.000           0.781
 91  5 20 19 35 29.9910000  0  5G18G19G11G16G 6
  21060749.034     1623061.479 5    314080.95521        10.000           0.375
  18875513.550    -9898716.871 6   -825427.34022        17.250           1.719
  20730169.800   -19267874.715 6   -369528.29221        16.750           0.719
  21023179.761   -17298820.536 5   -339238.64721        10.500           0.281
  20011103.589   -21082299.327 6  -1097319.05521        15.750           0.656
 91  5 20 19 35 44.9910000  0  5G18G19G11G16G 6
  21064326.401     1641866.135 5    328733.78521         9.750           0.344
  18872915.284    -9912374.020 6   -836069.30122        17.250           1.781
  20726391.722   -19287723.186 6   -384994.65221        17.000           0.781
  21019671.042   -17317253.880 5   -353602.34321        10.750           0.406
  19998963.550   -21146086.204 6  -1147023.10521        15.250           0.719
 91  5 20 19 35 59.9910000  0  5G18G19G11G16G 6
  21067913.761     1660711.471 5    343418.30021         9.750           0.438
  18870324.886    -9925974.651 6   -846667.21722        17.250           1.813
  20722643.151   -19307423.197 6   -400345.31621        17.250           0.813
  21016183.566   -17335570.438 5   -367875.06321        10.750           0.344
  19986826.198   -21209852.432 6  -1196711.02121        15.250           0.813
 91  5 20 19 36 14.9910000  0  5G18G19G11G16G 6
  21071506.066     1679589.832 5    358128.54421         9.500           0.250
  18867746.870    -9939526.253 6   -857226.93022        17.000           1.688
  20718923.191   -19326982.255 6   -415586.15621        17.250           0.750
  21012722.659   -17353777.624 5   -382062.53421        10.500           0.313
  19974696.753   -21273605.494 6  -1246388.70421        15.250           0.781
 91  5 20 19 36 29.9910000  0  5G18G19G11G16G 6
  21075106.448     1698505.581 5    372867.94021        10.000           0.500
  18865176.589    -9953024.303 6   -867744.91122        17.250           1.531
  20715228.128   -19346396.023 6   -430713.77121        17.500           0.781
  21009279.730   -17371871.344 5   -396161.60621        10.500           0.344
  19962569.355   -21337340.879 6  -1296052.63221        15.000           0.813
 91  5 20 19 36 44.9910000  0  5G18G19G11G16G 6
  21078714.050     1717461.012 5    387638.24521        10.250           0.313
  18862619.511    -9966466.167 6   -878219.10921        17.250           1.469
  20711562.128   -19365662.019 6   -445726.23621        17.000           0.750
  21005858.487   -17389849.196 5   -410170.38021        10.250           0.313
  19950441.745   -21401055.914 6  -1345700.66521        15.250           0.656
 91  5 20 19 36 59.9910000  0  5G18G19G11G16G 6
  21082327.480     1736449.796 5    402434.54621        10.750           0.344
  18860070.495    -9979857.833 6   -888654.19621        17.750           1.438
  20707920.394   -19384786.449 6   -460628.42021        16.250           0.563
  21002456.972   -17407717.504 5   -424093.79221        10.250           0.281
  19938319.745   -21464756.690 6  -1395337.58121        14.750           0.625
 91  5 20 19 37 14.9910000  0  5G18G19G11G16G 6
  21085948.987     1755482.564 5    417265.12421        10.250           0.281
  18857535.401    -9993188.536 6   -899041.78522        16.750           1.656
  20704311.300   -19403758.646 6   -475411.94221        16.500           0.813
  20999077.581   -17425465.743 5   -437923.66821        10.000           0.281
  19926206.386   -21528432.350 6  -1444954.94521        15.500           0.719
 91  5 20 19 37 29.9910000  0  5G18G19G11G16G 6
  21089577.847     1774551.007 5    432123.48021        10.750           0.313
  18855006.761   -10006465.996 6   -909387.88022        17.000           1.625
  20700730.534   -19422586.364 6   -490082.89321        17.250           0.813
  20995722.683   -17443101.907 5   -451666.20921        10.250           0.344
  19914091.995   -21592090.518 6  -1494558.67321        15.750           0.656
 91  5 20 19 37 44.9910000  0  5G18G19G11G16G 6
  21093215.644     1793658.612 5    447012.37421        10.250           0.406
  18852493.003   -10019686.349 6   -919689.48122        16.250           1.531
  20697173.526   -19441266.052 6   -504638.52221        17.500           0.750
  20992391.995   -17460622.539 5   -465318.69921        10.500           0.344
  19901981.534   -21655727.502 6  -1544145.87521        16.000           0.719
 91  5 20 19 37 59.9910000  0  5G18G19G11G16G 6
  21096861.526     1812814.928 5    461939.20921        10.000           0.469
  18849989.183   -10032840.004 6   -929939.11722        16.000           1.719
  20693650.409   -19459788.353 6   -519071.48321        18.000           0.969
  20989079.667   -17478018.376 5   -478873.96521        10.250           0.375
  19889876.581   -21719333.826 6  -1593709.21421        16.250           0.938
 91  5 20 19 38 14.9910000  0  5G18G19G11G16G 6
  21100511.191     1831998.646 5    476887.38821         9.250           0.500
  18847496.316   -10045947.805 6   -940153.00322        16.250           1.688
  20690150.136   -19478174.303 6   -533398.20021        17.000           0.844
  20985786.589   -17495310.360 5   -492348.30521        11.000           0.375
  19877775.323   -21782930.199 6  -1643264.78621        16.000           1.063
 91  5 20 19 38 29.9910000  0  5G18G19G11G16G 6
  21104166.019     1851216.629 5    491862.27121         9.250           0.406
  18845008.456   -10059002.556 6   -950325.56122        17.500           1.813
  20686678.909   -19496416.870 6   -547613.22221        16.750           0.906
  20982519.316   -17512491.729 5   -505736.44721        10.750           0.344
  19865677.972   -21846509.532 6  -1692807.07321        15.750           0.906
 91  5 20 19 38 44.9910000  0  5G18G19G11G16G 6
  21107831.644     1870472.733 5    506866.86221         9.000           0.469
  18842538.292   -10072000.400 6   -960453.77822        17.000           1.844
  20683236.558   -19514512.080 6   -561713.37921        16.750           0.781
  20979271.433   -17529558.591 5   -519035.36821        10.500           0.375
  19853580.526   -21910067.661 6  -1742332.84021        15.500           0.906
 91  5 20 19 38 59.9910000  0  5G18G19G11G16G 6
  21111502.644     1889764.462 5    521899.20421         9.000           0.438
  18840076.612   -10084943.489 6   -970539.32222        17.000           1.625
  20679820.605   -19532462.440 6   -575700.69221        16.750           0.781
  20976042.605   -17546513.663 5   -532247.17921        10.750           0.438
  19841489.862   -21973606.866 6  -1791843.86621        15.750           0.906
 91  5 20 19 39 14.9910000  0  5G18G19G11G16G 6
  21115180.839     1909096.056 5    536962.62521         9.000           0.344
  18837625.730   -10097827.046 6   -980578.48822        16.750           1.594
  20676432.987   -19550263.363 6   -589571.55821        17.500           0.719
  20972841.644   -17563352.005 5   -545368.03921        10.500           0.375
  19829405.151   -22037122.377 6  -1841336.42521        16.000           0.938
 91  5 20 19 39 29.9910000  0  5G18G19G11G16G 6
  21118865.136     1928456.914 5    552048.84621         9.250           0.313
  18835182.917   -10110661.679 6   -990579.52722        17.000           1.625
  20673072.276   -19567925.520 6   -603334.28021        17.500           0.750
  20969656.316   -17580084.882 5   -558406.69821        10.500           0.313
  19817321.691   -22100624.703 6  -1890818.70421        16.000           1.063
 91  5 20 19 39 44.9910000  0  5G18G19G11G16G 6
  21122557.870     1947851.212 5    567161.11621         9.500           0.313
  18832748.737   -10123442.913 6  -1000538.95822        17.000           1.625
  20669738.972   -19585444.662 6   -616985.57621        16.500           0.781
  20966494.066   -17596708.293 5   -571360.06821        10.500           0.219
  19805238.433   -22164109.379 6  -1940287.25021        15.500           1.000
 91  5 20 19 39 59.9910000  0  5G18G19G11G16G 6
  21126255.659     1967283.310 5    582302.85521         9.250           0.219
  18830325.855   -10136166.089 6  -1010453.14322        17.750           1.594
  20666432.855   -19602816.031 6   -630521.70621        17.000           0.719
  20963352.612   -17613217.488 5   -584224.43021        10.250           0.344
  19793162.972   -22227571.597 6  -1989738.30921        16.000           0.969
 91  5 20 19 40 14.9910000  0  5G18G19G11G16G 6
  21129961.339     1986754.957 5    597475.37021         8.750           0.344
  18827918.800   -10148829.279 6  -1020320.59122        17.250           1.563
  20663156.605   -19620038.084 6   -643941.52021        17.000           0.781
  20960234.995   -17629610.786 5   -596998.49821        10.000           0.313
  19781091.230   -22291009.499 6  -2039170.41021        16.250           1.000
 91  5 20 19 40 29.9910000  0  5G18G19G11G16G 6
  21133670.706     2006253.179 5    612668.59821         8.750           0.313
  18825519.597   -10161444.977 6  -1030151.03822        17.250           1.594
  20659903.112   -19637123.561 6   -657254.88121        16.750           0.781
  20957133.784   -17645901.307 5   -609692.47921        10.000           0.313
  19769020.847   -22354435.630 6  -2088593.33921        16.500           0.875
 91  5 20 19 40 44.9910000  0  5G18G19G11G16G 6
  21137387.253     2025783.715 5    627887.06421         9.000           0.313
  18823127.214   -10174006.918 6  -1039939.56122        17.000           1.594
  20656679.909   -19654066.335 6   -670457.03721        17.000           0.813
  20954052.730   -17662082.800 5   -622301.48921         9.750           0.344
  19756956.120   -22417843.838 6  -2138002.26121        16.750           1.000
 91  5 20 19 40 59.9910000  0  5G18G19G11G16G 6
  21141111.784     2045347.834 5    643131.65121         9.250           0.375
  18820748.808   -10186513.770 6  -1049685.19122        16.250           1.688
  20653483.698   -19670865.082 6   -683546.98021        17.500           0.844
  20950999.597   -17678154.144 5   -634824.67221         9.750           0.406
  19744894.347   -22481232.478 6  -2187395.97021        17.000           0.969
 91  5 20 19 41 14.9910000  0  5G18G19G11G16G 6
  21144839.847     2064944.462 5    658401.55921         8.750           0.313
  18818376.823   -10198966.395 6  -1059388.56821        16.500           0.219
  20650315.995   -19687521.058 6   -696525.68321        17.000           0.156
  20947956.401   -17694116.757 5   -647263.16021         9.250           0.219
  19732835.011   -22544602.699 6  -2236775.31421        16.750           0.781
 91  5 20 19 41 29.9910000  0  5G18G19G11G16G 6
  21148576.261     2084576.482 5                         8.750
  18816021.081   -10211361.653 6  -1069047.29221        16.250           0.125
  20647171.597   -19704031.285 6                        16.500
  20944940.144   -17709967.601 5                         9.500
  19720779.636   -22607951.249 6                        16.000
 91  5 20 19 41 44.9910000  0  5G18G19G11G16G 6
  21152316.159     2104239.708 5                         8.750
  18813670.573   -10223703.007 6  -1078663.89121        17.000           0.094
  20644057.495   -19720399.309 6                        16.500
  20941945.722   -17725710.440 5                         9.500
  19708729.464   -22671281.592 6                        16.000
 91  5 20 19 41 59.9910000  0  5G18G19G11G16G 6
  21156065.909     2123931.933 5                         9.000
  18811329.691   -10235992.633 6  -1088240.29321        18.500           1.063
  20640968.651   -19736627.460 6                        16.250
  20938969.425   -17741347.879 5                         9.500
  19696679.253   -22734595.886 6                        16.000
 91  5 20 19 42 14.9910000  0  5G18G19G11G16G 6
  21159820.464     2143661.893 5                         9.250
  18809006.480   -10248221.420 6  -1097769.18722        17.000           1.563
  20637908.847   -19752706.875 6                        16.250
  20936018.222   -17756871.146 5        -0.45431         9.750           0.406
  19684634.995   -22797885.023 6                        16.250
 91  5 20 19 42 29.9910000  0  5G18G19G11G16G 6
  21163582.019     2163429.996 5                         9.250
  18806687.612   -10260388.795 6  -1107250.29122        17.750           1.563
  20634879.667   -19768637.063 6                        16.250
  20933085.151   -17772279.648 5    -12007.15621        10.000           0.313
  19672599.675   -22861148.176 6                        16.750
 91  5 20 19 42 44.9910000  0  5G18G19G11G16G 6
  21167349.667     2183229.345 5                         9.250
  18804384.370   -10272501.645 6  -1116688.90122        16.750           1.594
  20631875.026   -19784425.023 6                        17.250
  20930172.550   -17787580.606 5    -23930.04021        10.000           0.281
  19660564.136   -22924392.431 6        -0.11931        17.000           0.938
 91  5 20 19 42 59.9910000  0  5G18G19G11G16G 6
  21171123.901     2203061.994 5        -0.08031         9.250           0.281
  18802089.792   -10284557.334 6  -1126082.97022        17.500           1.594
  20628896.339   -19800068.580 6        -0.15431        16.250           0.750
  20927282.612   -17802772.050 5    -35767.59921         9.750           0.250
  19648531.409   -22987615.038 6    -49264.43521        17.000           1.000
 91  5 20 19 43 14.9910000  0  5G18G19G11G16G 6
  21174904.964     2222927.488 5     15479.33821         9.250           0.375
  18799807.581   -10296555.774 6  -1135432.42522        17.250           1.625
  20625949.386   -19815567.632 6    -12077.34621        17.000           0.688
  20924412.909   -17817853.905 5    -47519.76621         9.750           0.313
  19636505.183   -23050815.939 6    -98511.85621        16.750           0.875
 91  5 20 19 43 29.9910000  0  5G18G19G11G16G 6
  21178691.761     2242829.218 5     30987.01721         9.000           0.344
  18797532.222   -10308493.462 6  -1144734.54322        17.250           1.750
  20623029.284   -19830918.957 6    -24039.42421        16.500           0.781
  20921562.808   -17832822.914 5    -59184.01621         9.250           0.469
  19624481.605   -23113991.740 6   -147739.71621        17.000           0.969
 91  5 20 19 43 44.9910000  0  5G18G19G11G16G 6
  21182487.206     2262765.480 5     46521.57521         9.250           0.281
  18795274.925   -10320371.841 6  -1153990.45521        16.750           1.469
  20620134.737   -19846124.195 6    -35887.69421        16.750           0.656
  20918733.972   -17847680.962 5    -70761.76621         9.250           0.344
  19612466.769   -23177143.690 6   -196948.99821        17.000           0.813
 91  5 20 19 43 59.9910000  0  5G18G19G11G16G 6
  21186285.519     2282730.339 5     62078.44021         9.250           0.281
  18793025.401   -10332196.590 6  -1163204.57622        16.250           1.656
  20617264.847   -19861189.202 6    -47626.66421        16.250           0.719
  20915927.323   -17862433.937 5    -82257.65821         9.250           0.500
  19600450.073   -23240277.614 6   -246144.22121        16.750           1.000
 91  5 20 19 44 14.9910000  0  5G18G19G11G16G 6
  21190090.394     2302729.247 5     77661.82821         9.250           0.313
  18790785.870   -10343962.032 6  -1172372.48122        16.750           1.688
  20614426.394   -19876108.399 6    -59252.04221        16.750           0.781
  20913141.855   -17877076.460 5    -93667.49921         9.750           0.313
  19588443.409   -23303387.530 6   -295320.76121        16.750           0.875
 91  5 20 19 44 29.9910000  0  5G18G19G11G16G 6
  21193902.917     2322759.554 5     93269.67821         8.750           0.250
  18788557.175   -10355670.333 6  -1181495.85822        17.000           1.594
  20611614.605   -19890884.310 6    -70765.75521        15.750           0.688
  20910376.511   -17891611.288 5   -104993.40121         9.750           0.344
  19576434.808   -23366475.719 6   -344480.35221        16.500           0.969
 91  5 20 19 44 44.9910000  0  5G18G19G11G16G 6
  21197721.058     2342825.252 5    108905.11021         8.750           0.406
  18786342.487   -10367317.505 6  -1190571.59922        17.000           1.594
  20608832.503   -19905513.145 6    -82164.86721        16.000           0.719
  20907628.870   -17906034.550 5   -116232.38221         9.500           0.344
  19564435.284   -23429538.216 6   -393619.92221        16.500           0.938
 91  5 20 19 44 59.9910000  0  5G18G19G11G16G 6
  21201546.120     2362924.079 5    124566.34921         8.500           0.375
  18784135.597   -10378905.344 6  -1199601.10122        17.000           1.750
  20606076.222   -19919996.728 6    -93450.78721        15.500           0.781
  20904903.948   -17920348.190 5   -127385.95121         9.250           0.406
  19552441.737   -23492576.636 6   -442740.74621        17.250           1.063
 91  5 20 19 45 14.9910000  0  5G18G19G11G16G 6
  21205377.292     2383054.409 5    140252.14821         8.750           0.250
  18781942.323   -10390435.280 6  -1208585.49422        16.750           1.531
  20603348.808   -19934336.776 6   -104624.87021        15.500           0.719
  20902205.370   -17934553.618 5   -138455.20021         9.500           0.281
  19540449.987   -23555592.464 6   -491843.95021        17.500           0.938
 91  5 20 19 45 29.9910000  0  5G18G19G11G16G 6
  21209214.987     2403216.830 5    155962.95421         8.750           0.250
  18779759.323   -10401906.308 6  -1217523.97822        17.000           1.594
  20600646.784   -19948532.474 6                        15.500
  20899522.878   -17948650.557 5                         9.750
  19528462.753   -23618584.664 6   -540928.73721        17.500           1.125
 91  5 20 19 45 44.9910000  0  5G18G19G11G16G 6
  21213058.323     2423410.293 5    171697.93621         8.750           0.375
  18777589.480   -10413319.229 6  -1226417.18821        16.750           1.438
  20597971.472   -19962584.827 6                        15.500
  20896858.128   -17962640.192 5                         9.250
  19516478.269   -23681554.104 6   -589995.81021        16.750           1.000
 91  5 20 19 45 59.9910000  0  5G18G19G11G16G 6
  21216907.581     2443636.059 5    187458.09421         8.750           0.375
  18775427.151   -10424672.325 6  -1235263.77722        16.500           1.500
  20595325.776   -19976492.399 6                        15.750
  20894220.300   -17976520.863 5                         9.500
  19504500.612   -23744499.178 6   -639043.87321        17.000           1.094
 91  5 20 19 46 14.9910000  0  5G18G19G11G16G 6
  21220761.448     2463890.689 5    203240.73821         8.500           0.375
  18773279.972   -10435969.015 6  -1244066.41922        16.750           1.500
  20592706.183   -19990258.695 6                        15.750
  20891598.651   -17990296.589 5                         9.750
  19492527.347   -23807423.047 6   -688075.43221        16.750           1.000
 91  5 20 19 46 29.9910000  0  5G18G19G11G16G 6
  21224622.269     2484174.299 5    219045.96721         8.500           0.313
  18771136.925   -10447208.519 6  -1252824.49821        17.250           1.469
  20590113.862   -20003883.192 6                        15.750
  20888997.737   -18003966.733 5                        10.000
  19480558.191   -23870324.964 6   -737089.88721        16.750           0.906
 91  5 20 19 46 44.9900000  0  5G18G19G11G16G 6
  21228484.725     2504485.681 5    234872.83421         8.250           0.406
  18769011.639   -10458390.070 6  -1261537.42322        16.500           1.719
  20587547.623   -20017365.141 6   -169322.42321        15.500           0.719
  20886416.600   -18017530.551 5   -203112.98021        10.250           0.344
  19468593.451   -23933200.538 6   -786083.80921        16.750           0.938
 91  5 20 19 46 59.9900000  0  5G18G19G11G16G 6
  21232357.272     2524829.693 5    250725.11721         7.500           0.219
  18766893.232   -10469512.824 6  -1270204.54022        16.500           1.625
  20585008.818   -20030704.354 6   -179716.62621        15.500           0.688
  20883854.623   -18030987.799 5   -213599.21721        10.250           0.281
  19456631.951   -23996056.042 6   -835062.10621        17.000           0.906
 91  5 20 19 47 14.9900000  0  5G18G19G11G16G 6
  21236233.318     2545204.391 4    266601.31721         7.250           0.313
  18764790.639   -10480576.012 6  -1278825.24122        16.500           1.594
  20582497.529   -20043900.057 6   -189999.01721        15.500           0.688
  20881314.397   -18044338.218 5   -224002.21221        10.000           0.281
  19444677.217   -24058887.056 6   -884021.30421        17.500           1.000
 91  5 20 19 47 29.9900000  0  5G18G19G11G16G 6
  21240117.115     2565609.777 4    282501.44621         7.000           0.250
  18762694.576   -10491579.184 6  -1287399.16622        16.500           1.531
  20580015.217   -20056951.929 6   -200169.32321        15.500           0.656
  20878793.076   -18057581.494 5   -234321.71921        10.000           0.219
  19432723.701   -24121693.234 6   -932961.14921        17.500           0.938
 91  5 20 19 47 44.9900000  0  5G18G19G11G16G 6
  21244005.943     2586043.435 4    298423.57721         7.250           0.281
  18760612.647   -10502524.575 6  -1295928.06922        16.500           1.531
  20577557.186   -20069862.397 6   -210229.44521        15.500           0.656
  20876293.826   -18070720.240 5   -244559.80121        10.250           0.281
  19420776.904   -24184476.706 6   -981883.29621        17.250           0.906
 91  5 20 19 47 59.9900000  0  5G18G19G11G16G 6
  21247897.186     2606505.459 4    314367.83721         7.250           0.250
  18758543.045   -10513412.228 6  -1304411.98322        16.750           1.688
  20575127.365   -20082631.616 6   -220179.50821        15.250           0.688
  20873815.865   -18083754.604 5   -254716.52021        10.000           0.344
  19408831.725   -24247237.385 6  -1030787.68621        17.000           1.094
 91  5 20 19 48 14.9900000  0  5G18G19G11G16G 6
  21251800.193     2627001.630 5    330338.68921         7.500           0.375
  18756482.943   -10524235.664 6  -1312845.84822        17.000           1.625
  20572724.607   -20095253.399 6   -230014.69821        15.500           0.813
  20871353.631   -18096678.614 5   -264787.25521         9.500           0.344
  19396894.928   -24309968.828 6  -1079669.29521        17.000           1.094
 91  5 20 19 48 29.9900000  0  5G18G19G11G16G 6
  21255705.826     2647523.843 5    346329.81021         7.750           0.344
  18754432.490   -10535002.768 6  -1321235.82821        17.250           1.438
  20570349.584   -20107735.905 6   -239741.34121        15.500           0.688
  20868915.037   -18109500.378 5   -274778.31221         9.500           0.313
  19384962.850   -24372678.814 6  -1128534.19521        17.000           0.906
 91  5 20 19 48 44.9900000  0  5G18G19G11G16G 6
  21259617.256     2668077.507 5    362345.48121         7.500           0.313
  18752396.639   -10545707.677 6  -1329577.34422        16.750           1.625
  20568001.443   -20120073.516 6   -249355.07521        15.500           0.625
  20866494.623   -18122214.543 5   -284685.52521         9.250           0.281
  19373033.772   -24435361.684 6  -1177377.96221        17.000           0.938
 91  5 20 19 48 59.9900000  0  5G18G19G11G16G 6
  21263532.475     2688658.760 5    378382.64721         7.750           0.250
  18750368.490   -10556354.194 6  -1337873.35722        16.500           1.656
  20565679.959   -20132270.219 6   -258859.01721        15.500           0.750
  20864097.615   -18134824.780 5   -294511.75821         9.500           0.250
  19361109.498   -24498021.116 6  -1226203.44821        17.000           1.031
 91  5 20 19 49 14.9900000  0  5G18G19G11G16G 6
  21267456.209     2709268.667 5    394442.11721         7.750           0.313
  18748354.990   -10566940.954 6  -1346122.81022        16.250           1.656
  20563386.576   -20144324.768 6   -268252.19321        15.500           0.750
  20861717.240   -18147330.070 5   -304256.21921         9.500           0.344
  19349191.389   -24560655.613 6  -1275009.52221        17.250           1.000
 91  5 20 19 49 29.9900000  0  5G18G19G11G16G 6
  21271384.529     2729908.443 4    410524.86021         7.250           0.313
  18746351.490   -10577466.296 6  -1354324.40222        16.250           1.594
  20561121.123   -20156235.847 6   -277533.56921        16.250           0.688
  20859359.334   -18159729.607 5   -313918.27521         9.750           0.219
  19337279.357   -24623263.479 6  -1323794.83621        17.250           1.063
 91  5 20 19 49 44.9900000  0  5G18G19G11G16G 6
  21275316.514     2750578.030 5    426630.83521         7.750           0.250
  18744362.107   -10587929.962 6  -1362477.94022        16.000           1.531
  20558882.404   -20168003.417 6   -286703.13121        16.250           0.781
  20857021.787   -18172023.165 5   -323497.74521         9.750           0.281
  19325369.139   -24685844.553 6  -1372559.27521        17.500           0.969
 91  5 20 19 49 59.9900000  0  5G18G19G11G16G 6
  21279256.342     2771277.206 5    442759.88721         7.750           0.281
  18742379.443   -10598331.986 6  -1370583.44422        16.500           1.656
  20556671.115   -20179627.697 6   -295761.03321        16.000           0.844
  20854701.334   -18184211.132 5   -332994.95021         9.250           0.375
  19313466.412   -24748398.697 6  -1421302.72321        17.250           1.031
 91  5 20 19 50 14.9900000  0  5G18G19G11G16G 6
  21283200.811     2792003.009 5    458909.65821         8.250           0.250
  18740412.631   -10608675.086 6  -1378643.03022        15.750           1.625
  20554486.389   -20191111.600 6   -304709.54821        16.000           0.688
  20852398.912   -18196296.269 5   -342412.03521         9.500           0.344
  19301564.428   -24810928.626 6  -1470027.31021        16.750           1.000
 91  5 20 19 50 29.9900000  0  5G18G19G11G16G 6
  21287150.264     2812753.712 5    475078.85221         8.500           0.250
  18738456.889   -10618960.634 6  -1386657.78622        15.750           1.688
  20552326.295   -20202456.872 6   -313550.04721        15.750           0.781
  20850118.248   -18208280.532 5   -351750.49821         9.000           0.375
  19289671.248   -24873435.638 6  -1518734.04021        17.250           1.031
 91  5 20 19 50 44.9900000  0  5G18G19G11G16G 6
  21291104.951     2833531.167 5    491268.86821         8.750           0.094
  18736510.850   -10629186.687 6  -1394626.18122        16.000           1.531
  20550193.639   -20213661.677 6   -322281.08621        15.000           0.563
  20847852.248   -18220162.246 5   -361009.06021         8.750           0.281
  19277781.850   -24935917.852 6  -1567421.42921        17.250           1.063
 91  5 20 19 50 59.9900000  0  5G18G19G11G16G 6
  21295064.053     2854335.996 5    507480.26121         8.500           0.250
  18734573.647   -10639352.085 6  -1402547.29522        17.000           1.656
  20548089.881   -20224724.974 6   -330901.83921        15.750           0.750
  20845616.232   -18231940.229 5   -370186.78221         8.750           0.344
  19265896.279   -24998373.916 6  -1616088.46021        17.250           1.156
 91  5 20 19 51 14.9900000  0  5G18G19G11G16G 6
  21299027.397     2875170.049 5    523714.34621         8.250           0.125
  18732655.131   -10649454.612 6  -1410419.42521        16.250           1.375
  20546010.857   -20235644.810 6   -339410.83021        16.250           0.688
  20843394.717   -18243612.740 5   -379282.34721         9.000           0.250
  19254016.740   -25060801.741 6  -1664733.47421        17.000           0.938
 91  5 20 19 51 29.9900000  0  5G18G19G11G16G 6
  21302997.772     2896033.628 5    539971.52021         8.000           0.250
  18730743.662   -10659493.875 6  -1418242.26222        15.750           1.625
  20543959.764   -20246421.096 6   -347807.96321        16.000           0.781
  20841192.912   -18255179.868 5   -388295.77321         8.500           0.344
  19242142.584   -25123200.861 6  -1713356.13421        17.250           1.125
 91  5 20 19 51 44.9900000  0  5G18G19G11G16G 6
  21306970.834     2916919.031 5    556245.66021         8.000           0.219
  18728843.912   -10669477.290 6  -1426021.57521        15.500           1.406
  20541935.311   -20257061.447 6   -356099.15221        16.250           0.656
  20839009.404   -18266649.554 5   -397233.27321         8.750           0.219
  19230271.936   -25185578.615 6  -1761962.13321        17.500           0.938
 91  5 20 19 51 59.9900000  0  5G18G19G11G16G 6
  21310950.522     2937829.469 5    572539.31821         8.250           0.188
  18726956.553   -10679401.188 6  -1433754.51821        15.500           1.313
  20539936.779   -20267562.465 6   -364281.78421        16.000           0.594
  20836847.201   -18278018.338 5   -406092.14621         9.000           0.094
  19218407.139   -25247931.314 6  -1810548.61921        18.000           0.938
 91  5 20 19 52 14.9900000  0  5G18G19G11G16G 6
  21314935.951     2958768.042 5    588854.90221         8.250           0.156
  18725078.779   -10689262.220 6  -1441438.47221        15.750           1.469
  20537967.131   -20277921.084 6   -372353.44521        16.000           0.688
  20834705.076   -18289283.193 5   -414870.03821         8.750           0.313
  19206546.303   -25310255.579 6  -1859112.93221        17.750           1.000
 91  5 20 19 52 29.9900000  0  5G18G19G11G16G 6
  21318927.006     2979731.209 5    605189.62421         8.750           0.250
  18723210.475   -10699063.627 6  -1449075.96721        16.500           1.469
  20536021.389   -20288140.779 6   -380316.87221        16.000           0.688
  20832581.139   -18300447.636 5   -423569.67821         8.750           0.406
  19194692.397   -25372554.551 6  -1907657.55121        17.750           1.125
 91  5 20 19 52 44.9900000  0  5G18G19G11G16G 6
  21322920.990     3000722.265 5    621546.09721         8.750           0.219
  18721361.779   -10708801.899 6  -1456664.25922        16.250           1.625
  20534103.225   -20298218.214 6   -388169.43621        15.500           0.813
  20830479.123   -18311508.457 5   -432188.59321         9.000           0.406
  19182844.131   -25434824.747 6  -1956179.75221        18.250           1.156
 91  5 20 19 52 59.9900000  0  5G18G19G11G16G 6
  21326920.350     3021740.779 5    637923.96921         8.750           0.125
  18719520.764   -10718477.402 6  -1464203.63822        15.750           1.688
  20532212.748   -20308153.984 6   -395911.60421        16.000           0.563
  20828391.670   -18322466.445 5   -440727.36421         8.500           0.313
  19170997.904   -25497066.460 6  -2004679.73721        17.250           1.125
 91  5 20 19 53 14.9900000  0  5G18G19G11G16G 6
  21330925.529     3042787.116 5    654323.50921         8.500           0.219
  18717689.365   -10728089.205 6  -1471693.39022        15.500           1.625
  20530348.131   -20317947.379 6   -403542.85421        15.750           0.750
  20826325.318   -18333320.730 5   -449185.32221         8.250           0.375
  19159159.326   -25559278.526 6  -2053156.63421        17.750           1.156
 91  5 20 19 53 29.9900000  0  5G18G19G11G16G 6
  21334935.568     3063862.491 5    670745.70021         8.250           0.281
  18715875.686   -10737635.915 6                        15.250
  20528512.498   -20327597.257 6                        15.750
  20824276.287   -18344070.445 5   -457561.79921         7.750           0.313
  19147326.686   -25621459.633 6  -2101609.40321        18.000           1.125
 91  5 20 19 53 44.9900000  0  5G18G19G11G16G 6
  21338950.686     3084965.730 5    687189.55421         7.500           0.219
  18714069.068   -10747118.264 6                        15.500
  20526705.498   -20337104.529 6                        16.250
  20822254.084   -18354716.610 5   -465857.59521         7.750           0.344
  19135501.186   -25683610.620 6  -2150038.69821        18.250           1.156
 91  5 20 19 53 59.9900000  0  5G18G19G11G16G 6
  21342971.834     3106092.473 4    703651.76021         7.000           0.219
  18712278.154   -10756540.455 6                        15.250
  20524922.662   -20346473.750 6                        16.250
  20820247.764   -18365263.547 5   -474076.07821         7.750           0.313
  19123679.607   -25745735.411 6  -2198447.60721        18.750           1.219
 91  5 20 19 54 14.9900000  0  5G18G19G11G16G 6
  21346996.818     3127243.913 4    720133.22621         6.500           0.250
  18710495.170   -10765900.795 6  -1501157.09621        15.750           1.375
  20523164.654   -20355703.687 6   -432963.42921        16.250           0.656
  20818256.975   -18375710.282 5   -482216.46021         7.750           0.344
  19111861.967   -25807832.673 6  -2246835.03621        18.500           1.063
 91  5 20 19 54 29.9900000  0  5G18G19G11G16G 6
  21351026.920     3148415.610 3    736630.40721         6.000           0.250
  18708722.014   -10775203.386 6  -1508405.90421        16.750           1.469
  20521432.482   -20364798.445 6   -440050.27221        15.250           0.688
  20816288.350   -18386061.286 5   -490282.26621         7.750           0.375
  19100049.326   -25869906.168 6  -2295203.95221        18.750           1.125
 91  5 20 19 54 44.9900000  0  5G18G19G11G16G 6
  21355059.232     3169608.648 4    753144.26921         6.250           0.156
  18706967.357   -10784447.036 6  -1515608.77822        16.000           1.563
  20519726.373   -20373757.103 6   -447031.06821        15.500           0.625
  20814340.662   -18396315.492 5   -498272.63921         7.750           0.406
  19088241.857   -25931954.649 6  -2343553.39321        18.750           1.094
 91  5 20 19 54 59.9900000  0  5G18G19G11G16G 6
  21359094.139     3190825.025 4    769676.30121         6.250           0.219
  18705216.350   -10793629.808 6  -1522764.22722        16.500           1.750
  20518048.936   -20382577.830 6   -453904.38321        15.250           0.688
  20812406.154   -18406471.132 5   -506186.21421         7.750           0.375
  19076439.740   -25993976.033 6  -2391881.70321        18.250           1.125
 91  5 20 19 55 14.9900000  0  5G18G19G11G16G 6
  21363138.568     3212066.003 4    786227.50121         6.750           0.156
  18703483.193   -10802749.688 6  -1529870.67022        15.250           1.625
  20516399.834   -20391258.962 6   -460668.91321        15.750           0.688
  20810490.678   -18416526.874 5   -514021.94821         7.500           0.281
  19064643.811   -26055968.481 6  -2440187.48521        18.250           1.094
 91  5 20 19 55 29.9900000  0  5G18G19G11G16G 6
  21367186.279     3233331.643 4    802797.92721         6.750           0.094
  18701759.404   -10811806.218 6  -1536927.74421        16.000           1.438
  20514773.357   -20399800.309 6   -467324.52521        15.750           0.719
  20808595.248   -18426482.413 5   -521779.60021         7.500           0.313
  19052851.748   -26117931.428 6  -2488470.26121        18.500           0.906
 91  5 20 19 55 44.9900000  0  5G18G19G11G16G 6
  21371238.303     3254616.260 4    819383.15021         7.000           0.188
  18700047.943   -10820805.202 6  -1543939.97122        15.500           1.625
  20513174.162   -20408207.785 6   -473875.83821        15.750           0.688
  20806719.670   -18436343.592 5   -529463.69921         7.500           0.125
  19041064.490   -26179870.349 6  -2536734.31521        19.000           1.250
 91  5 20 19 55 59.9900000  0  5G18G19G11G16G 6
  21375289.607     3275924.686 4    835986.91121         6.750           0.281
  18698344.522   -10829741.439 6  -1550903.30022        16.000           1.531
  20511599.764   -20416476.548 6   -480319.05221        15.500           0.656
  20804863.006   -18446105.710 5   -537070.65121         7.500           0.406
  19029284.412   -26241780.251 6  -2584975.76521        19.000           1.156
 91  5 20 19 56 14.9900000  0  5G18G19G11G16G 6
  21379347.670     3297253.818 4    852606.80221         6.500           0.219
  18696658.240   -10838617.735 6  -1557819.92722        15.750           1.594
  20510051.522   -20424609.645 6   -486656.55421        15.000           0.656
  20803022.639   -18455772.085 5   -544602.96821         8.000           0.375
  19017507.334   -26303663.761 6  -2633196.66921        19.500           1.188
 91  5 20 19 56 29.9900000  0  4G19G11G16G 6
  18694980.334   -10847435.534 6  -1564690.97421        15.750           1.469
  20508529.475   -20432608.749 6   -492889.64121        15.250           0.656
  20801204.701   -18465344.484 5   -552062.05421         8.000           0.375
  19005737.818   -26365522.238 7  -2681398.03821        20.250           1.344
 91  5 20 19 56 44.9900000  0  4G19G11G16G 6
  18693312.287   -10856197.124 6  -1571518.21022        16.000           1.719
  20507033.006   -20440476.492 6   -499020.37121        15.750           0.719
  20799397.834   -18474825.343 5   -559449.82921         8.250           0.344
  18993968.209   -26427358.232 6  -2729581.91121        17.750           1.063
 91  5 20 19 56 59.9900000  0  4G19G11G16G 6
  18691657.123   -10864896.950 6  -1578297.32922        15.750           1.625
  20505561.623   -20448207.615 6   -505044.63721        16.000           0.531
  20797611.209   -18484209.627 5   -566762.34621         8.250           0.313
  18982208.225   -26489166.087 6  -2777743.84421        19.000           1.125
 91  5 20 19 57 14.9900000  0  4G19G11G16G 6
  18690012.881   -10873535.779 6  -1585028.92322        15.750           1.563
  20504117.162   -20455802.923 6   -510963.08921        16.000           0.563
  20795845.662   -18493498.431 5   -574000.43821         8.750           0.281
  18970452.279   -26550946.119 6  -2825884.07921        19.000           1.250
 91  5 20 19 57 29.9900000  0  4G19G11G16G 6
  18688379.256   -10882117.432 6  -1591715.96522        16.000           1.563
  20502696.545   -20463266.725 6   -516779.06021        15.250           0.469
  20794094.811   -18502695.921 5   -581167.41321         8.750           0.406
  18958699.709   -26612702.431 6  -2874005.85721        19.250           1.188
 91  5 20 19 57 44.9900000  0  4G19G11G16G 6
  18686759.139   -10890638.434 6  -1598355.73622        16.000           1.563
  20501301.115   -20470595.787 6   -522490.04021        15.500           0.594
  20792359.225   -18511799.048 5   -588260.84321         8.250           0.313
  18946952.115   -26674431.413 6  -2922106.33321        19.250           1.250
 91  5 20 19 57 59.9890000  0  4G19G11G16G 6
  18685149.431   -10899093.249 6  -1604943.94121        16.250           1.469
  20499933.571   -20477784.846 6   -528091.92121        15.250           0.594
  20790645.087   -18520802.342 5   -595276.48121         8.500           0.281
  18935214.892   -26736123.778 6  -2970178.27321        19.500           1.250
 91  5 20 19 58 14.9890000  0  4G19G11G16G 6
  18683552.728   -10907491.924 6  -1611488.40022        15.750           1.500
  20498591.524   -20484843.876 6   -533592.48521        15.500           0.625
  20788952.517   -18529716.242 5   -602222.46221         8.250           0.281
  18923477.134   -26797796.705 6  -3018235.08021        19.000           1.188
 91  5 20 19 58 29.9890000  0  4G19G11G16G 6
  18681966.024   -10915827.600 6  -1617983.77622        16.000           1.594
  20497274.173   -20491766.376 6   -538986.66921        15.250           0.531
  20787278.423   -18538534.320 5   -609093.76821         9.000           0.219
  18911746.079   -26859439.618 6  -3066268.48321        18.500           1.125
 91  5 20 19 58 44.9890000  0  4G19G11G16G 6
  18680391.540   -10924106.014 6  -1624434.51821        16.250           1.406
  20495981.290   -20498558.534 6   -544279.28721        15.000           0.531
  20785618.048   -18547262.688 5   -615895.14621         8.750           0.094
  18900021.782   -26921058.477 6  -3114283.15821        19.000           1.094
 91  5 20 19 58 59.9890000  0  4G19G11G16G 6
  18678826.196   -10932318.992 6  -1630834.27121        17.250           1.469
  20494714.837   -20505212.560 6   -549464.26521        14.750           0.594
  20783972.079   -18555893.627 5   -622620.64521         8.500           0.281
  18888302.985   -26982644.968 6  -3162272.61421        18.500           1.094
 91  5 20 19 59 14.9890000  0  4G19G11G16G 6
  18677276.829   -10940468.834 6  -1637184.83822        16.000           1.625
  20493472.790   -20511730.839 6   -554543.46421        15.000           0.625
  20782349.743   -18564429.518 5   -629272.07421         8.750           0.281
  18876587.743   -27044201.081 6  -3210238.38021        19.250           1.250
 91  5 20 19 59 29.9890000  0  4G19G11G16G 6
  18675737.204   -10948560.154 6  -1643489.80821        16.500           1.438
  20492257.282   -20518118.282 6   -559520.71721        15.000           0.469
  20780744.360   -18572875.373 5   -635853.33421         8.500           0.281
  18864878.728   -27105731.645 6  -3258184.26121        19.000           1.219
 91  5 20 19 59 44.9890000  0  4G19G11G16G 6
  18674210.384   -10956592.512 6  -1649748.81021        16.250           1.250
  20491066.204   -20524374.734 6   -564395.90221        15.250           0.500
  20779154.235   -18581231.053 5   -642364.36421         8.750           0.188
  18853175.954   -27167236.181 6  -3306109.85121        18.500           1.063
 91  5 20 19 59 59.9890000  0  4G19G11G16G 6
  18672690.704   -10964562.722 6  -1655959.39821        16.000           1.344
  20489901.923   -20530497.309 6   -569166.76221        15.250           0.656
  20777580.704   -18589493.954 5   -648803.05521         8.750           0.344
  18841477.470   -27228711.290 6  -3354012.50221        18.750           1.313
 91  5 20 20  0 14.9890000  0  4G19G11G16G 6
  18671184.399   -10972470.828 6  -1662121.60022        16.500           1.500
  20488761.720   -20536486.094 6   -573833.37121        14.750           0.531
  20776026.876   -18597664.288 5   -655169.63221         8.250           0.188
  18829784.517   -27290156.789 6  -3401892.07921        19.000           1.156
 91  5 20 20  0 29.9890000  0  4G19G11G16G 6
  18669693.954   -10980325.900 6  -1668242.47821        16.000           1.438
  20487646.048   -20542350.354 6   -578402.94821        14.500           0.500
  20774485.165   -18605751.163 5   -661471.19321         8.500           0.281
  18818095.243   -27351581.863 6  -3449755.75221        19.000           1.188
 91  5 20 20  0 44.9890000  0  4G19G11G16G 6
  18668207.501   -10988120.292 6  -1674316.06221        16.500           1.438
  20486556.423   -20548082.926 6   -582869.90121        14.750           0.563
  20772968.142   -18613747.692 5   -667702.34021         8.500           0.281
  18806410.407   -27412978.751 6  -3497597.46221        18.500           1.156
 91  5 20 20  0 59.9890000  0  4G19G11G16G 6
  18666735.454   -10995852.426 6  -1680341.16521        15.750           0.125
  20485490.431   -20553682.518 6                        14.750
  20771460.415   -18621652.475 5                         8.250
  18794733.353   -27474345.658 6  -3545415.81821        18.750           0.313
 91  5 20 20  1 14.9890000  0  4G19G11G16G 6
  18665275.392   -11003527.918 6  -1686322.08521        16.250           1.375
  20484448.134   -20559154.834 6                        14.750
  20769974.806   -18629471.653 5                         8.000
  18783061.298   -27535688.313 6                        19.250
 91  5 20 20  1 29.9890000  0  4G19G11G16G 6
  18663826.196   -11011144.274 6  -1692256.94421        16.000           1.188
  20483434.548   -20564497.824 6                        14.750
  20768499.642   -18637203.038 5                         7.750
  18771393.173   -27597004.315 6                        19.000
 91  5 20 20  1 44.9890000  0  4G19G11G16G 6
  18662388.384   -11018698.154 6                        16.000
  20482440.353   -20569708.427 6                        14.500
  20767046.665   -18644843.277 5                         7.750
  18759729.876   -27658290.131 6        -0.06131        18.500           0.031
 91  5 20 20  1 59.9890000  0  4G19G11G16G 6
  18660963.415   -11026190.304 6                        16.000
  20481475.040   -20574787.715 6                        14.000
  20765610.376   -18652393.814 5                         7.750
  18748073.595   -27719546.453 6                        17.750
 91  5 20 20  2 14.9890000  0  4G19G11G16G 6
  18659550.860   -11033619.904 6                        16.250
  20480532.657   -20579735.135 6                        14.500
  20764186.962   -18659854.154 5                         7.500
  18736422.251   -27780772.338 6                        19.250
 91  5 20 20  2 29.9890000  0  4G19G11G16G 6
  18658147.462   -11040991.300 6                        15.500
  20479617.478   -20584555.401 6                        14.500
  20762784.087   -18667229.321 5                         7.500
  18724776.274   -27841972.127 6                        19.000
 91  5 20 20  2 44.9890000  0  4G19G11G16G 6
  18656753.532   -11048304.529 6                        16.000
  20478724.759   -20589248.628 6        -0.29931        14.250           0.594
  20761396.243   -18674519.344 4                         7.250
  18713135.407   -27903145.868 6        -0.10631        18.750           1.156
 91  5 20 20  2 59.9890000  0  4G19G11G16G 6
  18655377.251   -11055556.527 6                        15.250
  20477853.517   -20593811.864 6     -3556.08321        14.000           0.500
  20760026.759   -18681721.183 5                         7.500
  18701500.821   -27964290.045 6    -47644.91521        18.750           1.063
 91  5 20 20  3 14.9890000  0  4G19G11G16G 6
  18654005.399   -11062752.737 6                        15.500
  20477009.376   -20598250.916 6     -7015.11621        14.000           0.719
  20758673.728   -18688840.838 5                         7.750
  18689869.689   -28025410.107 6    -95270.88121        19.250           1.375
 91  5 20 20  3 29.9890000  0  4G19G11G16G 6
  18652646.142   -11069889.663 6        -0.36731        16.000           1.469
  20476189.017   -20602562.752 6    -10375.00621        14.000           0.531
  20757336.142   -18695875.236 5                         8.000
  18678244.048   -28086502.775 6   -142875.52921        19.500           1.344
 91  5 20 20  3 44.9890000  0  4G19G11G16G 6
  18651301.024   -11076961.875 6     -5511.21921        16.000           1.344
  20475394.118   -20606742.177 6    -13631.73321        14.000           0.594
  20756015.470   -18702819.404 5        -0.41731         7.750           0.250
  18666625.243   -28147562.344 6   -190454.38521        19.500           1.375
 91  5 20 20  3 59.9890000  0  4G19G11G16G 6
  18649968.493   -11083976.434 6    -10977.13921        15.000           1.375
  20474623.189   -20610796.548 6    -16791.00921        14.500           0.625
  20754710.790   -18709680.748 5     -5347.01121         8.000           0.219
  18655010.243   -28208595.858 7   -238012.92921        20.000           1.375
 91  5 20 20  4 14.9890000  0  4G19G11G16G 6
  18648642.704   -11090933.876 6    -16398.56321        15.500           1.469
  20473875.032   -20614726.557 6    -19853.38521        14.000           0.656
  20753422.329   -18716459.816 5    -10629.46521         8.500           0.375
  18643400.657   -28269603.848 6   -285551.61621        19.750           1.406
 91  5 20 20  4 29.9890000  0  4G19G11G16G 6
  18647331.532   -11097830.701 6    -21772.75721        14.750           1.375
  20473151.681   -20618529.061 6    -22816.40021        14.500           0.594
  20752146.212   -18723153.832 5    -15845.67921         7.750           0.250
  18631796.579   -28330582.735 6   -333067.60921        19.500           1.281
 91  5 20 20  4 44.9890000  0  4G19G11G16G 6
  18646027.220   -11104667.419 6    -27100.10921        15.000           1.344
  20472452.915   -20622204.891 6    -25680.71821        14.500           0.625
  20750885.993   -18729763.670 5    -20996.29221         7.750           0.281
  18620197.790   -28391532.785 6   -380561.12921        19.750           1.313
 91  5 20 20  4 59.9890000  0  4G19G11G16G 6
  18644738.759   -11111442.575 6    -32379.48521        15.250           1.406
  20471774.517   -20625752.885 6    -28445.41921        14.000           0.594
  20749640.353   -18736288.156 5    -26080.41021         7.500           0.250
  18608605.228   -28452452.734 7   -428031.21621        20.000           1.469
 91  5 20 20  5 14.9890000  0  4G19G11G16G 6
  18643462.439   -11118158.294 6    -37612.54921        15.500           1.438
  20471123.767   -20629175.491 6    -31112.41321        14.000           0.656
  20748415.970   -18742729.824 5    -31099.98121         7.500           0.344
  18597019.532   -28513344.386 6   -475479.22521        19.750           1.344
 91  5 20 20  5 29.9890000  0  4G19G11G16G 6
  18642198.126   -11124814.665 6    -42799.36221        14.500           1.406
  20470496.337   -20632473.012 6    -33681.93021        14.500           0.656
  20747210.751   -18749089.187 5    -36055.42521         7.750           0.219
  18585435.017   -28574207.903 6   -522905.31421        19.000           1.438
 91  5 20 20  5 44.9890000  0  4G19G11G16G 6
  18640938.837   -11131414.839 6    -47942.40321        15.250           1.406
  20469893.532   -20635648.784 6    -36156.59621        14.000           0.563
  20746014.579   -18755369.276 5    -40949.08821         7.750           0.250
  18573858.946   -28635046.144 6   -570311.68621        19.250           1.344
 91  5 20 20  5 59.9890000  0  4G19G11G16G 6
  18639698.876   -11137957.767 6    -53040.82321        14.750           1.219
  20469311.853   -20638702.064 6    -38535.80621        14.000           0.531
  20744834.642   -18761569.722 5    -45780.69821         7.750           0.313
  18562287.079   -28695858.030 6   -617697.54921        19.500           1.469
 91  5 20 20  6 14.9890000  0  4G19G11G16G 6
  18638461.595   -11144436.548 6    -58089.25221        15.500           1.250
  20468753.321   -20641626.404 6    -40814.52221        14.000           0.563
  20743671.524   -18767684.008 5    -50545.14421         7.750           0.375
  18550721.056   -28756636.720 6   -665057.52721        19.500           1.438
 91  5 20 20  6 29.9890000  0  4G19G11G16G 6
  18637244.220   -11150851.512 6    -63087.96521        14.250           1.156
  20468224.532   -20644422.417 6    -42993.26121        14.000           0.625
  20742521.548   -18773712.799 5    -55243.01221         7.750           0.281
  18539160.657   -28817382.438 6   -712391.81921        19.250           1.313
 91  5 20 20  6 44.9890000  0  4G19G11G16G 6
  18636030.079   -11157209.500 6    -68042.28721        15.500           1.250
  20467716.415   -20647097.090 6    -45077.44021        14.000           0.531
  20741394.915   -18779662.986 5    -59879.59621         8.250           0.188
  18527607.642   -28878101.799 6   -759705.58821        19.750           1.313
 91  5 20 20  6 59.9890000  0  4G19G11G16G 6
  18634831.907   -11163507.252 6    -72949.66021        16.000           1.250
  20467228.564   -20649647.476 6    -47064.77321        13.750           0.469
  20740277.915   -18785531.617 5    -64452.66521         8.250           0.344
  18516057.884   -28938791.591 6   -806996.29421        19.500           1.156
 91  5 20 20  7 14.9890000  0  4G19G11G16G 6
  18633646.782   -11169741.901 6    -77807.86321        15.500           1.188
  20466770.282   -20652071.046 6    -48953.28621        14.000           0.531
  20739175.196   -18791316.778 5    -68960.65621         8.250           0.281
  18504514.618   -28999448.740 6   -854261.57721        19.000           1.250
 91  5 20 20  7 29.9890000  0  4G19G11G16G 6
  18632470.314   -11175921.516 6    -82623.19821        16.000           1.188
  20466331.017   -20654376.010 6    -50749.39321        14.500           0.438
  20738091.454   -18797026.448 5    -73409.84121         8.250           0.219
  18492976.228   -29060081.264 6   -901507.67121        18.750           1.406
 91  5 20 20  7 44.9890000  0  4G19G11G16G 6
  18631306.134   -11182040.590 6    -87391.34421        16.000           1.219
  20465916.368   -20656557.283 6    -52449.11021        14.500           0.531
  20737019.329   -18802655.478 5    -77796.22421         8.000           0.188
  18481446.470   -29120683.655 6   -948730.27421        19.250           1.250
 91  5 20 20  7 59.9890000  0  4G19G11G16G 6
  18630153.220   -11188099.495 6    -92112.61321        15.500           1.188
  20465523.626   -20658615.612 6    -54053.03921        14.250           0.500
  20735964.626   -18808205.050 5    -82120.66721         8.250           0.156
  18469919.048   -29181256.215 6   -995929.62921        18.750           1.250
 91  5 20 20  8 14.9890000  0  4G19G11G16G 6
  18629012.321   -11194098.914 6    -96787.53021        15.750           1.094
  20465153.743   -20660551.836 6    -55561.80821        14.500           0.438
  20734924.915   -18813675.845 5    -86383.68321         8.500           0.156
  18458398.095   -29241799.519 6  -1043106.19121        19.250           1.250
 91  5 20 20  8 29.9890000  0  4G19G11G16G 6
  18627881.665   -11200037.008 6   -101414.65321        15.750           1.313
  20464809.282   -20662364.500 6    -56974.28921        13.750           0.438
  20733897.001   -18819066.441 5    -90584.23621         8.000           0.188
  18446883.165   -29302311.509 6  -1090258.35421        19.750           1.438
 91  5 20 20  8 44.9890000  0  4G19G11G16G 6
  18626762.626   -11205917.514 6   -105996.91621        15.500           1.188
  20464488.376   -20664057.565 6    -58293.58921        13.750           0.500
  20732884.985   -18824381.069 5    -94725.60021         8.250           0.219
  18435371.931   -29362795.957 7  -1137389.06721        20.250           1.250
 91  5 20 20  8 59.9890000  0  4G19G11G16G 6
  18625657.282   -11211735.515 6   -110530.45721        14.750           1.094
  20464188.985   -20665626.511 6    -59516.15521        13.250           0.438
  20731892.204   -18829614.969 5    -98804.07821         7.750           0.219
  18423868.806   -29423247.869 7  -1184494.41321        20.000           1.281
 91  5 20 20  9 14.9880000  0  4G19G11G16G 6
  18624559.488   -11217495.398 6   -115018.72421        15.750           1.313
  20463911.785   -20667076.306 6    -60645.89221        13.500           0.500
  20730907.871   -18834773.032 5   -102823.41321         8.000           0.188
  18412372.332   -29483667.804 7  -1231574.84821        20.000           1.438
 91  5 20 20  9 29.9880000  0  4G19G11G16G 6
  18623473.488   -11223196.917 6   -119461.50221        15.500           1.281
  20463660.106   -20668406.269 6    -61682.24821        14.000           0.531
  20729937.621   -18839854.900 5   -106783.41621         8.000           0.156
  18400877.356   -29544062.632 6  -1278635.71921        19.750           1.281
 91  5 20 20  9 44.9880000  0  4G19G11G16G 6
  18622400.707   -11228836.221 6   -123855.80921        15.500           1.406
  20463429.809   -20669613.347 6    -62622.86621        14.000           0.531
  20728986.262   -18844857.407 5   -110681.56821         8.000           0.313
  18389392.434   -29604424.944 7  -1325671.25821        20.250           1.438
 91  5 20 20  9 59.9880000  0  4G19G11G16G 6
  18621338.988   -11234419.430 6   -128206.40221        15.000           1.188
  20463222.887   -20670703.904 6    -63472.68521        14.000           0.469
  20728047.395   -18849787.018 5   -114522.91221         8.000           0.219
  18377912.723   -29664760.734 7  -1372686.11821        20.500           1.313
 91  5 20 20 10 14.9880000  0  4G19G11G16G 6
  18620287.465   -11239940.541 6   -132508.61721        15.000           0.938
  20463039.293   -20671672.115 6    -64227.15521        14.000           0.375
  20727126.043   -18854638.378 5   -118303.28421         7.500           0.125
  18366433.863   -29725063.901 7  -1419675.57521        20.250           1.125
 91  5 20 20 10 29.9880000  0  4G19G11G16G 6
  18619246.723   -11245409.484 6   -136770.17421        15.000           1.031
  20462875.621   -20672528.302 6    -64894.33521        13.750           0.500
  20726215.637   -18859421.722 5   -122030.66621         7.750           0.125
  18354963.863   -29785344.398 7  -1466647.35621        20.250           1.219
 91  5 20 20 10 44.9880000  0  4G19G11G16G 6
  18618215.590   -11250817.121 6   -140983.96421        14.500           1.094
  20462734.981   -20673263.539 6    -65467.27621        14.000           0.438
  20725320.481   -18864128.046 5   -125697.99221         8.250           0.188
  18343499.465   -29845592.790 7  -1513594.11721        20.500           1.406
 91  5 20 20 10 59.9880000  0  4G19G11G16G 6
  18617201.012   -11256165.518 6   -145151.59921        14.250           1.000
  20462620.527   -20673880.203 6    -65947.82521        13.750           0.500
  20724441.527   -18868759.643 5   -129307.15721         7.750           0.219
  18332041.395   -29905810.938 7  -1560517.32621        20.500           1.344
 91  5 20 20 11 14.9880000  0  4G19G11G16G 6
  18616193.012   -11261456.094 6   -149274.17221        15.250           1.094
  20462523.223   -20674379.932 6    -66337.24121        13.750           0.500
  20723573.879   -18873318.112 5   -132859.30921         7.500           0.219
  18320585.434   -29966000.267 7  -1607418.06521        20.500           1.469
 91  5 20 20 11 29.9880000  0  4G19G11G16G 6
  18615198.692   -11266686.924 6   -153350.18421        15.750           1.094
  20462449.754   -20674761.153 6    -66634.32221        13.500           0.438
  20722719.442   -18877802.208 5   -136353.52421         7.500           0.219
  18309137.879   -30026158.726 7  -1654294.76021        20.500           1.375
 91  5 20 20 11 44.9880000  0  4G19G11G16G 6
  18614214.270   -11271858.201 6   -157379.79321        14.750           1.000
  20462401.129   -20675024.540 6    -66839.58121        13.750           0.500
  20721882.442   -18882212.628 5   -139790.29721         7.750           0.313
  18297696.988   -30086286.465 7  -1701147.51322        21.000           1.531
 91  5 20 20 11 59.9880000  0  4G19G11G16G 6
  18613242.543   -11276969.784 6   -161362.89221        14.750           0.969
  20462370.637   -20675170.177 6                        13.750
  20721050.504   -18886549.540 4   -143169.82921         7.250           0.281
  18286261.379   -30146383.339 7  -1747976.21321        21.250           1.469
 91  5 20 20 12 14.9880000  0  4G19G11G16G 6
  18612279.184   -11282023.495 6   -165300.89821        15.000           1.094
  20462367.059   -20675200.157 6                        13.250
  20720239.567   -18890814.990 4   -146493.64121         7.250           0.219
  18274829.793   -30206451.046 7  -1794782.19121        20.750           1.375
 91  5 20 20 12 29.9880000  0  4G19G11G16G 6
  18611330.777   -11287020.058 6   -169194.37221        15.000           1.031
  20462382.652   -20675115.525 6                        13.000
  20719444.629   -18895010.169 5   -149762.71121         7.500           0.219
  18263403.551   -30266490.163 7  -1841565.89022        20.500           1.500
 91  5 20 20 12 44.9880000  0  4G19G11G16G 6
  18610390.668   -11291959.313 6   -173043.18121        15.500           1.031
  20462419.965   -20674916.342 6                        12.500
  20718660.254   -18899135.098 4   -152977.02721         6.750           0.219
  18251985.215   -30326500.394 7  -1888327.08522        21.000           1.531
 91  5 20 20 12 59.9880000  0  4G19G11G16G 6
  18609462.598   -11296844.552 6   -176849.89821        15.000           0.938
  20462479.840   -20674606.336 6                        12.500
  20717885.387   -18903193.681 4   -156139.68721         7.250           0.281
  18240571.957   -30386484.988 7  -1935068.29521        21.000           1.344
 91  5 20 20 13 14.9880000  0  4G19G11G16G 6
  18608540.809   -11301674.231 6   -180613.33021        15.250           1.031
  20462559.660   -20674184.274 6    -66184.96521        12.500           0.375
  20717129.317   -18907184.556 5   -159249.56021         7.750           0.156
  18229160.535   -30446442.333 7  -1981788.28221        20.500           1.375
 91  5 20 20 13 29.9880000  0  4G19G11G16G 6
  18607633.285   -11306444.713 6   -184330.63921        15.000           1.188
  20462664.692   -20673646.681 6    -65766.07921        12.500           0.531
  20716382.598   -18911104.245 5   -162303.95321         7.500           0.188
  18217758.481   -30506368.486 7  -2028483.95522        21.000           1.531
 91  5 20 20 13 44.9880000  0  4G19G11G16G 6
  18606736.512   -11311159.966 6   -188004.90521        15.500           1.094
  20462787.512   -20672997.641 6    -65260.34921        12.500           0.438
  20715651.442   -18914957.204 5   -165306.36121         7.500           0.188
  18206359.457   -30566267.271 7  -2075158.30522        20.750           1.625
 91  5 20 20 13 59.9880000  0  4G19G11G16G 6
  18605848.793   -11315818.991 6   -191635.36221        14.750           0.969
  20462930.949   -20672236.609 6    -64667.36521        12.750           0.469
  20714930.426   -18918743.062 5   -168256.45121         7.750           0.250
  18194965.199   -30626137.700 7  -2121810.57022        20.500           1.500
 91  5 20 20 14 14.9880000  0  4G19G11G16G 6
  18604975.246   -11320420.135 6   -195220.73021        14.750           0.938
  20463095.262   -20671362.339 6    -63986.14621        12.500           0.438
  20714221.598   -18922460.334 4   -171153.16321         7.000           0.125
  18183579.301   -30685977.906 7  -2168439.28721        21.000           1.344
 91  5 20 20 14 29.9880000  0  3G19G11G 6
  18604108.926   -11324962.956 6   -198760.63021        14.500           1.031
  20463286.738   -20670374.738 6    -63216.60321        12.750           0.438
  18172197.277   -30745787.482 7  -2215044.12021        21.250           1.188
 91  5 20 20 14 44.9880000  0  3G19G11G 6
  18603255.043   -11329451.892 6   -202258.54921        14.000           0.438
  20463496.504   -20669278.824 6    -62362.65521        12.500           0.250
  18160820.738   -30805570.921 7  -2261628.59621        20.250           1.344
 91  5 20 20 14 59.9880000  0  3G19G11G 6
  18602409.543   -11333888.576 6                        13.250
  20463721.887   -20668076.360 6                        12.250
  18149447.629   -30865329.662 6                        19.500
 91  5 20 20 15 14.9880000  0  3G19G11G 6
  18601576.520   -11338267.650 6                        13.250
  20463973.551   -20666762.096 6                        12.250
  18138083.301   -30925058.054 7                        20.500
 91  5 20 20 15 29.9880000  0  3G19G11G 6
  18600757.934   -11342588.776 6                        13.000
  20464242.887   -20665336.130 6                        12.000
  18126723.340   -30984755.735 7                        20.750
 91  5 20 20 15 44.9880000  0  3G19G11G 6
  18599943.199   -11346855.771 6                        13.750
  20464535.106   -20663802.496 6                        12.500
  18115369.051   -31044426.362 7                        21.250
 91  5 20 20 15 59.9880000  0  3G19G11G 6
  18599139.652   -11351067.849 6                        14.000
  20464848.535   -20662160.887 6                        12.250
  18104019.082   -31104069.103 7                        21.250
 91  5 20 20 16 14.9880000  0  3G19G11G 6
  18598352.027   -11355217.576 6                        14.000
  20465183.832   -20660404.118 6        -0.47031        12.000           0.375
  18092677.598   -31163676.463 7        -0.23531        21.500           1.406
 91  5 20 20 16 29.9880000  0  3G19G11G 6
  18597575.246   -11359313.383 6        -0.10331        13.750           0.906
  20465538.402   -20658540.925 5      1451.34321        11.750           0.406
  18081338.027   -31223256.753 7    -46426.40521        21.250           1.438
 91  5 20 20 16 44.9880000  0  3G19G11G 6
  18596803.840   -11363352.495 6     -3147.51621        14.250           0.938
  20465911.981   -20656568.724 5      2988.09221        11.750           0.438
  18070005.371   -31282806.954 7    -92829.15721        21.000           1.344
 91  5 20 20 16 59.9880000  0  3G19G11G 6
  18596048.918   -11367335.774 6     -6251.39721        13.750           0.875
  20466308.129   -20654488.707 5      4608.85221        11.750           0.469
  18058680.840   -31342327.764 7   -139208.98722        21.000           1.563
 91  5 20 20 17 14.9880000  0  3G19G11G 6
  18595299.020   -11371263.103 6     -9311.70521        14.250           1.094
  20466723.942   -20652301.180 6      6313.39321        12.250           0.375
  18047358.918   -31401819.061 7   -185565.81722        21.250           1.563
 91  5 20 20 17 29.9880000  0  3G19G11G 6
  18594561.301   -11375140.192 6    -12332.86521        14.750           0.938
  20467160.692   -20650012.001 6      8097.14721        12.000           0.438
  18036042.957   -31461286.312 7   -231903.92221        21.000           1.406
 91  5 20 20 17 44.9880000  0  3G19G11G 6
  18593834.590   -11378958.758 6    -15308.41021        14.500           1.000
  20467618.645   -20647613.517 5      9966.07121        11.750           0.438
  18024733.645   -31520721.322 7   -278216.88521        21.000           1.469
 91  5 20 20 17 59.9880000  0  3G19G11G 6
  18593121.317   -11382718.842 6    -18238.39621        13.250           1.031
  20468094.246   -20645106.070 5     11919.90321        11.750           0.406
  18013427.652   -31580124.092 7   -324504.74222        21.000           1.531
 91  5 20 20 18 14.9880000  0  3G19G11G 6
  18592415.840   -11386420.931 6    -21123.19621        14.500           0.969
  20468591.457   -20642490.362 6     13958.07621        12.250           0.469
  18002131.434   -31639494.800 7   -370767.61922        21.250           1.594
 91  5 20 20 18 29.9880000  0  3G19G11G 6
  18591724.067   -11390068.597 6    -23965.56621        14.000           1.000
  20469110.567   -20639770.065 6     16077.76221        12.500           0.375
  17990838.762   -31698836.811 7   -417008.12222        21.500           1.594
 91  5 20 20 18 44.9880000  0  3G19G11G 6
  18591037.606   -11393660.253 6    -26764.30521        14.500           0.906
  20469646.574   -20636944.001 6     18279.86421        12.750           0.500
  17979551.817   -31758148.469 7   -463224.98021        21.250           1.344
 91  5 20 20 18 59.9880000  0  3G19G11G 6
  18590368.379   -11397194.464 6    -29518.28421        13.500           1.094
  20470205.676   -20634011.149 6     20565.16821        12.750           0.438
  17968270.754   -31817428.235 7   -509416.98122        21.000           1.563
 91  5 20 20 19 14.9880000  0  3G19G11G 6
  18589704.746   -11400666.294 6    -32223.65321        14.250           0.969
  20470784.199   -20630966.781 6     22937.37121        12.250           0.469
  17956998.363   -31876670.982 7   -555580.14422        20.750           1.500
 91  5 20 20 19 29.9880000  0  3G19G11G 6
  18589051.957   -11404083.820 6    -34886.71121        14.250           1.094
  20471383.504   -20627819.341 5     25389.89421        11.750           0.594
  17945728.988   -31935884.726 7   -601720.70422        21.000           1.531
 91  5 20 20 19 44.9880000  0  3G19G11G 6
  18588415.262   -11407441.974 6    -37503.51321        14.000           0.938
  20472003.426   -20624564.218 6     27926.32221        12.000           0.438
  17934468.762   -31995064.375 7   -647834.70121        20.500           1.406
 91  5 20 20 19 59.9880000  0  3G19G11G 6
  18587786.496   -11410741.370 6    -40074.51821        14.250           1.094
  20472642.309   -20621202.172 6     30546.06021        12.000           0.406
  17923213.074   -32054210.305 7   -693922.41421        21.000           1.469
 91  5 20 20 20 14.9880000  0  3G19G11G 6
  18587169.387   -11413985.858 6    -42602.74321        13.750           0.875
  20473304.809   -20617737.209 6     33245.99921        12.750           0.469
  17911962.067   -32113326.115 7   -739986.65921        20.250           1.250
 91  5 20 20 20 29.9880000  0  3G19G11G 6
  18586563.879   -11417170.089 6    -45084.01521        14.000           1.063
  20473983.590   -20614164.488 6     36029.91221        13.000           0.469
  17900721.598   -32172406.472 7   -786023.28122        20.500           1.500
 91  5 20 20 20 44.9870000  0  3G19G11G 6
  18585969.132   -11420299.968 6    -47522.93721        14.250           1.031
  20474682.390   -20610490.653 6     38892.59621        12.750           0.375
  17889483.890   -32231453.377 7   -832033.82622        20.750           1.625
 91  5 20 20 20 59.9870000  0  3G19G11G 6
  18585384.991   -11423367.668 6    -49913.39921        14.000           1.094
  20475402.804   -20606707.422 6     41840.55521        13.000           0.531
  17878254.319   -32290466.460 7   -878018.02622        20.750           1.688
 91  5 20 20 21 14.9870000  0  3G19G11G 6
  18584812.968   -11426374.417 6    -52256.37621        14.500           0.938
  20476142.734   -20602816.804 6     44872.14421        13.000           0.188
  17867031.757   -32349442.902 7   -923973.69922        20.750           1.656
 91  5 20 20 21 29.9870000  0  3G19G11G 6
  18584254.515   -11429321.059 6    -54552.50721        13.750           0.563
  20476904.054   -20598819.710 6     47986.73721        13.250           0.313
  17855817.148   -32408383.413 7   -969901.31822        21.250           1.531
 91  5 20 20 21 44.9870000  0  3G19G11G 6
  18583702.421   -11432210.707 6    -56804.24021        14.250           0.719
  20477684.585   -20594719.614 6     51181.58921        13.250           0.281
  17844605.687   -32467290.992 7  -1015803.30821        20.500           0.031
 91  5 20 20 21 59.9870000  0  3G19G11G 6
  18583163.976   -11435042.198 6    -59010.64921        14.500           1.156
  20478482.898   -20590515.766 6     54457.28321        12.500           0.500
  17833401.999   -32526164.379 7  -1061678.65322        21.000           1.750
 91  5 20 20 22 14.9870000  0  3G19G11G 6
  18582633.890   -11437815.043 6    -61171.36121        14.250           1.063
  20479303.882   -20586208.037 6     57813.91021        12.500           0.406
  17822205.952   -32585003.003 7  -1107526.90622        21.000           1.750
 91  5 20 20 22 29.9870000  0  3G19G11G 6
  18582121.109   -11440528.333 6    -63285.67221        13.750           1.031
  20480142.444   -20581795.902 6     61251.90121        12.500           0.438
  17811016.312   -32643806.003 7  -1153347.40022        21.250           1.813
 91  5 20 20 22 44.9870000  0  3G19G11G 6
  18581615.241   -11443185.415 6    -65356.18121        14.500           0.844
  20481000.530   -20577282.915 6     64768.47921        12.000           0.344
  17799832.444   -32702576.223 7  -1199142.34922        21.250           1.719
 91  5 20 20 22 59.9870000  0  3G19G11G 6
  18581120.687   -11445784.717 6    -67381.65421        14.750           0.969
  20481878.359   -20572667.906 6     68364.54821        12.750           0.375
  17788653.968   -32761312.056 7  -1244910.50722        22.000           1.750
 91  5 20 20 23 14.9870000  0  3G19G11G 6
  18580636.069   -11448324.277 6    -69360.59021        14.750           0.938
  20482776.132   -20567949.331 6     72041.31321        12.250           0.406
  17777483.562   -32820011.602 7  -1290650.38822        21.500           1.594
 91  5 20 20 23 29.9870000  0  3G19G11G 6
  18580166.812   -11450802.479 6    -71291.70921        13.750           0.406
  20483695.015   -20563125.734 6     75799.92521        12.500           0.125
  17766321.421   -32878672.967 7  -1336360.53621        22.000           0.094
 91  5 20 20 23 44.9870000  0  3G19G11G 6
  18579704.562   -11453218.693 6                        14.500
  20484635.304   -20558196.782 6     79640.59321        13.250           0.250
  17755165.968   -32937295.291 7                        22.000
 91  5 20 20 23 59.9870000  0  3G19G11G 6
  18579257.226   -11455578.334 6                        14.750
  20485592.343   -20553168.190 6                        13.000
  17744016.413   -32995883.933 7                        22.000
 91  5 20 20 24 14.9870000  0  3G19G11G 6
  18578818.749   -11457878.481 6                        14.750
  20486568.398   -20548037.385 6                        12.750
  17732874.546   -33054435.715 7        -0.42032        22.000           1.813
 91  5 20 20 24 29.9870000  0  3G19G11G 6
  18578393.234   -11460116.724 6        -0.29931        14.000           0.250
  20487562.694   -20542802.352 6        -0.35831        12.750           0.063
  17721742.030   -33112948.069 7    -45594.48221        22.500           0.938
 91  5 20 20 24 44.9870000  0  3G19G11G 6
  18577977.624   -11462295.815 6                        14.250
  20488577.710   -20537466.173 6      4157.64421        12.500           0.313
  17710615.327   -33171423.790 7                        23.000
 91  5 20 20 24 59.9870000  0  3G19G11G 6
  18577574.616   -11464415.583 6                        13.500
  20489613.741   -20532029.106 6      8394.33421        12.500           0.031
  17699493.304   -33229862.553 7                        22.000
 91  5 20 20 25 14.9870000  0  3G19G11G 6
  18577181.319   -11466476.554 6        -0.18131        14.250           0.563
  20490665.593   -20526491.807 5     12709.04221        11.250           0.219
  17688378.187   -33288264.631 7        -0.21131        21.750           0.469
 91  5 20 20 25 29.9870000  0  3G19G11G 6
  18576803.874   -11468477.826 6     -1559.63521        14.250           1.094
  20491737.991   -20520853.792 5     17102.29421        11.250           0.375
  17677272.327   -33346628.959 7    -45478.85022        22.250           1.844
 91  5 20 20 25 44.9870000  0  3G19G11G 6
  18576430.984   -11470419.875 6     -3072.98121        14.750           1.000
  20492832.444   -20515115.708 5     21573.48221        11.750           0.344
  17666174.234   -33404955.831 7    -90928.34122        22.750           1.844
 91  5 20 20 25 59.9870000  0  3G19G11G 6
  18576073.194   -11472305.610 6     -4542.44121        14.000           0.969
  20493943.413   -20509280.869 5     26120.06121        11.750           0.469
  17655082.530   -33463248.090 7   -136350.85522        22.500           1.938
 91  5 20 20 26 14.9870000  0  3G19G11G 6
  18575725.148   -11474131.623 6     -5965.36721        14.000           1.000
  20495069.710   -20503346.206 5     30744.44021        11.500           0.438
  17643995.007   -33521502.257 7   -181743.69522        22.750           1.781
 91  5 20 20 26 29.9870000  0  3G19G11G 6
  18575389.413   -11475904.069 6     -7346.53821        13.750           1.031
  20496217.288   -20497318.251 5     35441.50121        11.500           0.375
  17632917.015   -33579724.341 7   -227111.52522        23.000           1.813
 91  5 20 20 26 44.9870000  0  3G19G11G 6
  18575062.296   -11477615.135 6     -8679.89821        14.000           1.000
  20497382.499   -20491189.435 5     40217.15221        11.500           0.344
  17621845.687   -33637906.225 7   -272448.03822        22.750           1.719
 91  5 20 20 26 59.9870000  0  3G19G11G 6
  18574749.335   -11479265.299 6     -9965.79721        13.750           1.063
  20498570.694   -20484960.621 5     45070.74721        11.500           0.313
  17610780.601   -33696048.283 7   -317753.51422        23.250           1.781
 91  5 20 20 27 14.9870000  0  3G19G11G 6
  18574447.374   -11480850.797 6    -11201.31121        13.750           1.063
  20499772.952   -20478628.486 5     50004.82021        10.750           0.281
  17599724.976   -33754146.688 7   -363024.98422        22.750           1.719
 91  5 20 20 27 29.9870000  0  3G19G11G 6
  18574156.499   -11482376.848 6    -12390.51121        13.500           1.063
  20500999.702   -20472198.402 5     55015.20921        11.250           0.313
  17588676.234   -33812206.345 7   -408266.25822        23.250           1.719
 91  5 20 20 27 44.9870000  0  3G19G11G 6
  18573877.421   -11483841.354 6    -13531.74021        13.750           1.031
  20502240.913   -20465668.657 5     60103.29321        11.250           0.469
  17577637.241   -33870225.102 7   -453475.65422        23.250           1.906
 91  5 20 20 27 59.9870000  0  3G19G11G 6
  18573612.882   -11485246.310 6    -14626.57121        12.750           0.938
  20503502.077   -20459041.439 5     65267.31021        11.250           0.344
  17566602.452   -33928204.664 7   -498654.52022        22.750           1.906
 91  5 20 20 28 14.9870000  0  3G19G11G 6
  18573353.960   -11486591.557 6    -15674.88121        13.500           0.750
  20504782.859   -20452317.043 5     70507.04221        10.750           0.406
  17555576.905   -33986144.953 7   -543802.78422        23.000           1.594
 91  5 20 20 28 29.9870000  0  3G19G11G 6
  18573108.429   -11487879.468 6    -16678.51021        13.750           0.875
  20506079.718   -20445498.181 5     75820.40921        11.250           0.438
  17544557.523   -34044048.058 7   -588922.06722        22.750           1.688
 91  5 20 20 28 44.9870000  0  3G19G11G 6
  18572875.773   -11489107.786 6    -17635.72221        13.750           0.094
  20507396.499   -20438582.899 5     81208.91921        10.750           0.063
  17533547.937   -34101911.605 7   -634010.53521        23.250           0.688
 91  5 20 20 28 59.9870000  0  3G19G11G 6
  18572655.773   -11490277.803 6                        12.750
  20508729.491   -20431572.814 5                        10.500
  17522542.648   -34159736.694 7   -679069.05321        22.750           0.188
 91  5 20 20 29 14.9870000  0  3G19G11G 6
  18572441.921   -11491391.096 6                        13.250
  20510082.398   -20424469.836 5                        11.250
  17511547.757   -34217524.789 7   -724098.70022        22.750           1.563
 91  5 20 20 29 29.9870000  0  3G19G11G 6
  18572243.921   -11492443.729 6                        12.750
  20511452.163   -20417270.704 5                        11.000
  17500558.194   -34275271.924 7   -769096.43821        23.500           0.188
 91  5 20 20 29 44.9870000  0  3G19G11G 6
  18572052.734   -11493436.752 6        -0.16631        13.750           0.875
  20512839.905   -20409976.399 5                        11.000
  17489575.866   -34332978.866 7   -814062.87222        23.500           1.750
 91  5 20 20 29 59.9870000  0  3G19G11G 6
  18571874.655   -11494371.181 6      -728.36121        13.250           0.063
  20514245.218   -20402588.275 5                        10.500
  17478604.249   -34390646.374 7   -858998.56921        23.000           0.125
 91  5 20 20 30 14.9870000  0  3G19G11G 6
  18571708.241   -11495248.098 6     -1411.74721        13.000           0.125
  20515667.366   -20395107.873 5                        10.250
  17467635.640   -34448275.441 7   -903904.33021        23.250           0.219
 91  5 20 20 30 29.9870000  0  3G19G11G 6
  18571555.132   -11496065.147 6     -2048.46121        12.500           0.844
  20517111.859   -20387532.986 5                        10.750
  17456676.679   -34505863.547 7   -948778.16622        23.750           1.688
 91  5 20 20 30 44.9870000  0  3G19G11G 6
  18571407.851   -11496822.914 6     -2638.98321        13.250           0.781
  20518571.304   -20379864.463 5                        11.000
  17445728.804   -34563410.845 7   -993620.17422        24.000           1.594
 91  5 20 20 30 59.9870000  0  3G19G11G 6
  18571279.491   -11497521.891 6     -3183.69521        12.250           0.813
  20520048.648   -20372103.066 5        -0.05331        11.000           0.375
  17434785.015   -34620917.781 7  -1038430.75322        23.750           1.719
 91  5 20 20 31 14.9870000  0  3G19G11G 6
  18571153.202   -11498163.166 6     -3683.44521        12.750           0.813
  20521541.327   -20364250.390 5      6118.85021        10.250           0.375
  17423848.804   -34678385.335 7  -1083210.64922        24.250           1.813
 91  5 20 20 31 29.9870000  0  3G19G11G 6
  18571046.101   -11498747.824 6     -4139.07321        12.000           0.844
  20523050.460   -20356307.928 5     12307.75721        10.000           0.375
  17412917.163   -34735814.455 7  -1127960.58922        23.750           1.781
 91  5 20 20 31 44.9870000  0  3G19G11G 6
  18570943.132   -11499274.390 6     -4549.45621        12.750           0.844
  20524579.632   -20348274.544 5     18567.49221        10.000           0.375
  17401998.116   -34793203.574 7  -1172679.36722        24.500           1.781
 91  5 20 20 31 59.9860000  0  3G19G11G 6
  18570853.182   -11499741.193 6     -4913.27021        13.250           0.906
  20526125.276   -20340149.476 5     24898.64921         9.750           0.375
  17391087.869   -34850547.083 7  -1217362.60522        24.250           2.000
 91  5 20 20 32 14.9860000  0  3G19G11G 6
  18570776.135   -11500147.394 6     -5229.84121        13.250           0.906
  20527689.299   -20331930.967 5     31302.65421         9.750           0.406
  17380181.260   -34907851.452 7  -1262015.33322        22.750           2.031
 91  5 20 20 32 29.9860000  0  3G19G11G 6
  18570709.479   -11500499.332 6     -5504.13021        13.000           0.750
  20529270.627   -20323626.377 5     37773.71921        10.500           0.313
  17369285.315   -34965119.139 7  -1306639.48922        23.500           2.031
 91  5 20 20 32 44.9860000  0  3G19G11G 6
  18570651.401   -11500800.108 6     -5738.56921        13.000           0.906
  20530866.752   -20315238.867 5     44309.39221        10.250           0.406
  17358393.822   -35022352.880 7  -1351237.18022        23.000           1.969
 91  5 20 20 32 59.9860000  0  2G19G 6
  18570605.502   -11501043.435 6     -5928.23921        12.750           0.906
  17347509.291   -35079546.449 7  -1395803.58322        22.750           2.000
 91  5 20 20 33 14.9860000  0  2G19G 6
  18570569.674   -11501229.200 6     -6073.04821        13.000           1.031
  17336635.127   -35136699.380 7  -1440338.31422        23.250           2.094
 91  5 20 20 33 29.9860000  0  2G19G 6
  18570546.315   -11501356.614 6                        12.750
  17325765.760   -35193810.711 7  -1484840.62722        23.000           2.219
 91  5 20 20 33 44.9860000  0  2G19G 6
  18570532.369   -11501428.323 6                        13.000
  17314905.783   -35250882.936 7  -1529312.47922        23.500           2.094
 91  5 20 20 33 59.9860000  0  2G19G 6
  18570531.885   -11501446.885 6                        12.000
  17304052.510   -35307918.478 7  -1573755.73822        23.750           2.313
 91  5 20 20 34 14.9860000  0  2G19G 6
  18570537.596   -11501404.651 6                        12.750
  17293207.869   -35364909.432 7  -1618164.26022        23.500           2.156
 91  5 20 20 34 29.9860000  0  2G19G 6
  18570556.799   -11501305.498 6                        12.250
  17282371.432   -35421859.486 7  -1662540.90622        24.250           2.031
 91  5 20 20 34 44.9860000  0  2G19G 6
  18570584.986   -11501149.985 6                        12.500
  17271541.619   -35478769.132 7  -1706886.06722        24.250           2.219
 91  5 20 20 34 59.9860000  0  2G19G 6
  18570626.994   -11500936.403 6                        12.500
  17260718.776   -35535636.421 7  -1751198.22622        23.500           2.313
 91  5 20 20 35 14.9860000  0  2G19G 6
  18570677.252   -11500671.283 6     -5638.82621        13.000           0.781
  17249902.065   -35592467.752 7  -1795482.35922        23.000           2.156
 91  5 20 20 35 29.9860000  0  2G19G 6
  18570738.752   -11500349.480 6     -5388.13421        12.750           0.781
  17239095.135   -35649257.771 7  -1839734.30422        23.250           2.094
 91  5 20 20 35 44.9860000  0  2G19G 6
  18570810.658   -11499969.046 6     -5091.75121        12.750           0.813
  17228298.041   -35706004.385 7  -1883952.42222        23.500           2.344
 91  5 20 20 35 59.9860000  0  2G19G 6
  18570895.026   -11499532.578 6     -4751.71621        12.000           0.719
  17217508.908   -35762709.886 7  -1928138.50922        23.500           2.156
 91  5 20 20 36 14.9860000  0  2G19G 6
  18570987.002   -11499039.492 6     -4367.56321        12.000           0.781
  17206725.283   -35819373.651 7  -1972292.07322        22.500           2.219
 91  5 20 20 36 29.9860000  0  2G19G 6
  18571092.268   -11498492.112 6     -3941.09821        12.500           0.813
  17195949.315   -35875997.720 7  -2016414.71222        22.750           2.438
 91  5 20 20 36 44.9860000  0  2G19G 6
  18571204.627   -11497892.183 6     -3473.68421        12.500           0.719
  17185181.510   -35932583.664 7  -2060507.64222        23.250           2.125
 91  5 20 20 36 59.9860000  0  2G19G 6
  18571331.221   -11497237.366 5     -2963.50221        11.750           0.656
  17174422.502   -35989129.087 7  -2104568.99722        23.000           2.125
 91  5 20 20 37 14.9860000  0  2G19G 6
  18571465.143   -11496527.810 5     -2410.66321        11.500           0.813
  17163668.901   -36045633.975 7  -2148598.76222        22.750           2.094
 91  5 20 20 37 29.9860000  0  2G19G 6
  18571612.377   -11495760.487 5     -1812.82221        11.250           0.813
  17152923.924   -36102095.005 7  -2192594.35022        22.500           2.250
 91  5 20 20 37 44.9860000  0  2G19G 6
  18571767.518   -11494943.038 6     -1175.91621        12.000           0.750
  17142187.752   -36158519.644 7  -2236561.58622        23.000           2.125
 91  5 20 20 37 59.9860000  0  2G19G 6
  18571935.768   -11494070.271 5      -495.90021        11.750           0.938
  17131458.447   -36214902.482 7  -2280496.25122        22.750           2.063
 91  5 20 20 38 14.9860000  0  2G19G 6
  18572111.924   -11493137.179 5       231.11621        11.750           0.875
  17120736.580   -36271238.362 7  -2324394.32422        22.500           2.250
 91  5 20 20 38 29.9860000  0  2G19G 6
  18572297.627   -11492154.133 5       997.02621        11.000           0.094
  17110025.596   -36327537.417 7  -2368263.71521        22.750           0.281
 91  5 20 20 38 44.9860000  0  2G19G 6
  18572493.455   -11491118.945 5      1803.62521        11.500           0.813
  17099318.088   -36383797.118 7  -2412102.41922        23.000           2.125
 91  5 20 20 38 59.9860000  0  2G19G 6
  18572704.424   -11490025.342 5      2655.72521        11.500           0.781
  17088621.440   -36440011.162 7  -2455905.55122        23.000           2.094
 91  5 20 20 39 14.9860000  0  2G19G 6
  18572923.018   -11488876.173 6      3551.11621        12.000           0.719
  17077932.502   -36496182.057 7  -2499675.06722        23.250           2.031
 91  5 20 20 39 29.9860000  0  2G19G 6
  18573151.533   -11487673.613 5      4488.09821        11.500           0.813
  17067251.721   -36552311.724 7  -2543412.45522        23.250           2.094
 91  5 20 20 39 44.9860000  0  2G19G 6
  18573390.510   -11486416.357 5      5467.71521        11.750           0.813
  17056578.744   -36608398.879 7  -2587116.72022        23.500           1.844
 91  5 20 20 39 59.9860000  0  2G19G 6
  18573642.229   -11485102.751 5      6491.23721        11.500           0.656
  17045914.088   -36664441.684 7  -2630786.42522        23.250           2.031
 91  5 20 20 40 14.9860000  0  2G19G 6
  18573900.611   -11483735.243 6      7556.75121        12.000           0.688
  17035257.236   -36720442.457 7  -2674423.37722        22.750           1.625
 91  5 20 20 40 29.9860000  0  2G19G 6
  18574173.252   -11482316.177 5      8662.45421        11.750           0.656
  17024608.768   -36776403.109 7  -2718029.06822        23.000           1.813
 91  5 20 20 40 44.9860000  0  2G19G 6
  18574450.744   -11480842.452 6      9810.74721        12.000           0.688
  17013967.697   -36832320.485 7  -2761601.03622        23.000           2.125
 91  5 20 20 40 59.9860000  0  2G19G 6
  18574740.838   -11479316.891 5     10999.43021        11.750           0.688
  17003335.799   -36888197.104 7  -2805141.25222        23.000           2.000
 91  5 20 20 41 14.9860000  0  2G19G 6
  18575042.526   -11477738.096 5     12229.59221        11.500           0.719
  16992710.033   -36944031.421 7  -2848648.50322        22.750           2.250
 91  5 20 20 41 29.9860000  0  2G19G 6
  18575355.385   -11476106.621 5     13500.79021        11.000           0.781
  16982092.776   -36999823.775 7  -2892123.05822        22.250           2.219
 91  5 20 20 41 44.9860000  0  2G19G 6
  18575673.143   -11474420.657 5     14814.46321        11.250           0.656
  16971484.526   -37055572.113 7  -2935563.31322        22.750           2.125
 91  5 20 20 41 59.9860000  0  2G19G 6
  18576006.533   -11472677.935 5     16172.36321        10.750           0.688
  16960882.986   -37111274.084 7  -2978967.43422        22.750           2.250
 91  5 20 20 42 14.9860000  0  2G19G 6
  18576344.533   -11470882.352 5     17571.44521        10.750           0.563
  16950294.276   -37166933.260 7  -3022338.21222        22.750           1.844
 91  5 20 20 42 29.9860000  0  2G19G 6
  18576699.096   -11469030.768 5     19014.16221        11.000           0.563
  16939709.721   -37222546.430 7  -3065673.14522        22.500           2.063
 91  5 20 20 42 44.9860000  0  2G19G 6
  18577060.893   -11467121.990 5     20501.45421        11.000           0.688
  16929135.010   -37278112.089 7  -3108971.04322        22.500           2.281
 91  5 20 20 42 59.9860000  0  2G19G 6
  18577439.151   -11465159.171 5     22030.84521        10.750           0.625
  16918570.658   -37333633.271 7  -3152234.29522        22.750           2.156
 91  5 20 20 43 14.9860000  0  2G19G 6
  18577820.283   -11463142.643 5     23602.09721        11.500           0.688
  16908013.604   -37389109.936 7  -3195462.85422        22.750           2.250
 91  5 20 20 43 29.9850000  0  2G19G 6
  18578217.169   -11461073.543 5     25214.30721        11.000           0.688
  16897464.997   -37444539.312 7  -3238654.56022        22.750           2.094
 91  5 20 20 43 44.9850000  0  2G19G 6
  18578617.693   -11458951.624 5     26867.67121        11.750           0.531
  16886925.505   -37499928.478 7  -3281814.93722        22.500           1.844
 91  5 20 20 43 59.9850000  0  2G19G 6
  18579034.943   -11456781.767 5     28558.38921        11.000           0.719
  16876393.778   -37555278.390 7  -3324944.71822        23.250           2.219
 91  5 20 20 44 14.9850000  0  2G19G 6
  18579455.341   -11454557.562 6     30291.46321        12.000           0.594
  16865869.435   -37610582.365 7  -3368038.72222        23.250           1.875
 91  5 20 20 44 29.9850000  0  2G19G 6
  18579888.216   -11452277.108 6     32068.37121        12.000           0.531
  16855353.567   -37665838.412 7  -3411095.36522        23.250           2.219
 91  5 20 20 44 44.9850000  0  2G19G 6
  18580332.380   -11449940.099 5     33889.35421        11.250           0.469
  16844848.278   -37721045.912 7  -3454114.18622        23.500           1.781
 91  5 20 20 44 59.9850000  0  2G19G 6
  18580787.208   -11447549.039 5     35752.44321        11.250           0.500
  16834352.036   -37776207.051 7  -3497096.87522        23.750           1.719
 91  5 20 20 45 14.9850000  0  2G19G 6
  18581251.489   -11445106.467 5     37655.65721        11.000           0.688
  16823863.294   -37831324.206 7  -3540045.29422        23.250           2.125
 91  5 20 20 45 29.9850000  0  2G19G 6
  18581728.161   -11442614.446 5     39597.42621        11.000           0.719
  16813383.130   -37886399.271 7  -3582960.90922        23.250           2.188
 91  5 20 20 45 44.9850000  0  2G19G 6
  18582210.700   -11440063.617 5     41585.00021        11.000           0.719
  16802912.099   -37941422.702 7  -3625836.30022        23.250           2.219
 91  5 20 20 45 59.9850000  0  2G19G 6
  18582708.724   -11437457.787 5     43615.44821        10.750           0.594
  16792449.232   -37996398.196 7  -3668674.33022        23.000           2.313
 91  5 20 20 46 14.9850000  0  2G19G 6
  18583213.896   -11434797.446 5     45688.36021        10.500           0.219
  16781998.310   -38051325.832 7  -3711475.07522        23.000           1.656
 91  5 20 20 46 29.9850000  0  2G19G 6
  18583732.989   -11432083.959 5                        10.000
  16771553.849   -38106206.662 7                        22.500
 91  5 20 20 46 44.9850000  0  2G19G 6
  18584255.896   -11429317.033 5                        10.750
  16761119.896   -38161040.109 7                        22.750
 91  5 20 20 46 59.9850000  0  2G19G 6
  18584793.919   -11426500.601 5                        10.750
  16750694.067   -38215830.127 7                        22.750
 91  5 20 20 47 14.9850000  0  2G19G 6
  18585340.911   -11423626.931 5                        10.750
  16740277.442   -38270568.755 7                        23.250
 91  5 20 20 47 29.9850000  0  2G19G 6
  18585898.013   -11420701.765 5                        10.250
  16729871.028   -38325261.564 7        -0.41532        23.250           2.375
 91  5 20 20 47 44.9850000  0  2G19G 6
  18586463.536   -11417721.467 5                        10.500
  16719471.544   -38379904.726 7    -42579.50422        23.000           2.094
 91  5 20 20 47 59.9850000  0  2G19G 6
  18587043.482   -11414687.369 5        -0.02731        10.500           0.031
  16709082.771   -38434499.223 7    -85120.73821        23.000           0.125
 91  5 20 20 48 14.9850000  0  2G19G 6
  18587629.075   -11411606.178 5      2400.85321        11.250           0.531
  16698701.638   -38489051.584 7   -127628.95322        23.500           2.188
 91  5 20 20 48 29.9850000  0  2G19G 6
  18588227.763   -11408470.045 5      4844.52821        10.500           0.469
  16688330.763   -38543553.636 7   -170098.07322        23.500           1.938
 91  5 20 20 48 44.9850000  0  2G19G 6
  18588831.622   -11405278.934 5      7331.01621        10.750           0.125
  16677969.060   -38598005.041 7   -212527.76121        23.500           0.250
 91  5 20 20 48 59.9850000  0  2G19G 6
  18589449.552   -11402037.315 5      9856.89921        10.250           0.063
  16667615.685   -38652410.028 7   -254921.23321        23.500           0.063
 91  5 20 20 49 14.9850000  0  2G19G 6
  18590075.661   -11398744.023 5     12423.00821        10.500           0.563
  16657271.833   -38706767.347 7   -297277.54622        23.750           2.250
 91  5 20 20 49 29.9850000  0  2G19G 6
  18590711.450   -11395401.461 5     15027.52021        10.000           0.563
  16646936.317   -38761079.214 7   -339598.47222        23.750           2.031
 91  5 20 20 49 44.9850000  0  3G13G19G 6
  19617339.857          -0.30713                         6.000
  18591357.021   -11392007.423 5     17672.13421        10.750           0.594
  16636610.661   -38815343.388 7   -381882.23222        24.500           2.125
 91  5 20 20 49 59.9850000  0  3G13G19G 6
  19599178.802      -95446.474 3                         5.500
  18592014.982   -11388559.024 5     20359.11321        10.750           0.469
  16626294.122   -38869556.483 7   -424126.18922        24.500           2.125
 91  5 20 20 50 14.9850000  0  3G13G19G 6
  19581017.357     -190871.960 3                         5.500
  18592680.552   -11385058.960 5     23086.36321        11.000           0.625
  16615986.521   -38923720.911 7   -466332.22023        24.500           2.531
 91  5 20 20 50 29.9850000  0  3G13G19G 6
  19562863.841     -286278.095 3                         5.750
  18593357.091   -11381508.961 5     25852.52321        10.250           0.438
  16605688.216   -38977838.092 7   -508501.44223        24.000           2.531
 91  5 20 20 50 44.9850000  0  3G13G19G 6
  19544712.614     -381662.549 3                         5.750
  18594041.849   -11377907.330 5     28658.90221        11.000           0.563
  16595399.060   -39031906.256 7   -550632.46622        24.000           2.469
 91  5 20 20 50 59.9850000  0  3G13G19G 6
  19526563.810     -477023.238 3                         6.000
  18594738.130   -11374252.039 5     31507.10821        10.500           0.625
  16585121.099   -39085923.162 7   -592723.55822        24.250           2.406
 91  5 20 20 51 14.9850000  0  3G13G19G 6
  19508423.935     -572357.464 3                         5.750
  18595441.661   -11370541.122 5     34398.65021        10.500           0.656
  16574852.388   -39139886.776 7   -634773.11522        24.250           2.406
 91  5 20 20 51 29.9850000  0  3G13G19G 6
  19490286.685     -667667.173 3                         5.750
  18596160.450   -11366777.105 5     37331.56221        10.250           0.531
  16564593.208   -39193799.196 7   -676782.77622        24.250           2.375
 91  5 20 20 51 44.9850000  0  3G13G19G 6
  19472153.278     -762954.258 3                         5.500
  18596885.653   -11362962.346 5     40304.02721        10.250           0.656
  16554342.692   -39247662.411 7   -718754.09922        24.500           2.406
 91  5 20 20 51 59.9850000  0  3G13G19G 6
  19454023.466     -858218.733 3                         5.250
  18597622.685   -11359097.399 5     43315.58121        10.000           0.531
  16544101.755   -39301476.810 7   -760687.38422        24.500           2.375
 91  5 20 20 52 14.9850000  0  3G13G19G 6
  19435900.388     -953462.136 3                         5.500
  18598365.700   -11355183.916 5     46364.96721        10.250           0.594
  16533870.380   -39355243.880 7   -802583.78722        24.500           2.188
 91  5 20 20 52 29.9850000  0  3G13G19G 6
  19417783.294    -1048678.590 3                         5.500
  18599120.474   -11351216.404 5     49456.45221         9.750           0.656
  16523649.224   -39408957.891 7   -844438.85022        24.500           2.156
 91  5 20 20 52 44.9850000  0  3G13G19G 6
  19399663.997    -1143876.339 3                         5.750
  18599884.388   -11347203.749 5     52583.12921        10.000           0.563
  16513437.005   -39462627.326 7   -886259.17222        24.750           2.250
 91  5 20 20 52 59.9850000  0  3G13G19G 6
  19381554.536    -1239050.079 3                         5.750
  18600660.919   -11343140.987 5     55748.82021         9.250           0.469
  16503234.208   -39516247.155 7   -928040.84122        25.000           2.438
 91  5 20 20 53 14.9850000  0  3G13G19G 6
  19363448.161    -1334196.757 3                         5.750
  18601441.380   -11339025.507 5     58955.60621         9.750           0.625
  16493038.817   -39569814.503 7   -969781.62222        24.500           2.281
 91  5 20 20 53 29.9850000  0  3G13G19G 6
  19345346.318    -1429314.645 3        -0.33631         6.000           0.125
  18602233.966   -11334855.947 5     62204.52721         9.750           0.594
  16482856.146   -39623327.909 7  -1011480.36122        24.250           2.313
 91  5 20 20 53 44.9850000  0  3G13G19G 6
  19327253.419    -1524405.775 4    -74097.09821         6.250           0.156
  18603037.474   -11330634.962 5     65493.52221         9.750           0.563
  16472683.396   -39676789.625 7  -1053138.82722        24.500           2.375
 91  5 20 20 53 59.9850000  0  3G13G19G 6
  19309160.989    -1619472.339 4   -148174.73021         6.250           0.188
  18603852.771   -11326365.125 5     68820.59921         9.250           0.500
  16462519.208   -39730201.859 7  -1094758.73722        24.500           2.344
 91  5 20 20 54 14.9850000  0  3G13G19G 6
  19291076.403    -1714506.730 4   -222227.28021         6.500           0.063
  18604674.411   -11322039.177 5     72191.39621         9.500           0.563
  16452364.067   -39783557.349 7  -1136334.42922        24.250           2.438
 91  5 20 20 54 29.9850000  0  3G13G19G 6
  19272998.700    -1809509.294 3                         6.000
  18605508.450   -11317658.070 5     75605.17021         8.500           0.156
  16442222.138   -39836856.610 7  -1177866.33221        23.250           0.031
 91  5 20 20 54 44.9840000  0  3G13G19G 6
  19254927.016    -1904474.368 4                         6.250
  18606351.508   -11313223.208 5     79060.80221         9.250           0.625
  16432091.820   -39890097.038 7  -1219352.35622        24.250           2.219
 91  5 20 20 54 59.9840000  0  3G13G19G 6
  19236858.852    -1999415.553 4                         6.500
  18607204.828   -11308735.547 5     82557.61421         9.500           0.531
  16421970.742   -39943286.917 7  -1260798.97922        24.250           2.313
 91  5 20 20 55 14.9840000  0  3G13G19G 6
  19218800.289    -2094323.621 4                         6.750
  18608070.961   -11304192.756 5     86097.34821         9.500           0.563
  16411858.477   -39996419.920 7  -1302201.31422        24.250           2.156
 91  5 20 20 55 29.9840000  0  3G13G19G 6
  19200744.695    -2189205.365 4                         7.000
  18608948.024   -11299601.973 5     89674.49921         9.000           0.688
  16401757.820   -40049503.024 7  -1343564.75722        24.250           2.313
 91  5 20 20 55 44.9840000  0  3G13G19G 6
  19182695.703    -2284055.452 4                         7.250
  18609827.578   -11294958.488 5     93292.72521         9.500           0.438
  16391666.938   -40102531.130 7  -1384885.35222        24.000           2.313
 91  5 20 20 55 59.9840000  0  3G13G19G 6
  19164649.141    -2378876.153 4                         7.000
  18610724.430   -11290264.943 5     96949.92921         9.250           0.438
  16381585.672   -40155506.697 7  -1426164.99722        24.500           2.219
 91  5 20 20 56 14.9840000  0  3G13G19G 6
  19146614.617    -2473663.114 4                         7.000
  18611624.109   -11285517.304 5    100649.30721         9.750           0.500
  16371515.563   -40208425.406 7  -1467400.34522        24.750           2.250
 91  5 20 20 56 29.9840000  0  3G13G19G 6
  19128583.430    -2568419.075 4                         6.750
  18612542.672   -11280719.062 5    104388.10721         9.000           0.406
  16361456.852   -40261290.347 7  -1508593.79322        24.750           2.344
 91  5 20 20 56 44.9840000  0  3G13G19G 6
  19110557.367    -2663137.552 4        -0.01831         7.000           0.063
  18613461.156   -11275863.885 5    108171.27121         9.250           0.438
  16351408.641   -40314095.219 7  -1549740.42722        25.000           2.375
 91  5 20 20 56 59.9840000  0  3G13G19G 6
  19092540.203    -2757822.741 4    -73780.53721         7.000           0.094
  18614395.500   -11270956.318 5    111995.24921         9.750           0.156
  16341368.539   -40366844.256 7  -1590843.58521        23.500           0.219
 91  5 20 20 57 14.9840000  0  3G13G19G 6
  19074527.484    -2852474.870 4   -147535.20921         6.750           0.063
  18615340.250   -11265997.421 5    115859.24221        10.250           0.438
  16331342.461   -40419538.083 7  -1631903.67822        23.500           2.219
 91  5 20 20 57 29.9840000  0  3G13G19G 6
  19056521.977    -2947098.091 4   -221267.39221         6.750           0.219
  18616288.984   -11260991.684 5    119759.73421        10.000           0.469
  16321324.008   -40472181.085 7  -1672924.19122        23.000           2.219
 91  5 20 20 57 44.9840000  0  3G13G19G 6
  19038522.125    -3041686.756 4   -294972.66621         7.000           0.219
  18617253.891   -11255933.663 5    123700.95721         9.750           0.375
  16311316.578   -40524767.603 7  -1713900.69122        24.000           2.281
 91  5 20 20 57 59.9840000  0  3G13G19G 6
  19020529.930    -3136239.028 4   -368649.55321         7.250           0.063
  18618227.758   -11250822.103 5    127683.89121         9.250           0.438
  16301323.149   -40577296.112 7  -1754831.99022        24.500           2.281
 91  5 20 20 58 14.9840000  0  3G13G19G 6
  19002543.774    -3230759.200 5   -442301.45421         7.500           0.156
  18619209.313   -11245662.012 5    131704.65021         8.750           0.375
  16291336.414   -40629771.292 7  -1795721.72422        24.250           2.375
 91  5 20 20 58 29.9840000  0  3G13G19G 6
  18984562.250    -3325246.981 5   -515928.09321         7.500           0.219
  18620200.133   -11240453.484 5    135763.14121         8.500           0.531
  16281360.258   -40682192.905 7  -1836569.72223        24.250           2.563
 91  5 20 20 58 44.9840000  0  3G13G19G 6
  18966588.094    -3419697.696 5   -589525.88321         7.500           0.125
  18621200.719   -11235192.472 5    139862.55621         8.750           0.406
  16271395.024   -40734556.616 7  -1877372.60423        23.750           2.656
 91  5 20 20 58 59.9840000  0  3G13G19G 6
  18948621.742    -3514109.291 5   -663093.16021         7.500           0.094
  18622215.891   -11229877.029 5    144004.36521         8.000           0.406
  16261442.149   -40786860.343 7  -1918128.75123        24.250           2.531
 91  5 20 20 59 14.9840000  0  3G13G19G 6
  18930663.477    -3608484.198 5   -736631.89221         7.750           0.156
  18623234.305   -11224510.033 5    148186.34821         8.750           0.406
  16251500.914   -40839106.733 7  -1958840.21322        24.750           2.469
 91  5 20 20 59 29.9840000  0  3G13G19G 6
  18912712.563    -3702824.112 5   -810143.31221         7.750           0.125
  18624265.133   -11219093.598 5    152406.84421         9.000           0.563
  16241570.508   -40891297.722 7  -1999508.50723        24.500           2.594
 91  5 20 20 59 44.9840000  0  3G13G19G 6
  18894766.664    -3797125.834 5   -883625.02221         8.250           0.219
  18625305.250   -11213625.026 5    156667.99121         9.500           0.406
  16231649.367   -40943430.100 7  -2040131.12922        25.000           2.250
 91  5 20 20 59 59.9840000  0  3G13G19G 6
  18876827.922    -3891392.685 5   -957079.56521         8.000           0.125
  18626357.477   -11208108.265 5    160966.66021         9.250           0.531
  16221738.914   -40995507.636 7  -2080711.02822        24.500           2.406
 91  5 20 21  0 14.9840000  0  3G13G19G 6
  18858897.297    -3985623.026 5  -1030505.60221         7.750           0.125
  18627414.578   -11202542.158 5    165303.79921         9.000           0.438
  16211839.500   -41047528.798 7  -2121246.98722        24.750           2.156
 91  5 20 21  0 29.9840000  0  3G13G19G 6
  18840971.180    -4079813.572 5  -1103900.67621         8.250           0.125
  18628483.125   -11196923.708 5    169681.71321         8.500           0.438
  16201950.906   -41099490.368 7  -2161736.50723        24.250           2.688
 91  5 20 21  0 44.9840000  0  4G13G19G 2G 6
  18823056.656    -4173969.381 5  -1177268.65921         8.500           0.125
  18629563.297   -11191258.580 5    174095.99821         8.500           0.500
  15878580.750          -0.84518                        29.000
  16192074.203   -41151397.892 7  -2202183.92123        24.500           2.500
 91  5 20 21  0 59.9840000  0  4G13G19G 2G 6
  18805144.430    -4268085.391 5  -1250605.65321         8.750           0.063
  18630653.711   -11185542.096 5    178550.31921         8.500           0.469
  15872642.539      -31211.422 8                        29.000
  16182207.063   -41203246.481 7  -2242585.41223        24.750           2.594
 91  5 20 21  1 14.9840000  0  4G13G19G 2G 6
  18787243.836    -4362161.903 5  -1323911.83821         8.750           0.156
  18631748.258   -11179774.966 5    183044.09721         9.000           0.313
  15866715.344      -62358.261 8        -0.32133        29.500           2.813
  16172351.680   -41255036.558 7  -2282941.30623        24.000           2.594
 91  5 20 21  1 29.9840000  0  4G13G19G 2G 6
  18769347.836    -4456200.903 5  -1397188.83821         8.000           0.250
  18632854.156   -11173959.638 5    187575.43321         9.250           0.375
  15860799.688      -93443.672 8    -24222.71623        29.000           2.594
  16162507.430   -41306770.123 7  -2323253.17322        24.250           2.406
 91  5 20 21  1 44.9840000  0  3G13G19G 6
  18751459.813    -4550201.608 5  -1470435.96021         8.250           0.156
  18633972.172   -11168095.980 5    192144.43221         9.500           0.531
  16152674.172   -41358446.794 7  -2363520.70323        24.250           2.563
 91  5 20 21  1 59.9840000  0  3G13G19G 6
  18733579.430    -4644161.085 5  -1543650.93921         8.500           0.188
  18635095.719   -11162181.323 5    196753.15221         9.000           0.563
  16142852.219   -41410063.664 7  -2403741.63322        24.000           2.375
 91  5 20 21  2 14.9840000  0  3G13G19G 6
  18715706.359    -4738081.562 5  -1616835.60821         8.500           0.063
  18636230.305   -11156218.302 5    201399.55321         8.750           0.563
  16133039.227   -41461623.198 7  -2443917.88723        24.250           2.656
 91  5 20 21  2 29.9840000  0  3G13G19G 6
  18697841.156    -4831961.796 5  -1689988.83821         8.500           0.188
  18637372.609   -11150206.172 5    206084.22721         8.250           0.531
  16123239.703   -41513124.380 7  -2484048.67623        24.000           2.656
 91  5 20 21  2 44.9840000  0  3G13G19G 6
  18679984.109    -4925802.815 5  -1763111.56221         9.000           0.156
  18638526.859   -11144146.492 5    210805.93421         8.750           0.438
  16113450.063   -41564568.325 7  -2524134.85523        24.250           2.656
 91  5 20 21  2 59.9840000  0  3G13G19G 6
  18662133.195    -5019606.405 5  -1836205.09921         9.000           0.125
  18639692.391   -11138041.518 5    215562.93821         8.250           0.375
  16103671.203   -41615957.146 7  -2564178.08223        24.500           2.656
 91  5 20 21  3 14.9840000  0  3G13G19G 6
  18644291.453    -5113368.735 5  -1909266.49921         9.000           0.219
  18640860.328   -11131887.884 5    220357.87921         9.000           0.469
  16093903.961   -41667287.292 7  -2604175.60122        24.750           2.438
 91  5 20 21  3 29.9840000  0  3G13G19G 6
  18626455.492    -5207088.208 5  -1982294.48921         8.250           0.063
  18642042.680   -11125684.220 5    225191.79921         9.250           0.406
  16084146.406   -41718557.095 7  -2644126.07923        23.750           2.594
 91  5 20 21  3 44.9840000  0  4G13G19G15G 6
  18608630.391    -5300760.319 5  -2055285.57121         8.250           0.188
  18643231.758   -11119426.755 5    230067.66321         9.500           0.406
  19377490.703      -55165.040 5                         9.500
  16074403.609   -41769762.345 7  -2684026.26622        24.000           2.469
 91  5 20 21  3 59.9840000  0  4G13G19G15G 6
  18590813.289    -5394391.117 5  -2128244.49221         8.250           0.156
  18644432.750   -11113121.869 5    234980.50021         9.250           0.406
  19367009.297     -110226.377 5                         9.250
  16064670.602   -41820909.248 7  -2723880.99023        24.500           2.531
 91  5 20 21  4 14.9840000  0  4G13G19G15G 6
  18573002.742    -5487975.926 5  -2201167.53321         8.250           0.188
  18645640.477   -11106765.230 5    239933.62921         9.000           0.438
  19356553.680     -165179.340 5                         9.500
  16054949.813   -41871993.305 7  -2763686.74323        24.250           2.594
 91  5 20 21  4 29.9840000  0  4G13G19G15G 6
  18555203.399    -5581518.498 5  -2274057.70821         8.000           0.188
  18646859.649   -11100361.369 5    244923.53621         8.000           0.406
  19346114.227     -220027.986 5                        10.000
  16045239.688   -41923018.570 7  -2803446.68323        24.250           2.531
 91  5 20 21  4 44.9840000  0  4G13G19G15G 6
  18537410.797    -5675014.899 5  -2346911.87321         8.000           0.188
  18648088.641   -11093906.680 5    249953.06021         8.000           0.688
  19335701.406     -274768.639 5        -0.28531        10.250           0.313
  16035540.578   -41973981.253 7  -2843157.85323        24.000           2.625
 91  5 20 21  4 59.9840000  0  4G13G19G15G 6
  18519628.969    -5768465.005 5  -2419729.98721         7.750           0.188
  18649326.461   -11087401.683 5    255021.76621         8.000           0.719
  19325302.453     -329401.251 5    -42571.11421        10.250           0.375
  16025856.266   -42024881.399 7  -2882820.29323        24.500           2.531
 91  5 20 21  5 14.9840000  0  4G13G19G15G 6
  18501854.008    -5861868.335 5  -2492511.60421         8.000           0.219
  18650573.234   -11080846.263 5    260129.77621         8.500           0.594
  19314927.172     -383925.569 5    -85057.54121        10.750           0.375
  16016180.844   -42075718.795 7  -2922433.83723        24.250           2.594
 91  5 20 21  5 29.9840000  0  4G13G19G15G 6
  18484089.711    -5955225.826 5  -2565257.52221         8.250           0.188
  18651834.297   -11074241.583 5    265276.17221         8.250           0.875
  19304574.313     -438342.322 5   -127460.14921        11.500           0.406
  16006518.836   -42126494.521 7  -2961999.32923        23.250           2.688
 91  5 20 21  5 44.9840000  0  4G13G19G15G 6
  18466333.500    -6048535.246 5  -2637966.01721         8.500           0.125
  18653098.297   -11067585.898 5    270462.31021         8.500           0.844
  19294237.203     -492649.617 5   -169777.47321        11.500           0.375
  15996868.266   -42177206.366 7  -3001515.04423        23.000           2.625
 91  5 20 21  5 59.9830000  0  4G13G19G15G 6
  18448587.573    -6141789.219 5  -2710631.28121         8.750           0.156
  18654373.925   -11060879.145 5    275688.24021         8.750           0.656
  19283924.894     -546842.682 5   -212005.79621        10.750           0.406
  15987231.925   -42227850.261 7  -3040977.81023        23.500           2.781
 91  5 20 21  6 14.9830000  0  4G13G19G15G 6
  18430849.198    -6235002.458 5  -2783264.82421         8.250           0.219
  18655660.042   -11054123.164 5    280952.55021         8.750           0.625
  19273632.495     -600931.157 5   -254152.62221        10.000           0.344
  15977605.425   -42278435.259 7  -3080394.68323        24.000           2.625
 91  5 20 21  6 29.9830000  0  4G13G19G15G 6
  18413121.253    -6328170.065 5  -2855862.79821         8.500           0.125
  18656955.636   -11047320.120 5    286253.52621         8.000           0.594
  19263359.878     -654912.633 5   -296216.06021        11.000           0.313
  15967992.464   -42328959.468 7  -3119764.18723        24.000           2.719
 91  5 20 21  6 44.9830000  0  4G13G19G15G 6
  18395401.683    -6421285.639 5  -2928420.19821         8.750           0.250
  18658259.901   -11040463.993 5    291595.86921         7.750           0.625
  19253107.503     -708781.151 5   -338191.48621        11.500           0.406
  15958390.120   -42379416.628 7  -3159081.44023        23.750           2.688
 91  5 20 21  6 59.9830000  0  4G13G19G15G 6
  18377691.651    -6514356.362 5                         9.000
  18659575.011   -11033562.704 4    296973.36821         7.000           0.250
  19242878.487     -762543.912 5   -380084.54221        11.000           0.094
  15948798.605   -42429814.231 7  -3198352.29621        23.250           0.156
 91  5 20 21  7 14.9830000  0  4G13G19G15G 6
  18359991.284    -6607379.939 5                         9.750
  18660894.433   -11026614.250 4    302387.61321         7.250           0.188
  19232668.995     -816198.476 5                        10.250
  15939221.206   -42480150.192 7  -3237575.13622        23.750           2.438
 91  5 20 21  7 29.9830000  0  4G13G19G15G 6
  18342297.386    -6700357.590 5                         9.500
  18662224.917   -11019619.965 5    307837.61721         7.750           0.750
  19222478.480     -869746.103 5                        10.500
  15929653.620   -42530425.668 7  -3276750.78323        23.750           2.844
 91  5 20 21  7 44.9830000  0  4G13G19G15G 6
  18324611.448    -6793285.347 5                         9.500
  18663567.120   -11012576.874 5    313325.61621         8.000           0.625
  19212311.456     -923183.272 5                        11.250
  15920098.620   -42580637.146 7  -3315876.60623        23.500           2.813
 91  5 20 21  7 59.9830000  0  4G13G19G15G 6
  18306937.792    -6886162.850 5        -0.39031         9.500           0.219
  18664919.472   -11005485.183 5    318851.49021         8.250           0.781
  19202163.964     -976509.687 5        -0.45431        10.250           0.469
  15910554.558   -42630784.448 7  -3354952.41723        23.250           2.906
 91  5 20 21  8 14.9830000  0  4G13G19G15G 6
  18289273.198    -6978991.088 5    -72333.91021         9.500           0.219
  18666275.097   -10998346.113 5    324414.28321         9.000           0.656
  19192034.698    -1029726.380 5    -41467.96821         9.500           0.344
  15901025.276   -42680868.691 7  -3393979.08123        23.750           2.813
 91  5 20 21  8 29.9830000  0  4G13G19G15G 6
  18271618.628    -7071766.676 5   -144626.38121        10.000           0.188
  18667646.941   -10991156.809 5    330016.21921         8.250           0.625
  19181932.706    -1082830.108 5    -82847.44021         9.750           0.406
  15891507.066   -42730886.776 7  -3432954.20323        23.500           2.875
 91  5 20 21  8 44.9830000  0  4G13G19G15G 6
  18253973.034    -7164494.004 5   -216881.28921        10.000           0.156
  18669021.480   -10983922.133 5    335653.50721         8.500           0.500
  19171846.628    -1135825.407 5   -124142.46621        10.500           0.375
  15881999.972   -42780843.102 7  -3471881.20123        23.250           2.688
 91  5 20 21  8 59.9830000  0  4G13G19G15G 6
  18236337.542    -7257170.698 5   -289096.70221        10.000           0.219
  18670410.308   -10976640.393 5    341327.47221         7.750           0.438
  19161783.605    -1188710.376 5   -165351.50421        10.500           0.406
  15872506.745   -42830735.719 7  -3510758.55623        23.500           2.719
 91  5 20 21  9 14.9830000  0  4G13G19G15G 6
  18218710.308    -7349798.431 5                        10.000
  18671799.394   -10969313.391 5                         8.000
  19151738.464    -1241486.384 5                         9.500
  15863023.816   -42880566.256 7  -3549587.57321        23.500           0.188
 91  5 20 21  9 29.9830000  0  4G13G19G15G 6
  18201092.136    -7442377.868 5                        10.500
  18673203.151   -10961942.206 5                         8.000
  19141716.136    -1294154.261 5                        10.250
  15853553.464   -42930335.539 7  -3588368.77623        24.000           2.719
 91  5 20 21  9 44.9830000  0  4G13G19G15G 6
  18183486.011    -7534907.694 5                        10.500
  18674615.300   -10954526.227 5                         8.250
  19131716.308    -1346712.774 5                        10.500
  15844093.870   -42980042.523 7  -3627101.48523        23.750           2.781
 91  5 20 21  9 59.9830000  0  4G13G19G15G 6
  18165886.987    -7627383.721 5                        10.250
  18676035.464   -10947061.514 5        -0.03031         8.750           0.313
  19121734.417    -1399157.766 5        -0.32531        10.500           0.406
  15834648.261   -43029683.002 7  -3665782.37223        24.000           2.594
 91  5 20 21 10 14.9830000  0  4G13G19G15G 6
  18148298.698    -7719807.573 5        -0.11931        10.250           0.188
  18677465.308   -10939550.006 5      5852.99321         8.750           0.344
  19111774.667    -1451490.892 5    -40779.35821        10.000           0.438
  15825215.276   -43079258.746 7  -3704412.81223        24.250           2.625
 91  5 20 21 10 29.9830000  0  4G13G19G15G 6
  18130722.792    -7812176.384 5    -71975.61621         9.750           0.344
  18678904.706   -10931989.349 5     11744.29421         9.250           0.563
  19101841.761    -1503709.540 5    -81469.16421        10.250           0.406
  15815792.980   -43128767.134 7  -3742990.76623        23.750           2.594
 91  5 20 21 10 44.9830000  0  4G13G19G15G 6
  18113155.230    -7904491.398 5   -143909.20821        10.000           0.188
  18680351.862   -10924381.554 5     17672.31421         9.250           0.438
  19091924.534    -1555815.153 5   -122070.91721        10.500           0.469
  15806384.026   -43178209.752 7  -3781517.47523        23.250           2.688
 91  5 20 21 10 59.9830000  0  4G13G19G15G 6
  18095599.784    -7996751.067 5   -215799.68821        10.250           0.219
  18681810.042   -10916725.600 5     23637.87421         9.000           0.563
  19082028.151    -1607806.485 5   -162583.60021        10.250           0.500
  15796987.628   -43227585.329 7  -3819991.94423        22.500           2.688
 91  5 20 21 11 14.9830000  0  4G13G19G15G 6
  18078051.573    -8088957.277 5   -287648.46221        10.250           0.094
  18683274.417   -10909023.701 5     29639.22621         8.750           0.469
  19072159.245    -1659685.290 5   -203008.59421        10.500           0.469
  15787604.737   -43276895.797 7  -3858415.67923        23.250           2.594
 91  5 20 21 11 29.9830000  0  4G13G19G15G 6
  18060516.901    -8181109.801 5   -359455.46521        10.250           0.125
  18684752.019   -10901276.106 5     35676.18721         8.250           0.344
  19062308.276    -1711451.465 5   -243345.82621        10.750           0.406
  15778233.980   -43326141.141 7  -3896788.66323        23.500           2.563
 91  5 20 21 11 44.9830000  0  4G13G19G15G 6
  18042991.917    -8273207.145 5   -431219.42921        10.250           0.219
  18686231.558   -10893481.790 5     41749.57521         7.750           0.313
  19052476.683    -1763103.714 5   -283594.28921        11.250           0.469
  15768874.597   -43375319.863 7  -3935109.73423        23.500           2.813
 91  5 20 21 11 59.9830000  0  4G13G19G15G 6
  18025475.409    -8365249.253 5   -502940.35721        10.250           0.250
  18687722.191   -10885641.199 4     47859.00921         7.250           0.344
  19042672.730    -1814642.076 5   -323754.00121        11.000           0.438
  15759529.480   -43424432.200 7  -3973379.08123        23.500           2.719
 91  5 20 21 12 14.9830000  0  4G13G19G15G 6
  18007969.941    -8457239.842 5   -574621.15221        10.000           0.281
  18689222.925   -10877758.601 5     54001.16621         7.500           0.344
  19032882.980    -1866070.477 5   -363828.04521        11.000           0.438
  15750195.769   -43473482.177 7  -4011599.83723        23.500           2.844
 91  5 20 21 12 29.9830000  0  4G13G19G15G 6
  17990474.050    -8549177.563 5   -646260.73621         9.750           0.281
  18690731.566   -10869833.047 4     60176.81721         7.250           0.250
  19023119.745    -1917387.692 5   -403815.42721        10.750           0.469
  15740873.394   -43522468.468 7  -4049770.96323        23.500           2.844
 91  5 20 21 12 44.9830000  0  4G13G19G15G 6
  17972991.206    -8641057.304 5   -717855.16121        10.000           0.250
  18692250.425   -10861859.977 4     66389.45921         7.250           0.250
  19013373.761    -1968588.899 5   -443712.41221        11.000           0.438
  15731566.339   -43571386.321 7  -4087888.76423        23.250           2.844
 91  5 20 21 12 59.9830000  0  5G13G19G15G 2G 6
  17955516.198    -8732881.446 5   -789406.25921        10.250           0.344
  18693775.472   -10853842.259 4     72636.93921         7.000           0.281
  19003656.636    -2019676.451 5   -483520.86221        10.750           0.406
  15601417.159          -0.71818                        29.250
  15722269.183   -43620238.317 7  -4125955.24623        23.500           2.781
 91  5 20 21 13 14.9830000  0  5G13G19G15G 2G 6
  17938055.175    -8824647.347 5   -860911.96521        10.750           0.281
  18695308.706   -10845777.600 4     78920.97321         7.250           0.281
  18993954.909    -2070647.629 5   -523238.65221        11.000           0.469
  15596048.636      -28214.709 8                        29.500
  15712986.683   -43669021.585 7  -4163968.17823        23.750           2.781
 91  5 20 21 13 29.9830000  0  5G13G19G15G 2G 6
  17920603.097    -8916357.950 5   -932374.59621        11.000           0.281
  18696854.581   -10837669.359 4     85238.96821         7.250           0.313
  18984277.925    -2121505.574 5   -562868.15121        10.500           0.375
  15590689.878      -56371.651 8                        29.250
  15703716.409   -43717739.607 7  -4201930.26623        23.750           2.750
 91  5 20 21 13 44.9830000  0  5G13G19G15G 2G 6
  17903162.159    -9008011.161 5  -1003792.52021        11.000           0.188
  18698404.222   -10829515.953 5     91592.13521         7.750           0.375
  18974621.878    -2172248.295 5   -602407.88821        10.250           0.438
  15585343.839      -84470.093 8                        29.250
  15694456.550   -43766390.288 7  -4239839.88323        23.500           2.969
 91  5 20 21 13 59.9830000  0  5G13G19G15G 2G 6
  17885731.839    -9099602.826 5  -1075162.44621        10.750           0.281
  18699963.612   -10821313.736 5     97983.36721         7.750           0.469
  18964987.323    -2222871.822 5   -641854.74421        11.000           0.375
  15580008.175     -112506.249 8        -0.47733        29.000           3.031
  15685214.089   -43814969.763 7  -4277694.01523        24.250           2.844
 91  5 20 21 14 14.9830000  0  5G13G19G15G 2G 6
  17868313.206    -9191138.967 5  -1146489.14021        11.000           0.250
  18701535.566   -10813069.071 4    104407.65721         7.250           0.375
  18955375.550    -2273382.227 5   -681213.45421        10.500           0.313
  15574683.542     -140486.474 8    -21803.25423        29.500           3.094
  15675980.495   -43863484.087 7  -4315497.36623        23.500           2.875
 91  5 20 21 14 29.9830000  0  5G13G19G15G 2G 6
  17850905.948    -9282616.968 5  -1217770.50921        11.500           0.375
  18703111.120   -10804779.705 4    110866.76121         7.000           0.469
  18945786.425    -2323777.298 5   -720482.30121        10.500           0.344
  15569370.847     -168408.444 8    -43560.63323        28.750           3.094
  15666762.058   -43911930.712 7  -4353247.98323        24.250           2.844
 91  5 20 21 14 44.9830000  0  5G13G19G15G 2G 6
  17833508.909    -9374036.550 5  -1289006.38721        11.750           0.281
  18704696.831   -10796446.318 4    117360.17621         7.000           0.406
  18936216.691    -2374056.700 5   -759661.00921        10.500           0.313
  15564066.401     -196272.678 8    -65273.02623        28.000           2.969
  15657555.136   -43960309.834 7  -4390945.98423        23.750           2.875
 91  5 20 21 14 59.9830000  0  5G13G19G15G 2G 6
  17816123.073    -9465396.473 6  -1360195.78021        12.000           0.219
  18706293.198   -10788067.883 4    123888.69221         6.750           0.500
  18926670.542    -2424219.413 5   -798748.79621        11.250           0.344
  15558776.839     -224078.387 8    -86939.81723        29.250           2.844
  15648363.339   -44008620.266 7  -4428590.47323        23.250           2.750
 91  5 20 21 15 14.9830000  0  5G13G19G15G 2G 6
  17798748.964    -9556698.789 5  -1431340.26721        11.750           0.219
  18707896.159   -10779647.057 4    130450.22421         6.750           0.563
  18917147.964    -2474267.593 5   -837747.31621        10.500           0.281
  15553496.503     -251827.912 8   -108562.82223        29.000           2.938
  15639181.534   -44056864.295 7  -4466183.21323        23.500           2.906
 91  5 20 21 15 29.9830000  0  5G13G19G15G 2G 6
  17781385.894    -9647941.109 5  -1502438.03721        11.500           0.094
  18709510.323   -10771181.729 4    137046.45821         6.500           0.156
  18907646.269    -2524198.728 5   -876654.66221        10.500           0.156
  15548226.714     -279519.138 8   -130140.40922        28.000           1.531
  15630014.480   -44105039.410 7  -4503722.25822        23.250           1.625
 91  5 20 21 15 44.9830000  0  5G13G19G15G 2G 6
  17764033.644    -9739120.818 5                        11.500
  18711126.433   -10762669.729 4                         6.500
  18898168.136    -2574010.444 5   -915468.95921        11.000           0.063
  15542968.175     -307150.118 7   -151671.05521        27.750           0.313
  15620859.769   -44153143.391 7  -4541205.88221        23.250           0.406
 91  5 20 21 15 59.9830000  0  5G13G19G15G 2G 6
  17746695.636    -9830237.280 5                        11.500
  18712755.019   -10754110.901 4                         6.500
  18888712.245    -2623702.406 5                        10.500
  15537721.487     -334720.544 8   -173154.52221        28.250           0.344
  15611719.995   -44201175.742 7  -4578633.69921        24.000           0.438
 91  5 20 21 16 14.9830000  0  5G13G19G15G 2G 6
  17729366.995    -9921293.675 5                        11.000
  18714392.901   -10745509.094 4                         6.750
  18879279.425    -2673278.042 5                         9.750
  15532486.753     -362234.315 8   -194593.80621        28.000           0.406
  15602592.292   -44249139.961 7  -4616008.39821        24.250           0.406
 91  5 20 21 16 29.9830000  0  5G13G19G15G 2G 6
  17712051.300   -10012289.747 5                        11.500
  18716036.878   -10736864.284 4                         6.750
  18869867.761    -2722736.802 5                        10.250
  15527261.425     -389691.257 8   -215988.82123        28.500           2.906
  15593478.253   -44297035.689 7  -4653329.72623        24.500           2.781
 91  5 20 21 16 44.9830000  0  5G13G19G15G 2G 6
  17694747.066   -10103224.991 5        -0.34831        11.750           0.188
  18717689.941   -10728176.722 4                         6.500
  18860479.011    -2772078.878 5                        10.250
  15522047.409     -417091.641 8   -237339.76223        29.000           2.750
  15584377.925   -44344862.974 7  -4690597.72123        23.750           2.875
 91  5 20 21 16 59.9830000  0  5G13G19G15G 2G 6
  17677454.816   -10194096.659 5    -70809.29221        11.750           0.375
  18719351.386   -10719444.029 4                         6.500
  18851110.722    -2821301.597 5                         9.500
  15516844.183     -444432.972 8   -258644.69723        29.000           2.750
  15575289.909   -44392618.952 7  -4727810.16723        24.500           2.969
 91  5 20 21 17 14.9820000  0  5G13G19G15G 2G 6
  17660175.404   -10284900.728 5   -141565.55321        11.750           0.250
  18721020.733   -10710669.309 4                         6.500
  18841764.967    -2870403.784 5        -0.03331         9.250           0.313
  15511653.061     -471715.980 8   -279904.19023        28.750           2.688
  15566215.303   -44440302.781 7  -4764966.38523        24.750           2.813
 91  5 20 21 17 29.9820000  0  5G13G19G15G 2G 6
  17642907.342   -10375647.190 5   -212276.93121        11.750           0.250
  18722698.858   -10701849.788 4        -0.20331         6.500           0.500
  18832444.904    -2919389.856 5    -38170.94021        10.250           0.406
  15506471.951     -498942.771 8   -301119.87123        28.750           2.625
  15557154.256   -44487918.832 7  -4802069.79323        23.750           2.594
 91  5 20 21 17 44.9820000  0  5G13G19G15G 2G 6
  17625649.904   -10466331.231 5   -282939.66121        11.750           0.313
  18724387.858   -10692987.780 4      6905.12421         6.500           0.469
  18823145.170    -2968258.067 5    -76250.04921        10.250           0.375
  15501300.858     -526113.246 8   -322291.67223        28.500           2.719
  15548108.826   -44535465.329 7  -4839119.00923        24.500           2.750
